<?xml version="1.0" encoding="UTF-8" standalone="no" ?>
<gpx xmlns="http://www.topografix.com/GPX/1/1" xmlns:xsi="http://www.w3.org/2001/XMLSchema-instance" xsi:schemaLocation="http://www.topografix.com/GPX/1/1 http://www.topografix.com/GPX/1/1/gpx.xsd" version="1.1" creator="VisuGPX - https://www.visugpx.com">
  <metadata>
    <name>Saint Paul de Tartas 28km</name>
    <desc><![CDATA[fait le  15/06/2025]]></desc>
  </metadata>
  <wpt lat="44.80912" lon="3.95371">
    <ele>1037.1</ele>
    <name><![CDATA[chemin délicat]]></name>
    <desc><![CDATA[chemin encombrer d'arbres , les contourner est parfois compliqué, si bien qu'une fois sur la piste on a préféré la  continuer d'ou on reviens sur nos pas.]]></desc>
    <type><![CDATA[alarm]]></type>
    <extensions>
      <visugpx:TrackPointExtension xmlns:visugpx="https://www.visugpx.com/editgpx/">
        <visugpx:dec>0,0</visugpx:dec>
      </visugpx:TrackPointExtension>
    </extensions>
  </wpt>
  <wpt lat="44.81016" lon="3.94581">
    <ele>1028.9</ele>
    <desc><![CDATA[le chemin se perd]]></desc>
    <type><![CDATA[alarm]]></type>
    <extensions>
      <visugpx:TrackPointExtension xmlns:visugpx="https://www.visugpx.com/editgpx/">
        <visugpx:dec>0,0</visugpx:dec>
      </visugpx:TrackPointExtension>
    </extensions>
  </wpt>
  <trk>
    <name><![CDATA[2025-06-15 18:52:14]]></name>
    <extensions>
      <line xmlns="http://www.topografix.com/GPX/gpx_style/0/2">
        <color>0000FF</color>
        <width>4</width>
      </line>
    </extensions>
    <trkseg>
      <trkpt lat="44.78012" lon="3.89682">
        <ele>1250.81</ele>
        <time>2025-06-15T08:25:34Z</time>
        <extensions>
          <visugpx:TrkExtension xmlns:visugpx="https://www.visugpx.com/editgpx/">
            <visugpx:node>1</visugpx:node>
            </visugpx:TrkExtension>
        </extensions>
      </trkpt>
      <trkpt lat="44.78024" lon="3.89675">
        <ele>1256.1</ele>
        <time>2025-06-15T08:25:51Z</time>
      </trkpt>
      <trkpt lat="44.78027" lon="3.89671">
        <ele>1257.06</ele>
        <time>2025-06-15T08:25:58Z</time>
      </trkpt>
      <trkpt lat="44.78038" lon="3.89657">
        <ele>1256.1</ele>
        <time>2025-06-15T08:26:10Z</time>
      </trkpt>
      <trkpt lat="44.78038" lon="3.89657">
        <ele>1258.02</ele>
        <time>2025-06-15T08:26:14Z</time>
      </trkpt>
      <trkpt lat="44.7804" lon="3.89661">
        <ele>1262.83</ele>
        <time>2025-06-15T08:26:25Z</time>
      </trkpt>
      <trkpt lat="44.78041" lon="3.89664">
        <ele>1263.79</ele>
        <time>2025-06-15T08:26:39Z</time>
      </trkpt>
      <trkpt lat="44.7804" lon="3.8968">
        <ele>1264.75</ele>
        <time>2025-06-15T08:26:52Z</time>
      </trkpt>
      <trkpt lat="44.78035" lon="3.89697">
        <ele>1263.31</ele>
        <time>2025-06-15T08:27:08Z</time>
      </trkpt>
      <trkpt lat="44.78031" lon="3.89715">
        <ele>1260.91</ele>
        <time>2025-06-15T08:27:21Z</time>
      </trkpt>
      <trkpt lat="44.78028" lon="3.89738">
        <ele>1259.94</ele>
        <time>2025-06-15T08:27:35Z</time>
      </trkpt>
      <trkpt lat="44.78027" lon="3.89767">
        <ele>1258.5</ele>
        <time>2025-06-15T08:27:52Z</time>
      </trkpt>
      <trkpt lat="44.78024" lon="3.89786">
        <ele>1257.54</ele>
        <time>2025-06-15T08:28:09Z</time>
      </trkpt>
      <trkpt lat="44.78027" lon="3.8981">
        <ele>1258.02</ele>
        <time>2025-06-15T08:28:24Z</time>
      </trkpt>
      <trkpt lat="44.78023" lon="3.89835">
        <ele>1258.5</ele>
        <time>2025-06-15T08:28:41Z</time>
      </trkpt>
      <trkpt lat="44.7802" lon="3.89867">
        <ele>1260.91</ele>
        <time>2025-06-15T08:28:57Z</time>
      </trkpt>
      <trkpt lat="44.78016" lon="3.8989">
        <ele>1264.27</ele>
        <time>2025-06-15T08:29:13Z</time>
      </trkpt>
      <trkpt lat="44.78011" lon="3.89909">
        <ele>1267.16</ele>
        <time>2025-06-15T08:29:29Z</time>
      </trkpt>
      <trkpt lat="44.78015" lon="3.89911">
        <ele>1273.4</ele>
        <time>2025-06-15T08:29:55Z</time>
      </trkpt>
      <trkpt lat="44.78014" lon="3.89911">
        <ele>1275.81</ele>
        <time>2025-06-15T08:30:23Z</time>
      </trkpt>
      <trkpt lat="44.78006" lon="3.89913">
        <ele>1277.73</ele>
        <time>2025-06-15T08:30:45Z</time>
      </trkpt>
      <trkpt lat="44.78008" lon="3.89916">
        <ele>1285.42</ele>
        <time>2025-06-15T08:31:15Z</time>
      </trkpt>
      <trkpt lat="44.78019" lon="3.89948">
        <ele>1289.27</ele>
        <time>2025-06-15T08:31:33Z</time>
      </trkpt>
      <trkpt lat="44.78006" lon="3.89967">
        <ele>1283.98</ele>
        <time>2025-06-15T08:31:50Z</time>
      </trkpt>
      <trkpt lat="44.78005" lon="3.89987">
        <ele>1284.46</ele>
        <time>2025-06-15T08:32:04Z</time>
      </trkpt>
      <trkpt lat="44.77997" lon="3.90016">
        <ele>1280.13</ele>
        <time>2025-06-15T08:32:23Z</time>
      </trkpt>
      <trkpt lat="44.77994" lon="3.90031">
        <ele>1277.73</ele>
        <time>2025-06-15T08:32:38Z</time>
      </trkpt>
      <trkpt lat="44.77993" lon="3.90049">
        <ele>1273.88</ele>
        <time>2025-06-15T08:32:52Z</time>
      </trkpt>
      <trkpt lat="44.77993" lon="3.9005">
        <ele>1273.88</ele>
        <time>2025-06-15T08:32:53Z</time>
      </trkpt>
      <trkpt lat="44.77989" lon="3.9006">
        <ele>1272.92</ele>
        <time>2025-06-15T08:32:59Z</time>
      </trkpt>
      <trkpt lat="44.77994" lon="3.90083">
        <ele>1271.96</ele>
        <time>2025-06-15T08:33:16Z</time>
      </trkpt>
      <trkpt lat="44.77989" lon="3.90095">
        <ele>1272.44</ele>
        <time>2025-06-15T08:33:32Z</time>
      </trkpt>
      <trkpt lat="44.7799" lon="3.90119">
        <ele>1273.4</ele>
        <time>2025-06-15T08:33:50Z</time>
      </trkpt>
      <trkpt lat="44.77983" lon="3.90136">
        <ele>1274.36</ele>
        <time>2025-06-15T08:34:03Z</time>
      </trkpt>
      <trkpt lat="44.77967" lon="3.90149">
        <ele>1272.92</ele>
        <time>2025-06-15T08:34:18Z</time>
      </trkpt>
      <trkpt lat="44.77958" lon="3.90159">
        <ele>1267.16</ele>
        <time>2025-06-15T08:34:32Z</time>
      </trkpt>
      <trkpt lat="44.77943" lon="3.9017">
        <ele>1266.19</ele>
        <time>2025-06-15T08:34:47Z</time>
      </trkpt>
      <trkpt lat="44.77926" lon="3.90181">
        <ele>1268.12</ele>
        <time>2025-06-15T08:35:03Z</time>
      </trkpt>
      <trkpt lat="44.7791" lon="3.90191">
        <ele>1270.04</ele>
        <time>2025-06-15T08:35:17Z</time>
      </trkpt>
      <trkpt lat="44.77896" lon="3.90203">
        <ele>1269.56</ele>
        <time>2025-06-15T08:35:34Z</time>
      </trkpt>
      <trkpt lat="44.77887" lon="3.90208">
        <ele>1267.16</ele>
        <time>2025-06-15T08:35:50Z</time>
      </trkpt>
      <trkpt lat="44.77884" lon="3.90204">
        <ele>1265.71</ele>
        <time>2025-06-15T08:36:09Z</time>
      </trkpt>
      <trkpt lat="44.77881" lon="3.90202">
        <ele>1265.71</ele>
        <time>2025-06-15T08:36:36Z</time>
      </trkpt>
      <trkpt lat="44.77887" lon="3.9021">
        <ele>1265.23</ele>
        <time>2025-06-15T08:36:53Z</time>
      </trkpt>
      <trkpt lat="44.77882" lon="3.90213">
        <ele>1265.71</ele>
        <time>2025-06-15T08:37:16Z</time>
      </trkpt>
      <trkpt lat="44.77881" lon="3.90212">
        <ele>1258.02</ele>
        <time>2025-06-15T08:37:40Z</time>
      </trkpt>
      <trkpt lat="44.77874" lon="3.90218">
        <ele>1259.94</ele>
        <time>2025-06-15T08:37:54Z</time>
      </trkpt>
      <trkpt lat="44.77859" lon="3.90224">
        <ele>1262.83</ele>
        <time>2025-06-15T08:38:13Z</time>
      </trkpt>
      <trkpt lat="44.77842" lon="3.90238">
        <ele>1265.23</ele>
        <time>2025-06-15T08:38:29Z</time>
      </trkpt>
      <trkpt lat="44.77824" lon="3.9025">
        <ele>1266.67</ele>
        <time>2025-06-15T08:38:45Z</time>
      </trkpt>
      <trkpt lat="44.77804" lon="3.90265">
        <ele>1267.16</ele>
        <time>2025-06-15T08:39:03Z</time>
      </trkpt>
      <trkpt lat="44.77786" lon="3.90274">
        <ele>1264.75</ele>
        <time>2025-06-15T08:39:22Z</time>
      </trkpt>
      <trkpt lat="44.77764" lon="3.90286">
        <ele>1262.35</ele>
        <time>2025-06-15T08:39:39Z</time>
      </trkpt>
      <trkpt lat="44.77742" lon="3.90303">
        <ele>1263.79</ele>
        <time>2025-06-15T08:39:55Z</time>
      </trkpt>
      <trkpt lat="44.77731" lon="3.90313">
        <ele>1263.79</ele>
        <time>2025-06-15T08:40:05Z</time>
      </trkpt>
      <trkpt lat="44.77708" lon="3.90329">
        <ele>1266.19</ele>
        <time>2025-06-15T08:40:22Z</time>
      </trkpt>
      <trkpt lat="44.77691" lon="3.90341">
        <ele>1268.6</ele>
        <time>2025-06-15T08:40:37Z</time>
      </trkpt>
      <trkpt lat="44.77677" lon="3.90354">
        <ele>1270.04</ele>
        <time>2025-06-15T08:40:52Z</time>
      </trkpt>
      <trkpt lat="44.77663" lon="3.90368">
        <ele>1271.96</ele>
        <time>2025-06-15T08:41:08Z</time>
      </trkpt>
      <trkpt lat="44.7765" lon="3.90376">
        <ele>1273.88</ele>
        <time>2025-06-15T08:41:20Z</time>
      </trkpt>
      <trkpt lat="44.77628" lon="3.90392">
        <ele>1280.13</ele>
        <time>2025-06-15T08:41:39Z</time>
      </trkpt>
      <trkpt lat="44.77614" lon="3.90404">
        <ele>1283.02</ele>
        <time>2025-06-15T08:41:52Z</time>
      </trkpt>
      <trkpt lat="44.77591" lon="3.90415">
        <ele>1285.9</ele>
        <time>2025-06-15T08:42:08Z</time>
      </trkpt>
      <trkpt lat="44.77576" lon="3.90423">
        <ele>1280.13</ele>
        <time>2025-06-15T08:42:23Z</time>
      </trkpt>
      <trkpt lat="44.77567" lon="3.9043">
        <ele>1280.61</ele>
        <time>2025-06-15T08:42:37Z</time>
      </trkpt>
      <trkpt lat="44.77553" lon="3.9044">
        <ele>1283.5</ele>
        <time>2025-06-15T08:42:51Z</time>
      </trkpt>
      <trkpt lat="44.7754" lon="3.9045">
        <ele>1283.5</ele>
        <time>2025-06-15T08:43:07Z</time>
      </trkpt>
      <trkpt lat="44.7752" lon="3.90463">
        <ele>1283.02</ele>
        <time>2025-06-15T08:43:23Z</time>
      </trkpt>
      <trkpt lat="44.77503" lon="3.90464">
        <ele>1279.65</ele>
        <time>2025-06-15T08:43:37Z</time>
      </trkpt>
      <trkpt lat="44.77497" lon="3.90473">
        <ele>1278.21</ele>
        <time>2025-06-15T08:43:45Z</time>
      </trkpt>
      <trkpt lat="44.77483" lon="3.90481">
        <ele>1273.88</ele>
        <time>2025-06-15T08:43:59Z</time>
      </trkpt>
      <trkpt lat="44.77466" lon="3.90491">
        <ele>1271</ele>
        <time>2025-06-15T08:44:13Z</time>
      </trkpt>
      <trkpt lat="44.77452" lon="3.90501">
        <ele>1270.52</ele>
        <time>2025-06-15T08:44:26Z</time>
      </trkpt>
      <trkpt lat="44.77439" lon="3.90509">
        <ele>1269.08</ele>
        <time>2025-06-15T08:44:41Z</time>
      </trkpt>
      <trkpt lat="44.77425" lon="3.90518">
        <ele>1268.6</ele>
        <time>2025-06-15T08:44:56Z</time>
      </trkpt>
      <trkpt lat="44.77409" lon="3.90531">
        <ele>1269.56</ele>
        <time>2025-06-15T08:45:09Z</time>
      </trkpt>
      <trkpt lat="44.774" lon="3.90538">
        <ele>1270.52</ele>
        <time>2025-06-15T08:45:16Z</time>
      </trkpt>
      <trkpt lat="44.77383" lon="3.9055">
        <ele>1271.96</ele>
        <time>2025-06-15T08:45:33Z</time>
      </trkpt>
      <trkpt lat="44.77369" lon="3.90558">
        <ele>1271.96</ele>
        <time>2025-06-15T08:45:47Z</time>
      </trkpt>
      <trkpt lat="44.77356" lon="3.90567">
        <ele>1271</ele>
        <time>2025-06-15T08:46:02Z</time>
      </trkpt>
      <trkpt lat="44.77341" lon="3.90578">
        <ele>1271</ele>
        <time>2025-06-15T08:46:16Z</time>
      </trkpt>
      <trkpt lat="44.77324" lon="3.90589">
        <ele>1270.04</ele>
        <time>2025-06-15T08:46:30Z</time>
      </trkpt>
      <trkpt lat="44.77321" lon="3.90591">
        <ele>1269.56</ele>
        <time>2025-06-15T08:46:33Z</time>
      </trkpt>
      <trkpt lat="44.77318" lon="3.90591">
        <ele>1269.08</ele>
        <time>2025-06-15T08:46:36Z</time>
      </trkpt>
      <trkpt lat="44.77298" lon="3.90604">
        <ele>1270.52</ele>
        <time>2025-06-15T08:46:52Z</time>
      </trkpt>
      <trkpt lat="44.77295" lon="3.90605">
        <ele>1270.52</ele>
        <time>2025-06-15T08:46:56Z</time>
      </trkpt>
      <trkpt lat="44.77278" lon="3.90615">
        <ele>1270.04</ele>
        <time>2025-06-15T08:47:12Z</time>
      </trkpt>
      <trkpt lat="44.77259" lon="3.9063">
        <ele>1273.88</ele>
        <time>2025-06-15T08:47:26Z</time>
      </trkpt>
      <trkpt lat="44.77244" lon="3.90641">
        <ele>1276.29</ele>
        <time>2025-06-15T08:47:41Z</time>
      </trkpt>
      <trkpt lat="44.77228" lon="3.90655">
        <ele>1280.13</ele>
        <time>2025-06-15T08:47:56Z</time>
      </trkpt>
      <trkpt lat="44.77214" lon="3.90669">
        <ele>1282.54</ele>
        <time>2025-06-15T08:48:09Z</time>
      </trkpt>
      <trkpt lat="44.77202" lon="3.90676">
        <ele>1283.02</ele>
        <time>2025-06-15T08:48:20Z</time>
      </trkpt>
      <trkpt lat="44.77195" lon="3.90679">
        <ele>1282.54</ele>
        <time>2025-06-15T08:48:27Z</time>
      </trkpt>
      <trkpt lat="44.77179" lon="3.90691">
        <ele>1283.02</ele>
        <time>2025-06-15T08:48:42Z</time>
      </trkpt>
      <trkpt lat="44.77161" lon="3.90699">
        <ele>1280.13</ele>
        <time>2025-06-15T08:48:57Z</time>
      </trkpt>
      <trkpt lat="44.77141" lon="3.90714">
        <ele>1281.09</ele>
        <time>2025-06-15T08:49:12Z</time>
      </trkpt>
      <trkpt lat="44.77126" lon="3.90728">
        <ele>1283.5</ele>
        <time>2025-06-15T08:49:25Z</time>
      </trkpt>
      <trkpt lat="44.7711" lon="3.90742">
        <ele>1286.86</ele>
        <time>2025-06-15T08:49:40Z</time>
      </trkpt>
      <trkpt lat="44.77094" lon="3.90755">
        <ele>1288.78</ele>
        <time>2025-06-15T08:49:54Z</time>
      </trkpt>
      <trkpt lat="44.77083" lon="3.90766">
        <ele>1289.75</ele>
        <time>2025-06-15T08:50:07Z</time>
      </trkpt>
      <trkpt lat="44.77066" lon="3.90782">
        <ele>1292.63</ele>
        <time>2025-06-15T08:50:22Z</time>
      </trkpt>
      <trkpt lat="44.77052" lon="3.90796">
        <ele>1294.55</ele>
        <time>2025-06-15T08:50:35Z</time>
      </trkpt>
      <trkpt lat="44.77041" lon="3.90807">
        <ele>1293.59</ele>
        <time>2025-06-15T08:50:48Z</time>
      </trkpt>
      <trkpt lat="44.77024" lon="3.90825">
        <ele>1295.99</ele>
        <time>2025-06-15T08:51:02Z</time>
      </trkpt>
      <trkpt lat="44.77011" lon="3.90842">
        <ele>1297.92</ele>
        <time>2025-06-15T08:51:15Z</time>
      </trkpt>
      <trkpt lat="44.76996" lon="3.90859">
        <ele>1299.36</ele>
        <time>2025-06-15T08:51:29Z</time>
      </trkpt>
      <trkpt lat="44.7698" lon="3.90876">
        <ele>1300.32</ele>
        <time>2025-06-15T08:51:46Z</time>
      </trkpt>
      <trkpt lat="44.76972" lon="3.90885">
        <ele>1301.76</ele>
        <time>2025-06-15T08:51:53Z</time>
      </trkpt>
      <trkpt lat="44.76954" lon="3.90906">
        <ele>1304.65</ele>
        <time>2025-06-15T08:52:10Z</time>
      </trkpt>
      <trkpt lat="44.76939" lon="3.90926">
        <ele>1304.65</ele>
        <time>2025-06-15T08:52:23Z</time>
      </trkpt>
      <trkpt lat="44.76922" lon="3.90943">
        <ele>1304.65</ele>
        <time>2025-06-15T08:52:40Z</time>
      </trkpt>
      <trkpt lat="44.76907" lon="3.90961">
        <ele>1305.13</ele>
        <time>2025-06-15T08:52:56Z</time>
      </trkpt>
      <trkpt lat="44.76892" lon="3.90976">
        <ele>1302.72</ele>
        <time>2025-06-15T08:53:12Z</time>
      </trkpt>
      <trkpt lat="44.76875" lon="3.90996">
        <ele>1301.76</ele>
        <time>2025-06-15T08:53:29Z</time>
      </trkpt>
      <trkpt lat="44.76859" lon="3.91018">
        <ele>1301.28</ele>
        <time>2025-06-15T08:53:42Z</time>
      </trkpt>
      <trkpt lat="44.7685" lon="3.91027">
        <ele>1300.8</ele>
        <time>2025-06-15T08:53:53Z</time>
      </trkpt>
      <trkpt lat="44.76834" lon="3.91052">
        <ele>1300.8</ele>
        <time>2025-06-15T08:54:10Z</time>
      </trkpt>
      <trkpt lat="44.76824" lon="3.91069">
        <ele>1300.8</ele>
        <time>2025-06-15T08:54:22Z</time>
      </trkpt>
      <trkpt lat="44.76807" lon="3.91096">
        <ele>1300.8</ele>
        <time>2025-06-15T08:54:38Z</time>
      </trkpt>
      <trkpt lat="44.76794" lon="3.91123">
        <ele>1301.76</ele>
        <time>2025-06-15T08:54:50Z</time>
      </trkpt>
      <trkpt lat="44.76782" lon="3.91148">
        <ele>1300.32</ele>
        <time>2025-06-15T08:55:06Z</time>
      </trkpt>
      <trkpt lat="44.76771" lon="3.91163">
        <ele>1299.84</ele>
        <time>2025-06-15T08:55:21Z</time>
      </trkpt>
      <trkpt lat="44.76759" lon="3.9118">
        <ele>1297.44</ele>
        <time>2025-06-15T08:55:34Z</time>
      </trkpt>
      <trkpt lat="44.7675" lon="3.91194">
        <ele>1295.03</ele>
        <time>2025-06-15T08:55:48Z</time>
      </trkpt>
      <trkpt lat="44.76733" lon="3.9122">
        <ele>1294.55</ele>
        <time>2025-06-15T08:56:03Z</time>
      </trkpt>
      <trkpt lat="44.7672" lon="3.91247">
        <ele>1291.19</ele>
        <time>2025-06-15T08:56:19Z</time>
      </trkpt>
      <trkpt lat="44.76713" lon="3.9126">
        <ele>1287.82</ele>
        <time>2025-06-15T08:56:31Z</time>
      </trkpt>
      <trkpt lat="44.767" lon="3.91281">
        <ele>1286.38</ele>
        <time>2025-06-15T08:56:44Z</time>
      </trkpt>
      <trkpt lat="44.76689" lon="3.91302">
        <ele>1284.46</ele>
        <time>2025-06-15T08:56:57Z</time>
      </trkpt>
      <trkpt lat="44.76673" lon="3.91331">
        <ele>1285.42</ele>
        <time>2025-06-15T08:57:13Z</time>
      </trkpt>
      <trkpt lat="44.7666" lon="3.91354">
        <ele>1284.94</ele>
        <time>2025-06-15T08:57:28Z</time>
      </trkpt>
      <trkpt lat="44.76643" lon="3.91358">
        <ele>1284.46</ele>
        <time>2025-06-15T08:57:42Z</time>
      </trkpt>
      <trkpt lat="44.76633" lon="3.91356">
        <ele>1284.46</ele>
        <time>2025-06-15T08:57:49Z</time>
      </trkpt>
      <trkpt lat="44.76627" lon="3.91352">
        <ele>1283.98</ele>
        <time>2025-06-15T08:58:04Z</time>
      </trkpt>
      <trkpt lat="44.76626" lon="3.91359">
        <ele>1284.94</ele>
        <time>2025-06-15T08:58:15Z</time>
      </trkpt>
      <trkpt lat="44.76624" lon="3.91367">
        <ele>1286.86</ele>
        <time>2025-06-15T08:58:20Z</time>
      </trkpt>
      <trkpt lat="44.76631" lon="3.91388">
        <ele>1287.34</ele>
        <time>2025-06-15T08:58:35Z</time>
      </trkpt>
      <trkpt lat="44.7662" lon="3.91415">
        <ele>1286.38</ele>
        <time>2025-06-15T08:58:53Z</time>
      </trkpt>
      <trkpt lat="44.76617" lon="3.91421">
        <ele>1286.86</ele>
        <time>2025-06-15T08:58:59Z</time>
      </trkpt>
      <trkpt lat="44.76618" lon="3.91425">
        <ele>1286.86</ele>
        <time>2025-06-15T08:59:02Z</time>
      </trkpt>
      <trkpt lat="44.76638" lon="3.91433">
        <ele>1286.86</ele>
        <time>2025-06-15T08:59:22Z</time>
      </trkpt>
      <trkpt lat="44.76638" lon="3.91434">
        <ele>1286.38</ele>
        <time>2025-06-15T08:59:42Z</time>
      </trkpt>
      <trkpt lat="44.76647" lon="3.91442">
        <ele>1287.82</ele>
        <time>2025-06-15T08:59:57Z</time>
      </trkpt>
      <trkpt lat="44.76661" lon="3.91463">
        <ele>1287.34</ele>
        <time>2025-06-15T09:00:14Z</time>
      </trkpt>
      <trkpt lat="44.76671" lon="3.91478">
        <ele>1286.38</ele>
        <time>2025-06-15T09:00:27Z</time>
      </trkpt>
      <trkpt lat="44.76676" lon="3.91497">
        <ele>1284.94</ele>
        <time>2025-06-15T09:00:38Z</time>
      </trkpt>
      <trkpt lat="44.76683" lon="3.91524">
        <ele>1281.57</ele>
        <time>2025-06-15T09:00:55Z</time>
      </trkpt>
      <trkpt lat="44.76689" lon="3.91555">
        <ele>1279.17</ele>
        <time>2025-06-15T09:01:13Z</time>
      </trkpt>
      <trkpt lat="44.76692" lon="3.91588">
        <ele>1276.77</ele>
        <time>2025-06-15T09:01:30Z</time>
      </trkpt>
      <trkpt lat="44.76694" lon="3.91604">
        <ele>1274.85</ele>
        <time>2025-06-15T09:01:38Z</time>
      </trkpt>
      <trkpt lat="44.767" lon="3.91635">
        <ele>1271.96</ele>
        <time>2025-06-15T09:01:55Z</time>
      </trkpt>
      <trkpt lat="44.76707" lon="3.91665">
        <ele>1270.04</ele>
        <time>2025-06-15T09:02:11Z</time>
      </trkpt>
      <trkpt lat="44.76716" lon="3.91687">
        <ele>1269.08</ele>
        <time>2025-06-15T09:02:27Z</time>
      </trkpt>
      <trkpt lat="44.76726" lon="3.91717">
        <ele>1266.67</ele>
        <time>2025-06-15T09:02:45Z</time>
      </trkpt>
      <trkpt lat="44.7674" lon="3.91738">
        <ele>1264.75</ele>
        <time>2025-06-15T09:03:00Z</time>
      </trkpt>
      <trkpt lat="44.76751" lon="3.91764">
        <ele>1262.83</ele>
        <time>2025-06-15T09:03:17Z</time>
      </trkpt>
      <trkpt lat="44.76757" lon="3.91786">
        <ele>1259.94</ele>
        <time>2025-06-15T09:03:31Z</time>
      </trkpt>
      <trkpt lat="44.76763" lon="3.91813">
        <ele>1256.1</ele>
        <time>2025-06-15T09:03:47Z</time>
      </trkpt>
      <trkpt lat="44.76766" lon="3.91843">
        <ele>1253.7</ele>
        <time>2025-06-15T09:04:02Z</time>
      </trkpt>
      <trkpt lat="44.76765" lon="3.91866">
        <ele>1252.74</ele>
        <time>2025-06-15T09:04:14Z</time>
      </trkpt>
      <trkpt lat="44.76763" lon="3.91897">
        <ele>1250.81</ele>
        <time>2025-06-15T09:04:29Z</time>
      </trkpt>
      <trkpt lat="44.76762" lon="3.91927">
        <ele>1247.45</ele>
        <time>2025-06-15T09:04:44Z</time>
      </trkpt>
      <trkpt lat="44.76762" lon="3.91929">
        <ele>1247.45</ele>
        <time>2025-06-15T09:04:45Z</time>
      </trkpt>
      <trkpt lat="44.76763" lon="3.91958">
        <ele>1245.04</ele>
        <time>2025-06-15T09:05:00Z</time>
      </trkpt>
      <trkpt lat="44.76763" lon="3.91981">
        <ele>1244.56</ele>
        <time>2025-06-15T09:05:11Z</time>
      </trkpt>
      <trkpt lat="44.76763" lon="3.92015">
        <ele>1241.2</ele>
        <time>2025-06-15T09:05:29Z</time>
      </trkpt>
      <trkpt lat="44.76763" lon="3.92046">
        <ele>1240.24</ele>
        <time>2025-06-15T09:05:44Z</time>
      </trkpt>
      <trkpt lat="44.76764" lon="3.92076">
        <ele>1239.28</ele>
        <time>2025-06-15T09:05:59Z</time>
      </trkpt>
      <trkpt lat="44.76764" lon="3.92089">
        <ele>1238.8</ele>
        <time>2025-06-15T09:06:05Z</time>
      </trkpt>
      <trkpt lat="44.76765" lon="3.92097">
        <ele>1238.8</ele>
        <time>2025-06-15T09:06:09Z</time>
      </trkpt>
      <trkpt lat="44.76769" lon="3.92122">
        <ele>1238.32</ele>
        <time>2025-06-15T09:06:21Z</time>
      </trkpt>
      <trkpt lat="44.76777" lon="3.92153">
        <ele>1236.87</ele>
        <time>2025-06-15T09:06:37Z</time>
      </trkpt>
      <trkpt lat="44.76788" lon="3.9218">
        <ele>1233.03</ele>
        <time>2025-06-15T09:06:52Z</time>
      </trkpt>
      <trkpt lat="44.76801" lon="3.9221">
        <ele>1230.62</ele>
        <time>2025-06-15T09:07:11Z</time>
      </trkpt>
      <trkpt lat="44.76813" lon="3.92233">
        <ele>1229.18</ele>
        <time>2025-06-15T09:07:26Z</time>
      </trkpt>
      <trkpt lat="44.76823" lon="3.92262">
        <ele>1229.18</ele>
        <time>2025-06-15T09:07:41Z</time>
      </trkpt>
      <trkpt lat="44.76832" lon="3.92288">
        <ele>1228.22</ele>
        <time>2025-06-15T09:07:56Z</time>
      </trkpt>
      <trkpt lat="44.76839" lon="3.92311">
        <ele>1226.3</ele>
        <time>2025-06-15T09:08:10Z</time>
      </trkpt>
      <trkpt lat="44.76848" lon="3.92327">
        <ele>1224.38</ele>
        <time>2025-06-15T09:08:23Z</time>
      </trkpt>
      <trkpt lat="44.76858" lon="3.92343">
        <ele>1219.09</ele>
        <time>2025-06-15T09:08:37Z</time>
      </trkpt>
      <trkpt lat="44.76869" lon="3.92363">
        <ele>1218.13</ele>
        <time>2025-06-15T09:08:50Z</time>
      </trkpt>
      <trkpt lat="44.76882" lon="3.92386">
        <ele>1216.69</ele>
        <time>2025-06-15T09:09:06Z</time>
      </trkpt>
      <trkpt lat="44.76889" lon="3.92395">
        <ele>1215.72</ele>
        <time>2025-06-15T09:09:15Z</time>
      </trkpt>
      <trkpt lat="44.7691" lon="3.92415">
        <ele>1214.28</ele>
        <time>2025-06-15T09:09:33Z</time>
      </trkpt>
      <trkpt lat="44.76925" lon="3.92436">
        <ele>1214.76</ele>
        <time>2025-06-15T09:09:48Z</time>
      </trkpt>
      <trkpt lat="44.76949" lon="3.92458">
        <ele>1216.21</ele>
        <time>2025-06-15T09:10:06Z</time>
      </trkpt>
      <trkpt lat="44.7697" lon="3.92478">
        <ele>1215.72</ele>
        <time>2025-06-15T09:10:22Z</time>
      </trkpt>
      <trkpt lat="44.76988" lon="3.92498">
        <ele>1214.28</ele>
        <time>2025-06-15T09:10:37Z</time>
      </trkpt>
      <trkpt lat="44.77014" lon="3.92518">
        <ele>1212.84</ele>
        <time>2025-06-15T09:10:56Z</time>
      </trkpt>
      <trkpt lat="44.77025" lon="3.92519">
        <ele>1212.84</ele>
        <time>2025-06-15T09:11:05Z</time>
      </trkpt>
      <trkpt lat="44.77027" lon="3.92518">
        <ele>1212.84</ele>
        <time>2025-06-15T09:11:07Z</time>
      </trkpt>
      <trkpt lat="44.77041" lon="3.92486">
        <ele>1217.65</ele>
        <time>2025-06-15T09:11:29Z</time>
      </trkpt>
      <trkpt lat="44.7704" lon="3.92489">
        <ele>1218.61</ele>
        <time>2025-06-15T09:11:41Z</time>
      </trkpt>
      <trkpt lat="44.77029" lon="3.92519">
        <ele>1217.65</ele>
        <time>2025-06-15T09:11:59Z</time>
      </trkpt>
      <trkpt lat="44.77025" lon="3.92542">
        <ele>1215.72</ele>
        <time>2025-06-15T09:12:12Z</time>
      </trkpt>
      <trkpt lat="44.77026" lon="3.9255">
        <ele>1216.21</ele>
        <time>2025-06-15T09:12:16Z</time>
      </trkpt>
      <trkpt lat="44.77036" lon="3.92574">
        <ele>1215.24</ele>
        <time>2025-06-15T09:12:31Z</time>
      </trkpt>
      <trkpt lat="44.77042" lon="3.92601">
        <ele>1216.21</ele>
        <time>2025-06-15T09:12:46Z</time>
      </trkpt>
      <trkpt lat="44.77053" lon="3.92627">
        <ele>1216.69</ele>
        <time>2025-06-15T09:12:58Z</time>
      </trkpt>
      <trkpt lat="44.77068" lon="3.92652">
        <ele>1215.72</ele>
        <time>2025-06-15T09:13:13Z</time>
      </trkpt>
      <trkpt lat="44.77081" lon="3.92681">
        <ele>1215.24</ele>
        <time>2025-06-15T09:13:27Z</time>
      </trkpt>
      <trkpt lat="44.77094" lon="3.92711">
        <ele>1215.72</ele>
        <time>2025-06-15T09:13:44Z</time>
      </trkpt>
      <trkpt lat="44.77097" lon="3.92743">
        <ele>1213.8</ele>
        <time>2025-06-15T09:14:02Z</time>
      </trkpt>
      <trkpt lat="44.77095" lon="3.9276">
        <ele>1212.36</ele>
        <time>2025-06-15T09:14:11Z</time>
      </trkpt>
      <trkpt lat="44.77099" lon="3.92791">
        <ele>1210.44</ele>
        <time>2025-06-15T09:14:26Z</time>
      </trkpt>
      <trkpt lat="44.77101" lon="3.92827">
        <ele>1210.44</ele>
        <time>2025-06-15T09:14:42Z</time>
      </trkpt>
      <trkpt lat="44.77106" lon="3.92861">
        <ele>1211.88</ele>
        <time>2025-06-15T09:14:57Z</time>
      </trkpt>
      <trkpt lat="44.7711" lon="3.92892">
        <ele>1212.36</ele>
        <time>2025-06-15T09:15:12Z</time>
      </trkpt>
      <trkpt lat="44.77115" lon="3.92919">
        <ele>1211.4</ele>
        <time>2025-06-15T09:15:28Z</time>
      </trkpt>
      <trkpt lat="44.77115" lon="3.92921">
        <ele>1211.4</ele>
        <time>2025-06-15T09:15:29Z</time>
      </trkpt>
      <trkpt lat="44.77123" lon="3.92956">
        <ele>1211.88</ele>
        <time>2025-06-15T09:15:43Z</time>
      </trkpt>
      <trkpt lat="44.7713" lon="3.92992">
        <ele>1213.8</ele>
        <time>2025-06-15T09:16:00Z</time>
      </trkpt>
      <trkpt lat="44.77131" lon="3.92994">
        <ele>1213.8</ele>
        <time>2025-06-15T09:16:01Z</time>
      </trkpt>
      <trkpt lat="44.77133" lon="3.93028">
        <ele>1213.8</ele>
        <time>2025-06-15T09:16:17Z</time>
      </trkpt>
      <trkpt lat="44.77145" lon="3.9306">
        <ele>1213.8</ele>
        <time>2025-06-15T09:16:36Z</time>
      </trkpt>
      <trkpt lat="44.77145" lon="3.93062">
        <ele>1213.8</ele>
        <time>2025-06-15T09:16:37Z</time>
      </trkpt>
      <trkpt lat="44.77149" lon="3.93097">
        <ele>1212.84</ele>
        <time>2025-06-15T09:16:53Z</time>
      </trkpt>
      <trkpt lat="44.77151" lon="3.93136">
        <ele>1211.88</ele>
        <time>2025-06-15T09:17:11Z</time>
      </trkpt>
      <trkpt lat="44.77152" lon="3.93172">
        <ele>1209.48</ele>
        <time>2025-06-15T09:17:28Z</time>
      </trkpt>
      <trkpt lat="44.77153" lon="3.9321">
        <ele>1208.51</ele>
        <time>2025-06-15T09:17:47Z</time>
      </trkpt>
      <trkpt lat="44.77153" lon="3.93247">
        <ele>1209.48</ele>
        <time>2025-06-15T09:18:03Z</time>
      </trkpt>
      <trkpt lat="44.77152" lon="3.93287">
        <ele>1207.55</ele>
        <time>2025-06-15T09:18:21Z</time>
      </trkpt>
      <trkpt lat="44.77153" lon="3.9333">
        <ele>1205.15</ele>
        <time>2025-06-15T09:18:41Z</time>
      </trkpt>
      <trkpt lat="44.77155" lon="3.9337">
        <ele>1204.67</ele>
        <time>2025-06-15T09:19:00Z</time>
      </trkpt>
      <trkpt lat="44.77161" lon="3.93404">
        <ele>1205.15</ele>
        <time>2025-06-15T09:19:18Z</time>
      </trkpt>
      <trkpt lat="44.7717" lon="3.93428">
        <ele>1204.19</ele>
        <time>2025-06-15T09:19:33Z</time>
      </trkpt>
      <trkpt lat="44.77184" lon="3.93451">
        <ele>1200.34</ele>
        <time>2025-06-15T09:19:50Z</time>
      </trkpt>
      <trkpt lat="44.77189" lon="3.93459">
        <ele>1199.86</ele>
        <time>2025-06-15T09:19:56Z</time>
      </trkpt>
      <trkpt lat="44.77201" lon="3.93486">
        <ele>1198.9</ele>
        <time>2025-06-15T09:20:13Z</time>
      </trkpt>
      <trkpt lat="44.77215" lon="3.93513">
        <ele>1197.46</ele>
        <time>2025-06-15T09:20:31Z</time>
      </trkpt>
      <trkpt lat="44.7723" lon="3.93542">
        <ele>1195.54</ele>
        <time>2025-06-15T09:20:50Z</time>
      </trkpt>
      <trkpt lat="44.77244" lon="3.93574">
        <ele>1194.58</ele>
        <time>2025-06-15T09:21:08Z</time>
      </trkpt>
      <trkpt lat="44.77254" lon="3.93601">
        <ele>1193.13</ele>
        <time>2025-06-15T09:21:24Z</time>
      </trkpt>
      <trkpt lat="44.77255" lon="3.93602">
        <ele>1192.65</ele>
        <time>2025-06-15T09:21:25Z</time>
      </trkpt>
      <trkpt lat="44.77269" lon="3.93629">
        <ele>1190.73</ele>
        <time>2025-06-15T09:21:42Z</time>
      </trkpt>
      <trkpt lat="44.77277" lon="3.93639">
        <ele>1189.29</ele>
        <time>2025-06-15T09:21:49Z</time>
      </trkpt>
      <trkpt lat="44.77277" lon="3.9364">
        <ele>1189.29</ele>
        <time>2025-06-15T09:21:50Z</time>
      </trkpt>
      <trkpt lat="44.77278" lon="3.93641">
        <ele>1188.81</ele>
        <time>2025-06-15T09:21:51Z</time>
      </trkpt>
      <trkpt lat="44.77279" lon="3.93643">
        <ele>1188.81</ele>
        <time>2025-06-15T09:21:52Z</time>
      </trkpt>
      <trkpt lat="44.7728" lon="3.93644">
        <ele>1188.81</ele>
        <time>2025-06-15T09:21:53Z</time>
      </trkpt>
      <trkpt lat="44.77281" lon="3.93646">
        <ele>1188.81</ele>
        <time>2025-06-15T09:21:54Z</time>
      </trkpt>
      <trkpt lat="44.77299" lon="3.93665">
        <ele>1186.88</ele>
        <time>2025-06-15T09:22:10Z</time>
      </trkpt>
      <trkpt lat="44.77314" lon="3.93689">
        <ele>1184</ele>
        <time>2025-06-15T09:22:27Z</time>
      </trkpt>
      <trkpt lat="44.77329" lon="3.93712">
        <ele>1186.4</ele>
        <time>2025-06-15T09:22:42Z</time>
      </trkpt>
      <trkpt lat="44.77344" lon="3.93743">
        <ele>1186.88</ele>
        <time>2025-06-15T09:23:01Z</time>
      </trkpt>
      <trkpt lat="44.77354" lon="3.93773">
        <ele>1184</ele>
        <time>2025-06-15T09:23:17Z</time>
      </trkpt>
      <trkpt lat="44.77358" lon="3.93784">
        <ele>1183.04</ele>
        <time>2025-06-15T09:23:23Z</time>
      </trkpt>
      <trkpt lat="44.77365" lon="3.9381">
        <ele>1179.19</ele>
        <time>2025-06-15T09:23:38Z</time>
      </trkpt>
      <trkpt lat="44.7737" lon="3.93828">
        <ele>1177.75</ele>
        <time>2025-06-15T09:23:48Z</time>
      </trkpt>
      <trkpt lat="44.77369" lon="3.93834">
        <ele>1178.23</ele>
        <time>2025-06-15T09:23:51Z</time>
      </trkpt>
      <trkpt lat="44.77375" lon="3.93865">
        <ele>1175.83</ele>
        <time>2025-06-15T09:24:08Z</time>
      </trkpt>
      <trkpt lat="44.77373" lon="3.9387">
        <ele>1175.35</ele>
        <time>2025-06-15T09:24:11Z</time>
      </trkpt>
      <trkpt lat="44.77372" lon="3.93871">
        <ele>1175.35</ele>
        <time>2025-06-15T09:24:12Z</time>
      </trkpt>
      <trkpt lat="44.77371" lon="3.93873">
        <ele>1175.35</ele>
        <time>2025-06-15T09:24:13Z</time>
      </trkpt>
      <trkpt lat="44.77367" lon="3.93878">
        <ele>1175.35</ele>
        <time>2025-06-15T09:24:17Z</time>
      </trkpt>
      <trkpt lat="44.77365" lon="3.9388">
        <ele>1174.87</ele>
        <time>2025-06-15T09:24:18Z</time>
      </trkpt>
      <trkpt lat="44.77364" lon="3.93881">
        <ele>1174.87</ele>
        <time>2025-06-15T09:24:19Z</time>
      </trkpt>
      <trkpt lat="44.77348" lon="3.939">
        <ele>1174.39</ele>
        <time>2025-06-15T09:24:34Z</time>
      </trkpt>
      <trkpt lat="44.7735" lon="3.9392">
        <ele>1174.87</ele>
        <time>2025-06-15T09:24:46Z</time>
      </trkpt>
      <trkpt lat="44.77355" lon="3.93944">
        <ele>1175.83</ele>
        <time>2025-06-15T09:25:01Z</time>
      </trkpt>
      <trkpt lat="44.77362" lon="3.93972">
        <ele>1176.79</ele>
        <time>2025-06-15T09:25:19Z</time>
      </trkpt>
      <trkpt lat="44.77366" lon="3.93998">
        <ele>1179.19</ele>
        <time>2025-06-15T09:25:35Z</time>
      </trkpt>
      <trkpt lat="44.77373" lon="3.9403">
        <ele>1180.16</ele>
        <time>2025-06-15T09:25:54Z</time>
      </trkpt>
      <trkpt lat="44.77376" lon="3.94052">
        <ele>1182.56</ele>
        <time>2025-06-15T09:26:07Z</time>
      </trkpt>
      <trkpt lat="44.7738" lon="3.94061">
        <ele>1184.48</ele>
        <time>2025-06-15T09:26:13Z</time>
      </trkpt>
      <trkpt lat="44.7738" lon="3.94062">
        <ele>1184.48</ele>
        <time>2025-06-15T09:26:14Z</time>
      </trkpt>
      <trkpt lat="44.77384" lon="3.94065">
        <ele>1185.92</ele>
        <time>2025-06-15T09:26:18Z</time>
      </trkpt>
      <trkpt lat="44.77385" lon="3.94066">
        <ele>1185.92</ele>
        <time>2025-06-15T09:26:19Z</time>
      </trkpt>
      <trkpt lat="44.774" lon="3.94065">
        <ele>1187.85</ele>
        <time>2025-06-15T09:26:34Z</time>
      </trkpt>
      <trkpt lat="44.77405" lon="3.94067">
        <ele>1188.81</ele>
        <time>2025-06-15T09:26:38Z</time>
      </trkpt>
      <trkpt lat="44.77408" lon="3.94069">
        <ele>1188.81</ele>
        <time>2025-06-15T09:26:41Z</time>
      </trkpt>
      <trkpt lat="44.77428" lon="3.94067">
        <ele>1189.29</ele>
        <time>2025-06-15T09:26:58Z</time>
      </trkpt>
      <trkpt lat="44.77436" lon="3.94068">
        <ele>1188.81</ele>
        <time>2025-06-15T09:27:05Z</time>
      </trkpt>
      <trkpt lat="44.77439" lon="3.94074">
        <ele>1188.81</ele>
        <time>2025-06-15T09:27:09Z</time>
      </trkpt>
      <trkpt lat="44.77448" lon="3.94104">
        <ele>1189.77</ele>
        <time>2025-06-15T09:27:26Z</time>
      </trkpt>
      <trkpt lat="44.77457" lon="3.94127">
        <ele>1190.25</ele>
        <time>2025-06-15T09:27:42Z</time>
      </trkpt>
      <trkpt lat="44.77466" lon="3.94153">
        <ele>1192.65</ele>
        <time>2025-06-15T09:27:59Z</time>
      </trkpt>
      <trkpt lat="44.77478" lon="3.94178">
        <ele>1195.06</ele>
        <time>2025-06-15T09:28:17Z</time>
      </trkpt>
      <trkpt lat="44.77503" lon="3.94177">
        <ele>1195.54</ele>
        <time>2025-06-15T09:28:35Z</time>
      </trkpt>
      <trkpt lat="44.77524" lon="3.94167">
        <ele>1195.06</ele>
        <time>2025-06-15T09:28:50Z</time>
      </trkpt>
      <trkpt lat="44.77531" lon="3.94161">
        <ele>1195.06</ele>
        <time>2025-06-15T09:28:57Z</time>
      </trkpt>
      <trkpt lat="44.77533" lon="3.94161">
        <ele>1195.06</ele>
        <time>2025-06-15T09:28:58Z</time>
      </trkpt>
      <trkpt lat="44.77534" lon="3.9416">
        <ele>1194.58</ele>
        <time>2025-06-15T09:28:59Z</time>
      </trkpt>
      <trkpt lat="44.77535" lon="3.94159">
        <ele>1194.58</ele>
        <time>2025-06-15T09:29:00Z</time>
      </trkpt>
      <trkpt lat="44.77537" lon="3.94159">
        <ele>1194.58</ele>
        <time>2025-06-15T09:29:01Z</time>
      </trkpt>
      <trkpt lat="44.77558" lon="3.94148">
        <ele>1193.13</ele>
        <time>2025-06-15T09:29:16Z</time>
      </trkpt>
      <trkpt lat="44.77581" lon="3.94141">
        <ele>1192.65</ele>
        <time>2025-06-15T09:29:32Z</time>
      </trkpt>
      <trkpt lat="44.77603" lon="3.94137">
        <ele>1192.17</ele>
        <time>2025-06-15T09:29:46Z</time>
      </trkpt>
      <trkpt lat="44.77631" lon="3.94131">
        <ele>1192.17</ele>
        <time>2025-06-15T09:30:04Z</time>
      </trkpt>
      <trkpt lat="44.77659" lon="3.94123">
        <ele>1191.69</ele>
        <time>2025-06-15T09:30:21Z</time>
      </trkpt>
      <trkpt lat="44.77679" lon="3.94119">
        <ele>1189.77</ele>
        <time>2025-06-15T09:30:36Z</time>
      </trkpt>
      <trkpt lat="44.77705" lon="3.94116">
        <ele>1186.88</ele>
        <time>2025-06-15T09:30:53Z</time>
      </trkpt>
      <trkpt lat="44.77732" lon="3.9412">
        <ele>1186.88</ele>
        <time>2025-06-15T09:31:11Z</time>
      </trkpt>
      <trkpt lat="44.77758" lon="3.94127">
        <ele>1185.92</ele>
        <time>2025-06-15T09:31:30Z</time>
      </trkpt>
      <trkpt lat="44.77777" lon="3.94119">
        <ele>1184</ele>
        <time>2025-06-15T09:31:46Z</time>
      </trkpt>
      <trkpt lat="44.77797" lon="3.9411">
        <ele>1181.12</ele>
        <time>2025-06-15T09:32:04Z</time>
      </trkpt>
      <trkpt lat="44.77819" lon="3.94112">
        <ele>1178.71</ele>
        <time>2025-06-15T09:32:20Z</time>
      </trkpt>
      <trkpt lat="44.77842" lon="3.94119">
        <ele>1176.31</ele>
        <time>2025-06-15T09:32:34Z</time>
      </trkpt>
      <trkpt lat="44.77865" lon="3.94124">
        <ele>1175.83</ele>
        <time>2025-06-15T09:32:48Z</time>
      </trkpt>
      <trkpt lat="44.77889" lon="3.9413">
        <ele>1175.35</ele>
        <time>2025-06-15T09:33:03Z</time>
      </trkpt>
      <trkpt lat="44.77914" lon="3.94139">
        <ele>1175.35</ele>
        <time>2025-06-15T09:33:21Z</time>
      </trkpt>
      <trkpt lat="44.77931" lon="3.94131">
        <ele>1174.39</ele>
        <time>2025-06-15T09:33:35Z</time>
      </trkpt>
      <trkpt lat="44.77951" lon="3.94121">
        <ele>1172.47</ele>
        <time>2025-06-15T09:33:53Z</time>
      </trkpt>
      <trkpt lat="44.77971" lon="3.94119">
        <ele>1171.5</ele>
        <time>2025-06-15T09:34:09Z</time>
      </trkpt>
      <trkpt lat="44.77972" lon="3.94119">
        <ele>1171.02</ele>
        <time>2025-06-15T09:34:10Z</time>
      </trkpt>
      <trkpt lat="44.77978" lon="3.9412">
        <ele>1170.54</ele>
        <time>2025-06-15T09:34:14Z</time>
      </trkpt>
      <trkpt lat="44.7798" lon="3.94119">
        <ele>1170.54</ele>
        <time>2025-06-15T09:34:15Z</time>
      </trkpt>
      <trkpt lat="44.77982" lon="3.94119">
        <ele>1170.54</ele>
        <time>2025-06-15T09:34:16Z</time>
      </trkpt>
      <trkpt lat="44.7801" lon="3.94118">
        <ele>1168.14</ele>
        <time>2025-06-15T09:34:33Z</time>
      </trkpt>
      <trkpt lat="44.78033" lon="3.9413">
        <ele>1166.22</ele>
        <time>2025-06-15T09:34:49Z</time>
      </trkpt>
      <trkpt lat="44.78061" lon="3.94141">
        <ele>1165.26</ele>
        <time>2025-06-15T09:35:08Z</time>
      </trkpt>
      <trkpt lat="44.78084" lon="3.94138">
        <ele>1158.05</ele>
        <time>2025-06-15T09:35:28Z</time>
      </trkpt>
      <trkpt lat="44.78105" lon="3.9414">
        <ele>1156.6</ele>
        <time>2025-06-15T09:35:43Z</time>
      </trkpt>
      <trkpt lat="44.78119" lon="3.94142">
        <ele>1157.08</ele>
        <time>2025-06-15T09:35:55Z</time>
      </trkpt>
      <trkpt lat="44.78138" lon="3.94151">
        <ele>1154.68</ele>
        <time>2025-06-15T09:36:05Z</time>
      </trkpt>
      <trkpt lat="44.78139" lon="3.94153">
        <ele>1154.2</ele>
        <time>2025-06-15T09:36:06Z</time>
      </trkpt>
      <trkpt lat="44.78148" lon="3.94189">
        <ele>1151.32</ele>
        <time>2025-06-15T09:36:22Z</time>
      </trkpt>
      <trkpt lat="44.78149" lon="3.94193">
        <ele>1150.84</ele>
        <time>2025-06-15T09:36:25Z</time>
      </trkpt>
      <trkpt lat="44.78164" lon="3.94195">
        <ele>1146.51</ele>
        <time>2025-06-15T09:36:42Z</time>
      </trkpt>
      <trkpt lat="44.78178" lon="3.94191">
        <ele>1144.59</ele>
        <time>2025-06-15T09:36:53Z</time>
      </trkpt>
      <trkpt lat="44.78192" lon="3.94188">
        <ele>1141.7</ele>
        <time>2025-06-15T09:37:07Z</time>
      </trkpt>
      <trkpt lat="44.78209" lon="3.94177">
        <ele>1137.86</ele>
        <time>2025-06-15T09:37:22Z</time>
      </trkpt>
      <trkpt lat="44.78226" lon="3.94163">
        <ele>1134.01</ele>
        <time>2025-06-15T09:37:40Z</time>
      </trkpt>
      <trkpt lat="44.78239" lon="3.94144">
        <ele>1134.01</ele>
        <time>2025-06-15T09:37:55Z</time>
      </trkpt>
      <trkpt lat="44.78255" lon="3.94122">
        <ele>1135.94</ele>
        <time>2025-06-15T09:38:13Z</time>
      </trkpt>
      <trkpt lat="44.78279" lon="3.94123">
        <ele>1131.13</ele>
        <time>2025-06-15T09:38:31Z</time>
      </trkpt>
      <trkpt lat="44.7828" lon="3.94124">
        <ele>1130.65</ele>
        <time>2025-06-15T09:38:32Z</time>
      </trkpt>
      <trkpt lat="44.78281" lon="3.94125">
        <ele>1129.69</ele>
        <time>2025-06-15T09:38:33Z</time>
      </trkpt>
      <trkpt lat="44.78282" lon="3.94148">
        <ele>1121.03</ele>
        <time>2025-06-15T09:38:48Z</time>
      </trkpt>
      <trkpt lat="44.78271" lon="3.94174">
        <ele>1120.07</ele>
        <time>2025-06-15T09:39:03Z</time>
      </trkpt>
      <trkpt lat="44.78263" lon="3.94203">
        <ele>1120.07</ele>
        <time>2025-06-15T09:39:16Z</time>
      </trkpt>
      <trkpt lat="44.78245" lon="3.94242">
        <ele>1118.63</ele>
        <time>2025-06-15T09:39:33Z</time>
      </trkpt>
      <trkpt lat="44.78236" lon="3.94267">
        <ele>1120.55</ele>
        <time>2025-06-15T09:39:50Z</time>
      </trkpt>
      <trkpt lat="44.78229" lon="3.94252">
        <ele>1120.55</ele>
        <time>2025-06-15T09:40:10Z</time>
      </trkpt>
      <trkpt lat="44.78229" lon="3.94267">
        <ele>1122</ele>
        <time>2025-06-15T09:40:21Z</time>
      </trkpt>
      <trkpt lat="44.78224" lon="3.94284">
        <ele>1121.03</ele>
        <time>2025-06-15T09:40:31Z</time>
      </trkpt>
      <trkpt lat="44.78215" lon="3.94308">
        <ele>1127.28</ele>
        <time>2025-06-15T09:40:44Z</time>
      </trkpt>
      <trkpt lat="44.78198" lon="3.94332">
        <ele>1124.4</ele>
        <time>2025-06-15T09:41:00Z</time>
      </trkpt>
      <trkpt lat="44.78195" lon="3.94338">
        <ele>1122.96</ele>
        <time>2025-06-15T09:41:03Z</time>
      </trkpt>
      <trkpt lat="44.78183" lon="3.94362">
        <ele>1121.03</ele>
        <time>2025-06-15T09:41:17Z</time>
      </trkpt>
      <trkpt lat="44.78178" lon="3.94374">
        <ele>1118.63</ele>
        <time>2025-06-15T09:41:25Z</time>
      </trkpt>
      <trkpt lat="44.78177" lon="3.94404">
        <ele>1113.82</ele>
        <time>2025-06-15T09:41:43Z</time>
      </trkpt>
      <trkpt lat="44.78176" lon="3.94405">
        <ele>1113.34</ele>
        <time>2025-06-15T09:41:44Z</time>
      </trkpt>
      <trkpt lat="44.78166" lon="3.94436">
        <ele>1109.5</ele>
        <time>2025-06-15T09:42:00Z</time>
      </trkpt>
      <trkpt lat="44.78169" lon="3.94453">
        <ele>1108.06</ele>
        <time>2025-06-15T09:42:09Z</time>
      </trkpt>
      <trkpt lat="44.78177" lon="3.94469">
        <ele>1106.61</ele>
        <time>2025-06-15T09:42:20Z</time>
      </trkpt>
      <trkpt lat="44.78193" lon="3.94477">
        <ele>1103.73</ele>
        <time>2025-06-15T09:42:37Z</time>
      </trkpt>
      <trkpt lat="44.78196" lon="3.94477">
        <ele>1104.21</ele>
        <time>2025-06-15T09:42:55Z</time>
      </trkpt>
      <trkpt lat="44.78197" lon="3.94481">
        <ele>1106.61</ele>
        <time>2025-06-15T09:43:20Z</time>
      </trkpt>
      <trkpt lat="44.78202" lon="3.94485">
        <ele>1111.42</ele>
        <time>2025-06-15T09:43:40Z</time>
      </trkpt>
      <trkpt lat="44.78202" lon="3.94496">
        <ele>1114.31</ele>
        <time>2025-06-15T09:43:54Z</time>
      </trkpt>
      <trkpt lat="44.78186" lon="3.94508">
        <ele>1117.67</ele>
        <time>2025-06-15T09:44:07Z</time>
      </trkpt>
      <trkpt lat="44.78173" lon="3.94521">
        <ele>1120.55</ele>
        <time>2025-06-15T09:44:21Z</time>
      </trkpt>
      <trkpt lat="44.78176" lon="3.94526">
        <ele>1120.55</ele>
        <time>2025-06-15T09:44:27Z</time>
      </trkpt>
      <trkpt lat="44.7818" lon="3.94539">
        <ele>1123.44</ele>
        <time>2025-06-15T09:44:41Z</time>
      </trkpt>
      <trkpt lat="44.78168" lon="3.94565">
        <ele>1124.88</ele>
        <time>2025-06-15T09:45:02Z</time>
      </trkpt>
      <trkpt lat="44.78148" lon="3.94577">
        <ele>1126.32</ele>
        <time>2025-06-15T09:45:18Z</time>
      </trkpt>
      <trkpt lat="44.78132" lon="3.94583">
        <ele>1128.24</ele>
        <time>2025-06-15T09:45:32Z</time>
      </trkpt>
      <trkpt lat="44.78108" lon="3.9459">
        <ele>1131.61</ele>
        <time>2025-06-15T09:45:49Z</time>
      </trkpt>
      <trkpt lat="44.7809" lon="3.94597">
        <ele>1134.49</ele>
        <time>2025-06-15T09:46:06Z</time>
      </trkpt>
      <trkpt lat="44.78065" lon="3.94609">
        <ele>1144.59</ele>
        <time>2025-06-15T09:46:25Z</time>
      </trkpt>
      <trkpt lat="44.78074" lon="3.94616">
        <ele>1153.24</ele>
        <time>2025-06-15T09:46:40Z</time>
      </trkpt>
      <trkpt lat="44.78076" lon="3.94615">
        <ele>1153.72</ele>
        <time>2025-06-15T09:46:42Z</time>
      </trkpt>
      <trkpt lat="44.78094" lon="3.94615">
        <ele>1158.05</ele>
        <time>2025-06-15T09:46:57Z</time>
      </trkpt>
      <trkpt lat="44.78111" lon="3.94625">
        <ele>1161.89</ele>
        <time>2025-06-15T09:47:15Z</time>
      </trkpt>
      <trkpt lat="44.78124" lon="3.94626">
        <ele>1162.37</ele>
        <time>2025-06-15T09:47:28Z</time>
      </trkpt>
      <trkpt lat="44.78137" lon="3.94627">
        <ele>1162.37</ele>
        <time>2025-06-15T09:47:37Z</time>
      </trkpt>
      <trkpt lat="44.78152" lon="3.94663">
        <ele>1164.77</ele>
        <time>2025-06-15T09:47:54Z</time>
      </trkpt>
      <trkpt lat="44.78167" lon="3.9472">
        <ele>1170.06</ele>
        <time>2025-06-15T09:48:08Z</time>
      </trkpt>
      <trkpt lat="44.78179" lon="3.94772">
        <ele>1173.91</ele>
        <time>2025-06-15T09:48:23Z</time>
      </trkpt>
      <trkpt lat="44.78182" lon="3.94809">
        <ele>1177.75</ele>
        <time>2025-06-15T09:48:35Z</time>
      </trkpt>
      <trkpt lat="44.78186" lon="3.94844">
        <ele>1181.6</ele>
        <time>2025-06-15T09:48:47Z</time>
      </trkpt>
      <trkpt lat="44.78185" lon="3.9486">
        <ele>1181.6</ele>
        <time>2025-06-15T09:48:57Z</time>
      </trkpt>
      <trkpt lat="44.78183" lon="3.94887">
        <ele>1182.08</ele>
        <time>2025-06-15T09:49:12Z</time>
      </trkpt>
      <trkpt lat="44.78182" lon="3.94899">
        <ele>1181.12</ele>
        <time>2025-06-15T09:49:20Z</time>
      </trkpt>
      <trkpt lat="44.78183" lon="3.94901">
        <ele>1181.12</ele>
        <time>2025-06-15T09:49:21Z</time>
      </trkpt>
      <trkpt lat="44.7819" lon="3.94928">
        <ele>1180.64</ele>
        <time>2025-06-15T09:49:37Z</time>
      </trkpt>
      <trkpt lat="44.78199" lon="3.94941">
        <ele>1181.12</ele>
        <time>2025-06-15T09:49:47Z</time>
      </trkpt>
      <trkpt lat="44.78198" lon="3.94943">
        <ele>1180.64</ele>
        <time>2025-06-15T09:49:48Z</time>
      </trkpt>
      <trkpt lat="44.78196" lon="3.94945">
        <ele>1180.16</ele>
        <time>2025-06-15T09:49:49Z</time>
      </trkpt>
      <trkpt lat="44.78196" lon="3.94946">
        <ele>1180.16</ele>
        <time>2025-06-15T09:49:50Z</time>
      </trkpt>
      <trkpt lat="44.78195" lon="3.94948">
        <ele>1179.67</ele>
        <time>2025-06-15T09:49:51Z</time>
      </trkpt>
      <trkpt lat="44.78194" lon="3.94949">
        <ele>1179.19</ele>
        <time>2025-06-15T09:49:52Z</time>
      </trkpt>
      <trkpt lat="44.78194" lon="3.94952">
        <ele>1178.71</ele>
        <time>2025-06-15T09:50:06Z</time>
      </trkpt>
      <trkpt lat="44.782" lon="3.94948">
        <ele>1179.67</ele>
        <time>2025-06-15T09:50:26Z</time>
      </trkpt>
      <trkpt lat="44.78201" lon="3.9495">
        <ele>1180.16</ele>
        <time>2025-06-15T09:50:29Z</time>
      </trkpt>
      <trkpt lat="44.78203" lon="3.94961">
        <ele>1179.19</ele>
        <time>2025-06-15T09:50:36Z</time>
      </trkpt>
      <trkpt lat="44.78203" lon="3.94963">
        <ele>1178.71</ele>
        <time>2025-06-15T09:50:37Z</time>
      </trkpt>
      <trkpt lat="44.78203" lon="3.94965">
        <ele>1178.71</ele>
        <time>2025-06-15T09:50:38Z</time>
      </trkpt>
      <trkpt lat="44.78208" lon="3.94976">
        <ele>1177.27</ele>
        <time>2025-06-15T09:50:45Z</time>
      </trkpt>
      <trkpt lat="44.78209" lon="3.94978">
        <ele>1176.79</ele>
        <time>2025-06-15T09:50:46Z</time>
      </trkpt>
      <trkpt lat="44.7821" lon="3.94979">
        <ele>1176.79</ele>
        <time>2025-06-15T09:50:47Z</time>
      </trkpt>
      <trkpt lat="44.78217" lon="3.94992">
        <ele>1176.79</ele>
        <time>2025-06-15T09:51:00Z</time>
      </trkpt>
      <trkpt lat="44.78219" lon="3.94995">
        <ele>1176.31</ele>
        <time>2025-06-15T09:51:03Z</time>
      </trkpt>
      <trkpt lat="44.78221" lon="3.95001">
        <ele>1176.31</ele>
        <time>2025-06-15T09:51:08Z</time>
      </trkpt>
      <trkpt lat="44.78224" lon="3.95005">
        <ele>1176.31</ele>
        <time>2025-06-15T09:51:11Z</time>
      </trkpt>
      <trkpt lat="44.78225" lon="3.95007">
        <ele>1176.31</ele>
        <time>2025-06-15T09:51:12Z</time>
      </trkpt>
      <trkpt lat="44.78235" lon="3.95039">
        <ele>1175.83</ele>
        <time>2025-06-15T09:51:31Z</time>
      </trkpt>
      <trkpt lat="44.78256" lon="3.95057">
        <ele>1175.83</ele>
        <time>2025-06-15T09:51:48Z</time>
      </trkpt>
      <trkpt lat="44.78283" lon="3.95085">
        <ele>1175.35</ele>
        <time>2025-06-15T09:52:06Z</time>
      </trkpt>
      <trkpt lat="44.78305" lon="3.95102">
        <ele>1174.87</ele>
        <time>2025-06-15T09:52:18Z</time>
      </trkpt>
      <trkpt lat="44.78337" lon="3.95102">
        <ele>1175.83</ele>
        <time>2025-06-15T09:52:29Z</time>
      </trkpt>
      <trkpt lat="44.78378" lon="3.95096">
        <ele>1176.31</ele>
        <time>2025-06-15T09:52:42Z</time>
      </trkpt>
      <trkpt lat="44.78382" lon="3.95096">
        <ele>1176.31</ele>
        <time>2025-06-15T09:52:43Z</time>
      </trkpt>
      <trkpt lat="44.78435" lon="3.95094">
        <ele>1177.75</ele>
        <time>2025-06-15T09:52:56Z</time>
      </trkpt>
      <trkpt lat="44.78465" lon="3.95073">
        <ele>1177.27</ele>
        <time>2025-06-15T09:53:05Z</time>
      </trkpt>
      <trkpt lat="44.78469" lon="3.95069">
        <ele>1177.27</ele>
        <time>2025-06-15T09:53:06Z</time>
      </trkpt>
      <trkpt lat="44.78521" lon="3.95026">
        <ele>1176.31</ele>
        <time>2025-06-15T09:53:20Z</time>
      </trkpt>
      <trkpt lat="44.78525" lon="3.95024">
        <ele>1176.31</ele>
        <time>2025-06-15T09:53:21Z</time>
      </trkpt>
      <trkpt lat="44.78583" lon="3.95001">
        <ele>1176.31</ele>
        <time>2025-06-15T09:53:35Z</time>
      </trkpt>
      <trkpt lat="44.78619" lon="3.94992">
        <ele>1177.75</ele>
        <time>2025-06-15T09:53:43Z</time>
      </trkpt>
      <trkpt lat="44.78668" lon="3.94988">
        <ele>1181.12</ele>
        <time>2025-06-15T09:53:54Z</time>
      </trkpt>
      <trkpt lat="44.78681" lon="3.94986">
        <ele>1182.08</ele>
        <time>2025-06-15T09:53:57Z</time>
      </trkpt>
      <trkpt lat="44.78755" lon="3.94988">
        <ele>1186.4</ele>
        <time>2025-06-15T09:54:13Z</time>
      </trkpt>
      <trkpt lat="44.78803" lon="3.94991">
        <ele>1188.81</ele>
        <time>2025-06-15T09:54:23Z</time>
      </trkpt>
      <trkpt lat="44.78807" lon="3.94994">
        <ele>1189.29</ele>
        <time>2025-06-15T09:54:24Z</time>
      </trkpt>
      <trkpt lat="44.78811" lon="3.94997">
        <ele>1189.29</ele>
        <time>2025-06-15T09:54:25Z</time>
      </trkpt>
      <trkpt lat="44.78814" lon="3.95001">
        <ele>1189.29</ele>
        <time>2025-06-15T09:54:26Z</time>
      </trkpt>
      <trkpt lat="44.78817" lon="3.95006">
        <ele>1189.29</ele>
        <time>2025-06-15T09:54:27Z</time>
      </trkpt>
      <trkpt lat="44.78821" lon="3.95011">
        <ele>1189.29</ele>
        <time>2025-06-15T09:54:28Z</time>
      </trkpt>
      <trkpt lat="44.78824" lon="3.95017">
        <ele>1189.29</ele>
        <time>2025-06-15T09:54:29Z</time>
      </trkpt>
      <trkpt lat="44.78859" lon="3.95095">
        <ele>1190.25</ele>
        <time>2025-06-15T09:54:43Z</time>
      </trkpt>
      <trkpt lat="44.78864" lon="3.95105">
        <ele>1190.25</ele>
        <time>2025-06-15T09:54:48Z</time>
      </trkpt>
      <trkpt lat="44.78865" lon="3.95106">
        <ele>1190.25</ele>
        <time>2025-06-15T09:54:49Z</time>
      </trkpt>
      <trkpt lat="44.78867" lon="3.95106">
        <ele>1190.25</ele>
        <time>2025-06-15T09:54:50Z</time>
      </trkpt>
      <trkpt lat="44.78868" lon="3.95106">
        <ele>1190.25</ele>
        <time>2025-06-15T09:54:51Z</time>
      </trkpt>
      <trkpt lat="44.7887" lon="3.95106">
        <ele>1190.25</ele>
        <time>2025-06-15T09:54:52Z</time>
      </trkpt>
      <trkpt lat="44.78871" lon="3.95105">
        <ele>1190.25</ele>
        <time>2025-06-15T09:54:53Z</time>
      </trkpt>
      <trkpt lat="44.78873" lon="3.95104">
        <ele>1190.25</ele>
        <time>2025-06-15T09:54:54Z</time>
      </trkpt>
      <trkpt lat="44.78874" lon="3.95103">
        <ele>1190.25</ele>
        <time>2025-06-15T09:54:55Z</time>
      </trkpt>
      <trkpt lat="44.78894" lon="3.95087">
        <ele>1188.33</ele>
        <time>2025-06-15T09:55:09Z</time>
      </trkpt>
      <trkpt lat="44.78914" lon="3.95064">
        <ele>1185.92</ele>
        <time>2025-06-15T09:55:27Z</time>
      </trkpt>
      <trkpt lat="44.78947" lon="3.95028">
        <ele>1184</ele>
        <time>2025-06-15T09:55:53Z</time>
      </trkpt>
      <trkpt lat="44.78973" lon="3.94993">
        <ele>1181.12</ele>
        <time>2025-06-15T09:56:18Z</time>
      </trkpt>
      <trkpt lat="44.78993" lon="3.94972">
        <ele>1176.79</ele>
        <time>2025-06-15T09:56:37Z</time>
      </trkpt>
      <trkpt lat="44.7901" lon="3.94948">
        <ele>1173.43</ele>
        <time>2025-06-15T09:56:55Z</time>
      </trkpt>
      <trkpt lat="44.79033" lon="3.94925">
        <ele>1171.02</ele>
        <time>2025-06-15T09:57:16Z</time>
      </trkpt>
      <trkpt lat="44.79058" lon="3.94899">
        <ele>1169.1</ele>
        <time>2025-06-15T09:57:38Z</time>
      </trkpt>
      <trkpt lat="44.79091" lon="3.94885">
        <ele>1168.62</ele>
        <time>2025-06-15T09:57:54Z</time>
      </trkpt>
      <trkpt lat="44.79096" lon="3.94891">
        <ele>1168.14</ele>
        <time>2025-06-15T09:57:59Z</time>
      </trkpt>
      <trkpt lat="44.79097" lon="3.94892">
        <ele>1168.14</ele>
        <time>2025-06-15T09:58:00Z</time>
      </trkpt>
      <trkpt lat="44.79098" lon="3.94894">
        <ele>1168.14</ele>
        <time>2025-06-15T09:58:01Z</time>
      </trkpt>
      <trkpt lat="44.79099" lon="3.94895">
        <ele>1168.14</ele>
        <time>2025-06-15T09:58:02Z</time>
      </trkpt>
      <trkpt lat="44.791" lon="3.94897">
        <ele>1168.14</ele>
        <time>2025-06-15T09:58:03Z</time>
      </trkpt>
      <trkpt lat="44.79101" lon="3.94898">
        <ele>1167.66</ele>
        <time>2025-06-15T09:58:04Z</time>
      </trkpt>
      <trkpt lat="44.79103" lon="3.94899">
        <ele>1167.66</ele>
        <time>2025-06-15T09:58:05Z</time>
      </trkpt>
      <trkpt lat="44.79104" lon="3.949">
        <ele>1167.66</ele>
        <time>2025-06-15T09:58:06Z</time>
      </trkpt>
      <trkpt lat="44.79105" lon="3.94901">
        <ele>1167.18</ele>
        <time>2025-06-15T09:58:07Z</time>
      </trkpt>
      <trkpt lat="44.79128" lon="3.94928">
        <ele>1165.26</ele>
        <time>2025-06-15T09:58:27Z</time>
      </trkpt>
      <trkpt lat="44.79154" lon="3.94959">
        <ele>1164.29</ele>
        <time>2025-06-15T09:58:48Z</time>
      </trkpt>
      <trkpt lat="44.7918" lon="3.94987">
        <ele>1158.05</ele>
        <time>2025-06-15T09:59:09Z</time>
      </trkpt>
      <trkpt lat="44.79188" lon="3.95019">
        <ele>1154.68</ele>
        <time>2025-06-15T09:59:26Z</time>
      </trkpt>
      <trkpt lat="44.79192" lon="3.95053">
        <ele>1153.24</ele>
        <time>2025-06-15T09:59:42Z</time>
      </trkpt>
      <trkpt lat="44.79206" lon="3.95088">
        <ele>1149.39</ele>
        <time>2025-06-15T10:00:01Z</time>
      </trkpt>
      <trkpt lat="44.79217" lon="3.95128">
        <ele>1145.55</ele>
        <time>2025-06-15T10:00:22Z</time>
      </trkpt>
      <trkpt lat="44.79224" lon="3.95156">
        <ele>1143.63</ele>
        <time>2025-06-15T10:00:38Z</time>
      </trkpt>
      <trkpt lat="44.79236" lon="3.95191">
        <ele>1141.22</ele>
        <time>2025-06-15T10:00:57Z</time>
      </trkpt>
      <trkpt lat="44.79253" lon="3.95223">
        <ele>1142.66</ele>
        <time>2025-06-15T10:01:14Z</time>
      </trkpt>
      <trkpt lat="44.79275" lon="3.95242">
        <ele>1146.03</ele>
        <time>2025-06-15T10:01:30Z</time>
      </trkpt>
      <trkpt lat="44.79285" lon="3.95269">
        <ele>1149.87</ele>
        <time>2025-06-15T10:01:44Z</time>
      </trkpt>
      <trkpt lat="44.79284" lon="3.95292">
        <ele>1152.28</ele>
        <time>2025-06-15T10:01:57Z</time>
      </trkpt>
      <trkpt lat="44.79283" lon="3.95294">
        <ele>1152.76</ele>
        <time>2025-06-15T10:01:58Z</time>
      </trkpt>
      <trkpt lat="44.79262" lon="3.95321">
        <ele>1153.24</ele>
        <time>2025-06-15T10:02:15Z</time>
      </trkpt>
      <trkpt lat="44.79258" lon="3.9535">
        <ele>1153.72</ele>
        <time>2025-06-15T10:02:32Z</time>
      </trkpt>
      <trkpt lat="44.79264" lon="3.95382">
        <ele>1155.16</ele>
        <time>2025-06-15T10:02:47Z</time>
      </trkpt>
      <trkpt lat="44.79267" lon="3.95417">
        <ele>1157.56</ele>
        <time>2025-06-15T10:03:03Z</time>
      </trkpt>
      <trkpt lat="44.79284" lon="3.95442">
        <ele>1160.93</ele>
        <time>2025-06-15T10:03:21Z</time>
      </trkpt>
      <trkpt lat="44.793" lon="3.95454">
        <ele>1163.33</ele>
        <time>2025-06-15T10:03:35Z</time>
      </trkpt>
      <trkpt lat="44.7931" lon="3.95468">
        <ele>1165.74</ele>
        <time>2025-06-15T10:03:50Z</time>
      </trkpt>
      <trkpt lat="44.7931" lon="3.95469">
        <ele>1165.74</ele>
        <time>2025-06-15T10:03:51Z</time>
      </trkpt>
      <trkpt lat="44.79308" lon="3.95472">
        <ele>1165.74</ele>
        <time>2025-06-15T10:03:53Z</time>
      </trkpt>
      <trkpt lat="44.79306" lon="3.95473">
        <ele>1165.74</ele>
        <time>2025-06-15T10:03:54Z</time>
      </trkpt>
      <trkpt lat="44.79288" lon="3.95487">
        <ele>1167.18</ele>
        <time>2025-06-15T10:04:06Z</time>
      </trkpt>
      <trkpt lat="44.79275" lon="3.95503">
        <ele>1168.14</ele>
        <time>2025-06-15T10:04:18Z</time>
      </trkpt>
      <trkpt lat="44.79274" lon="3.95508">
        <ele>1168.14</ele>
        <time>2025-06-15T10:04:22Z</time>
      </trkpt>
      <trkpt lat="44.79274" lon="3.9551">
        <ele>1168.14</ele>
        <time>2025-06-15T10:04:23Z</time>
      </trkpt>
      <trkpt lat="44.79271" lon="3.95535">
        <ele>1170.06</ele>
        <time>2025-06-15T10:04:35Z</time>
      </trkpt>
      <trkpt lat="44.79265" lon="3.95564">
        <ele>1171.98</ele>
        <time>2025-06-15T10:04:50Z</time>
      </trkpt>
      <trkpt lat="44.79254" lon="3.95598">
        <ele>1174.87</ele>
        <time>2025-06-15T10:05:07Z</time>
      </trkpt>
      <trkpt lat="44.79246" lon="3.95616">
        <ele>1175.83</ele>
        <time>2025-06-15T10:05:19Z</time>
      </trkpt>
      <trkpt lat="44.79246" lon="3.95618">
        <ele>1175.83</ele>
        <time>2025-06-15T10:05:20Z</time>
      </trkpt>
      <trkpt lat="44.79246" lon="3.95619">
        <ele>1175.83</ele>
        <time>2025-06-15T10:05:21Z</time>
      </trkpt>
      <trkpt lat="44.79246" lon="3.95621">
        <ele>1175.83</ele>
        <time>2025-06-15T10:05:22Z</time>
      </trkpt>
      <trkpt lat="44.79247" lon="3.95623">
        <ele>1175.83</ele>
        <time>2025-06-15T10:05:23Z</time>
      </trkpt>
      <trkpt lat="44.79247" lon="3.95624">
        <ele>1175.83</ele>
        <time>2025-06-15T10:05:24Z</time>
      </trkpt>
      <trkpt lat="44.79247" lon="3.95626">
        <ele>1175.83</ele>
        <time>2025-06-15T10:05:25Z</time>
      </trkpt>
      <trkpt lat="44.79247" lon="3.95659">
        <ele>1176.79</ele>
        <time>2025-06-15T10:05:41Z</time>
      </trkpt>
      <trkpt lat="44.79254" lon="3.95684">
        <ele>1180.16</ele>
        <time>2025-06-15T10:05:58Z</time>
      </trkpt>
      <trkpt lat="44.79259" lon="3.95696">
        <ele>1181.12</ele>
        <time>2025-06-15T10:06:06Z</time>
      </trkpt>
      <trkpt lat="44.7926" lon="3.95697">
        <ele>1181.6</ele>
        <time>2025-06-15T10:06:07Z</time>
      </trkpt>
      <trkpt lat="44.79272" lon="3.95701">
        <ele>1185.44</ele>
        <time>2025-06-15T10:06:20Z</time>
      </trkpt>
      <trkpt lat="44.79274" lon="3.95699">
        <ele>1185.92</ele>
        <time>2025-06-15T10:06:23Z</time>
      </trkpt>
      <trkpt lat="44.7928" lon="3.95695">
        <ele>1187.37</ele>
        <time>2025-06-15T10:06:27Z</time>
      </trkpt>
      <trkpt lat="44.79282" lon="3.95694">
        <ele>1187.85</ele>
        <time>2025-06-15T10:06:28Z</time>
      </trkpt>
      <trkpt lat="44.79298" lon="3.95687">
        <ele>1188.81</ele>
        <time>2025-06-15T10:06:39Z</time>
      </trkpt>
      <trkpt lat="44.79323" lon="3.95669">
        <ele>1186.4</ele>
        <time>2025-06-15T10:07:00Z</time>
      </trkpt>
      <trkpt lat="44.79351" lon="3.95659">
        <ele>1186.88</ele>
        <time>2025-06-15T10:07:20Z</time>
      </trkpt>
      <trkpt lat="44.79358" lon="3.95681">
        <ele>1188.81</ele>
        <time>2025-06-15T10:07:34Z</time>
      </trkpt>
      <trkpt lat="44.79358" lon="3.95711">
        <ele>1190.25</ele>
        <time>2025-06-15T10:07:50Z</time>
      </trkpt>
      <trkpt lat="44.79358" lon="3.95738">
        <ele>1192.65</ele>
        <time>2025-06-15T10:08:02Z</time>
      </trkpt>
      <trkpt lat="44.7936" lon="3.95771">
        <ele>1194.58</ele>
        <time>2025-06-15T10:08:17Z</time>
      </trkpt>
      <trkpt lat="44.7936" lon="3.95803">
        <ele>1196.98</ele>
        <time>2025-06-15T10:08:34Z</time>
      </trkpt>
      <trkpt lat="44.79361" lon="3.9584">
        <ele>1198.42</ele>
        <time>2025-06-15T10:08:52Z</time>
      </trkpt>
      <trkpt lat="44.79361" lon="3.95871">
        <ele>1198.9</ele>
        <time>2025-06-15T10:09:09Z</time>
      </trkpt>
      <trkpt lat="44.7936" lon="3.95905">
        <ele>1199.86</ele>
        <time>2025-06-15T10:09:26Z</time>
      </trkpt>
      <trkpt lat="44.7936" lon="3.95934">
        <ele>1200.82</ele>
        <time>2025-06-15T10:09:42Z</time>
      </trkpt>
      <trkpt lat="44.7936" lon="3.95963">
        <ele>1201.79</ele>
        <time>2025-06-15T10:09:58Z</time>
      </trkpt>
      <trkpt lat="44.79359" lon="3.95994">
        <ele>1203.23</ele>
        <time>2025-06-15T10:10:12Z</time>
      </trkpt>
      <trkpt lat="44.79356" lon="3.96026">
        <ele>1204.19</ele>
        <time>2025-06-15T10:10:30Z</time>
      </trkpt>
      <trkpt lat="44.79351" lon="3.9606">
        <ele>1205.15</ele>
        <time>2025-06-15T10:10:49Z</time>
      </trkpt>
      <trkpt lat="44.79345" lon="3.9609">
        <ele>1206.11</ele>
        <time>2025-06-15T10:11:06Z</time>
      </trkpt>
      <trkpt lat="44.79336" lon="3.96116">
        <ele>1206.11</ele>
        <time>2025-06-15T10:11:23Z</time>
      </trkpt>
      <trkpt lat="44.79336" lon="3.96118">
        <ele>1206.11</ele>
        <time>2025-06-15T10:11:24Z</time>
      </trkpt>
      <trkpt lat="44.79338" lon="3.96142">
        <ele>1204.19</ele>
        <time>2025-06-15T10:11:38Z</time>
      </trkpt>
      <trkpt lat="44.79337" lon="3.96167">
        <ele>1201.3</ele>
        <time>2025-06-15T10:11:53Z</time>
      </trkpt>
      <trkpt lat="44.79333" lon="3.96198">
        <ele>1199.86</ele>
        <time>2025-06-15T10:12:09Z</time>
      </trkpt>
      <trkpt lat="44.79331" lon="3.96227">
        <ele>1198.9</ele>
        <time>2025-06-15T10:12:26Z</time>
      </trkpt>
      <trkpt lat="44.79329" lon="3.96259">
        <ele>1198.9</ele>
        <time>2025-06-15T10:12:42Z</time>
      </trkpt>
      <trkpt lat="44.79327" lon="3.9629">
        <ele>1197.94</ele>
        <time>2025-06-15T10:12:59Z</time>
      </trkpt>
      <trkpt lat="44.79326" lon="3.96313">
        <ele>1197.94</ele>
        <time>2025-06-15T10:13:13Z</time>
      </trkpt>
      <trkpt lat="44.79327" lon="3.96315">
        <ele>1197.94</ele>
        <time>2025-06-15T10:13:14Z</time>
      </trkpt>
      <trkpt lat="44.7933" lon="3.96317">
        <ele>1198.42</ele>
        <time>2025-06-15T10:13:17Z</time>
      </trkpt>
      <trkpt lat="44.79331" lon="3.96317">
        <ele>1198.9</ele>
        <time>2025-06-15T10:13:18Z</time>
      </trkpt>
      <trkpt lat="44.79333" lon="3.96316">
        <ele>1198.9</ele>
        <time>2025-06-15T10:13:19Z</time>
      </trkpt>
      <trkpt lat="44.79334" lon="3.96315">
        <ele>1198.9</ele>
        <time>2025-06-15T10:13:20Z</time>
      </trkpt>
      <trkpt lat="44.79335" lon="3.96314">
        <ele>1198.9</ele>
        <time>2025-06-15T10:13:21Z</time>
      </trkpt>
      <trkpt lat="44.79336" lon="3.96313">
        <ele>1198.42</ele>
        <time>2025-06-15T10:13:22Z</time>
      </trkpt>
      <trkpt lat="44.79337" lon="3.96312">
        <ele>1198.42</ele>
        <time>2025-06-15T10:13:23Z</time>
      </trkpt>
      <trkpt lat="44.79338" lon="3.96312">
        <ele>1198.42</ele>
        <time>2025-06-15T10:13:24Z</time>
      </trkpt>
      <trkpt lat="44.79357" lon="3.96286">
        <ele>1195.54</ele>
        <time>2025-06-15T10:13:45Z</time>
      </trkpt>
      <trkpt lat="44.79376" lon="3.96259">
        <ele>1194.58</ele>
        <time>2025-06-15T10:14:02Z</time>
      </trkpt>
      <trkpt lat="44.79396" lon="3.96237">
        <ele>1194.09</ele>
        <time>2025-06-15T10:14:19Z</time>
      </trkpt>
      <trkpt lat="44.79412" lon="3.96219">
        <ele>1193.61</ele>
        <time>2025-06-15T10:14:36Z</time>
      </trkpt>
      <trkpt lat="44.79432" lon="3.96205">
        <ele>1193.13</ele>
        <time>2025-06-15T10:14:54Z</time>
      </trkpt>
      <trkpt lat="44.79462" lon="3.96203">
        <ele>1194.09</ele>
        <time>2025-06-15T10:15:14Z</time>
      </trkpt>
      <trkpt lat="44.79489" lon="3.96207">
        <ele>1194.09</ele>
        <time>2025-06-15T10:15:32Z</time>
      </trkpt>
      <trkpt lat="44.79517" lon="3.96204">
        <ele>1192.65</ele>
        <time>2025-06-15T10:15:51Z</time>
      </trkpt>
      <trkpt lat="44.79543" lon="3.96197">
        <ele>1192.65</ele>
        <time>2025-06-15T10:16:10Z</time>
      </trkpt>
      <trkpt lat="44.79548" lon="3.96194">
        <ele>1193.13</ele>
        <time>2025-06-15T10:16:14Z</time>
      </trkpt>
      <trkpt lat="44.79568" lon="3.96173">
        <ele>1195.06</ele>
        <time>2025-06-15T10:16:33Z</time>
      </trkpt>
      <trkpt lat="44.7957" lon="3.96171">
        <ele>1195.54</ele>
        <time>2025-06-15T10:16:35Z</time>
      </trkpt>
      <trkpt lat="44.79587" lon="3.96158">
        <ele>1194.09</ele>
        <time>2025-06-15T10:16:52Z</time>
      </trkpt>
      <trkpt lat="44.79608" lon="3.96134">
        <ele>1194.58</ele>
        <time>2025-06-15T10:17:10Z</time>
      </trkpt>
      <trkpt lat="44.79628" lon="3.96117">
        <ele>1192.17</ele>
        <time>2025-06-15T10:17:26Z</time>
      </trkpt>
      <trkpt lat="44.79654" lon="3.96107">
        <ele>1189.29</ele>
        <time>2025-06-15T10:17:45Z</time>
      </trkpt>
      <trkpt lat="44.79675" lon="3.96101">
        <ele>1186.4</ele>
        <time>2025-06-15T10:18:04Z</time>
      </trkpt>
      <trkpt lat="44.79692" lon="3.96086">
        <ele>1183.52</ele>
        <time>2025-06-15T10:18:21Z</time>
      </trkpt>
      <trkpt lat="44.79694" lon="3.96085">
        <ele>1184</ele>
        <time>2025-06-15T10:18:22Z</time>
      </trkpt>
      <trkpt lat="44.79696" lon="3.96084">
        <ele>1184</ele>
        <time>2025-06-15T10:18:23Z</time>
      </trkpt>
      <trkpt lat="44.79712" lon="3.96064">
        <ele>1184.96</ele>
        <time>2025-06-15T10:18:38Z</time>
      </trkpt>
      <trkpt lat="44.79726" lon="3.9604">
        <ele>1182.08</ele>
        <time>2025-06-15T10:18:56Z</time>
      </trkpt>
      <trkpt lat="44.79745" lon="3.96016">
        <ele>1180.64</ele>
        <time>2025-06-15T10:19:16Z</time>
      </trkpt>
      <trkpt lat="44.79758" lon="3.96009">
        <ele>1183.52</ele>
        <time>2025-06-15T10:19:23Z</time>
      </trkpt>
      <trkpt lat="44.7976" lon="3.96007">
        <ele>1184</ele>
        <time>2025-06-15T10:19:24Z</time>
      </trkpt>
      <trkpt lat="44.79761" lon="3.96007">
        <ele>1184</ele>
        <time>2025-06-15T10:19:25Z</time>
      </trkpt>
      <trkpt lat="44.79763" lon="3.96005">
        <ele>1184</ele>
        <time>2025-06-15T10:19:26Z</time>
      </trkpt>
      <trkpt lat="44.79773" lon="3.95993">
        <ele>1183.52</ele>
        <time>2025-06-15T10:19:38Z</time>
      </trkpt>
      <trkpt lat="44.798" lon="3.95977">
        <ele>1185.44</ele>
        <time>2025-06-15T10:19:56Z</time>
      </trkpt>
      <trkpt lat="44.79824" lon="3.95966">
        <ele>1186.88</ele>
        <time>2025-06-15T10:20:13Z</time>
      </trkpt>
      <trkpt lat="44.79841" lon="3.95945">
        <ele>1186.88</ele>
        <time>2025-06-15T10:20:31Z</time>
      </trkpt>
      <trkpt lat="44.79862" lon="3.9592">
        <ele>1182.08</ele>
        <time>2025-06-15T10:20:52Z</time>
      </trkpt>
      <trkpt lat="44.79885" lon="3.95897">
        <ele>1178.71</ele>
        <time>2025-06-15T10:21:12Z</time>
      </trkpt>
      <trkpt lat="44.79902" lon="3.95873">
        <ele>1176.31</ele>
        <time>2025-06-15T10:21:30Z</time>
      </trkpt>
      <trkpt lat="44.79919" lon="3.95845">
        <ele>1171.5</ele>
        <time>2025-06-15T10:21:48Z</time>
      </trkpt>
      <trkpt lat="44.79935" lon="3.95819">
        <ele>1162.85</ele>
        <time>2025-06-15T10:22:09Z</time>
      </trkpt>
      <trkpt lat="44.79937" lon="3.95808">
        <ele>1163.81</ele>
        <time>2025-06-15T10:22:14Z</time>
      </trkpt>
      <trkpt lat="44.7994" lon="3.95778">
        <ele>1168.14</ele>
        <time>2025-06-15T10:22:30Z</time>
      </trkpt>
      <trkpt lat="44.79954" lon="3.95735">
        <ele>1164.77</ele>
        <time>2025-06-15T10:22:54Z</time>
      </trkpt>
      <trkpt lat="44.79977" lon="3.95711">
        <ele>1166.7</ele>
        <time>2025-06-15T10:23:18Z</time>
      </trkpt>
      <trkpt lat="44.80014" lon="3.95694">
        <ele>1170.06</ele>
        <time>2025-06-15T10:23:43Z</time>
      </trkpt>
      <trkpt lat="44.80017" lon="3.95694">
        <ele>1172.47</ele>
        <time>2025-06-15T10:24:03Z</time>
      </trkpt>
      <trkpt lat="44.80023" lon="3.95697">
        <ele>1172.47</ele>
        <time>2025-06-15T10:24:25Z</time>
      </trkpt>
      <trkpt lat="44.80019" lon="3.95697">
        <ele>1174.87</ele>
        <time>2025-06-15T10:24:47Z</time>
      </trkpt>
      <trkpt lat="44.80019" lon="3.95705">
        <ele>1173.91</ele>
        <time>2025-06-15T10:25:04Z</time>
      </trkpt>
      <trkpt lat="44.8002" lon="3.95706">
        <ele>1172.47</ele>
        <time>2025-06-15T10:25:32Z</time>
      </trkpt>
      <trkpt lat="44.80036" lon="3.95722">
        <ele>1171.98</ele>
        <time>2025-06-15T10:25:52Z</time>
      </trkpt>
      <trkpt lat="44.80041" lon="3.95748">
        <ele>1170.06</ele>
        <time>2025-06-15T10:26:08Z</time>
      </trkpt>
      <trkpt lat="44.80045" lon="3.95775">
        <ele>1164.77</ele>
        <time>2025-06-15T10:26:26Z</time>
      </trkpt>
      <trkpt lat="44.80058" lon="3.95794">
        <ele>1165.26</ele>
        <time>2025-06-15T10:26:46Z</time>
      </trkpt>
      <trkpt lat="44.8007" lon="3.95825">
        <ele>1158.53</ele>
        <time>2025-06-15T10:27:08Z</time>
      </trkpt>
      <trkpt lat="44.80075" lon="3.95854">
        <ele>1148.43</ele>
        <time>2025-06-15T10:27:25Z</time>
      </trkpt>
      <trkpt lat="44.80079" lon="3.95874">
        <ele>1141.22</ele>
        <time>2025-06-15T10:27:40Z</time>
      </trkpt>
      <trkpt lat="44.8009" lon="3.95893">
        <ele>1138.82</ele>
        <time>2025-06-15T10:27:55Z</time>
      </trkpt>
      <trkpt lat="44.80112" lon="3.95881">
        <ele>1137.38</ele>
        <time>2025-06-15T10:28:14Z</time>
      </trkpt>
      <trkpt lat="44.80119" lon="3.95871">
        <ele>1131.13</ele>
        <time>2025-06-15T10:28:39Z</time>
      </trkpt>
      <trkpt lat="44.8014" lon="3.95874">
        <ele>1136.9</ele>
        <time>2025-06-15T10:29:03Z</time>
      </trkpt>
      <trkpt lat="44.80158" lon="3.95861">
        <ele>1134.01</ele>
        <time>2025-06-15T10:29:26Z</time>
      </trkpt>
      <trkpt lat="44.80178" lon="3.95843">
        <ele>1129.21</ele>
        <time>2025-06-15T10:29:46Z</time>
      </trkpt>
      <trkpt lat="44.80202" lon="3.95834">
        <ele>1128.73</ele>
        <time>2025-06-15T10:30:06Z</time>
      </trkpt>
      <trkpt lat="44.80218" lon="3.95828">
        <ele>1121.03</ele>
        <time>2025-06-15T10:30:26Z</time>
      </trkpt>
      <trkpt lat="44.80237" lon="3.95825">
        <ele>1109.98</ele>
        <time>2025-06-15T10:30:46Z</time>
      </trkpt>
      <trkpt lat="44.80263" lon="3.95811">
        <ele>1095.08</ele>
        <time>2025-06-15T10:31:11Z</time>
      </trkpt>
      <trkpt lat="44.80311" lon="3.95794">
        <ele>1093.64</ele>
        <time>2025-06-15T10:31:37Z</time>
      </trkpt>
      <trkpt lat="44.80327" lon="3.95792">
        <ele>1087.39</ele>
        <time>2025-06-15T10:31:59Z</time>
      </trkpt>
      <trkpt lat="44.80321" lon="3.95799">
        <ele>1090.75</ele>
        <time>2025-06-15T10:32:22Z</time>
      </trkpt>
      <trkpt lat="44.80301" lon="3.95816">
        <ele>1083.54</ele>
        <time>2025-06-15T10:32:44Z</time>
      </trkpt>
      <trkpt lat="44.80278" lon="3.95835">
        <ele>1082.58</ele>
        <time>2025-06-15T10:33:06Z</time>
      </trkpt>
      <trkpt lat="44.80261" lon="3.95859">
        <ele>1087.87</ele>
        <time>2025-06-15T10:33:24Z</time>
      </trkpt>
      <trkpt lat="44.80243" lon="3.95885">
        <ele>1097.48</ele>
        <time>2025-06-15T10:33:42Z</time>
      </trkpt>
      <trkpt lat="44.80242" lon="3.9591">
        <ele>1096.04</ele>
        <time>2025-06-15T10:33:58Z</time>
      </trkpt>
      <trkpt lat="44.80244" lon="3.95934">
        <ele>1095.08</ele>
        <time>2025-06-15T10:34:13Z</time>
      </trkpt>
      <trkpt lat="44.80244" lon="3.95947">
        <ele>1094.12</ele>
        <time>2025-06-15T10:34:20Z</time>
      </trkpt>
      <trkpt lat="44.80244" lon="3.95976">
        <ele>1091.71</ele>
        <time>2025-06-15T10:34:36Z</time>
      </trkpt>
      <trkpt lat="44.8024" lon="3.96001">
        <ele>1087.87</ele>
        <time>2025-06-15T10:34:52Z</time>
      </trkpt>
      <trkpt lat="44.80238" lon="3.96008">
        <ele>1086.91</ele>
        <time>2025-06-15T10:34:56Z</time>
      </trkpt>
      <trkpt lat="44.8024" lon="3.96016">
        <ele>1082.1</ele>
        <time>2025-06-15T10:35:15Z</time>
      </trkpt>
      <trkpt lat="44.80235" lon="3.9603">
        <ele>1081.62</ele>
        <time>2025-06-15T10:35:31Z</time>
      </trkpt>
      <trkpt lat="44.80225" lon="3.96063">
        <ele>1079.7</ele>
        <time>2025-06-15T10:35:50Z</time>
      </trkpt>
      <trkpt lat="44.80216" lon="3.96097">
        <ele>1082.58</ele>
        <time>2025-06-15T10:36:10Z</time>
      </trkpt>
      <trkpt lat="44.80214" lon="3.96113">
        <ele>1084.5</ele>
        <time>2025-06-15T10:36:25Z</time>
      </trkpt>
      <trkpt lat="44.80199" lon="3.96138">
        <ele>1085.95</ele>
        <time>2025-06-15T10:36:43Z</time>
      </trkpt>
      <trkpt lat="44.80191" lon="3.96166">
        <ele>1083.54</ele>
        <time>2025-06-15T10:36:59Z</time>
      </trkpt>
      <trkpt lat="44.80186" lon="3.96191">
        <ele>1084.02</ele>
        <time>2025-06-15T10:37:14Z</time>
      </trkpt>
      <trkpt lat="44.80196" lon="3.96215">
        <ele>1084.02</ele>
        <time>2025-06-15T10:37:30Z</time>
      </trkpt>
      <trkpt lat="44.80207" lon="3.96236">
        <ele>1084.5</ele>
        <time>2025-06-15T10:37:46Z</time>
      </trkpt>
      <trkpt lat="44.80209" lon="3.9624">
        <ele>1084.99</ele>
        <time>2025-06-15T10:37:49Z</time>
      </trkpt>
      <trkpt lat="44.80218" lon="3.96244">
        <ele>1084.99</ele>
        <time>2025-06-15T10:37:56Z</time>
      </trkpt>
      <trkpt lat="44.80226" lon="3.9627">
        <ele>1085.95</ele>
        <time>2025-06-15T10:38:14Z</time>
      </trkpt>
      <trkpt lat="44.80227" lon="3.96271">
        <ele>1087.87</ele>
        <time>2025-06-15T10:38:35Z</time>
      </trkpt>
      <trkpt lat="44.80233" lon="3.9627">
        <ele>1088.35</ele>
        <time>2025-06-15T10:38:52Z</time>
      </trkpt>
      <trkpt lat="44.8024" lon="3.96272">
        <ele>1086.91</ele>
        <time>2025-06-15T10:39:06Z</time>
      </trkpt>
      <trkpt lat="44.80259" lon="3.9629">
        <ele>1085.95</ele>
        <time>2025-06-15T10:39:24Z</time>
      </trkpt>
      <trkpt lat="44.80271" lon="3.96312">
        <ele>1085.47</ele>
        <time>2025-06-15T10:39:41Z</time>
      </trkpt>
      <trkpt lat="44.80289" lon="3.96324">
        <ele>1085.47</ele>
        <time>2025-06-15T10:39:57Z</time>
      </trkpt>
      <trkpt lat="44.80291" lon="3.96325">
        <ele>1085.47</ele>
        <time>2025-06-15T10:39:59Z</time>
      </trkpt>
      <trkpt lat="44.80314" lon="3.96329">
        <ele>1084.99</ele>
        <time>2025-06-15T10:40:16Z</time>
      </trkpt>
      <trkpt lat="44.80316" lon="3.9633">
        <ele>1084.99</ele>
        <time>2025-06-15T10:40:29Z</time>
      </trkpt>
      <trkpt lat="44.80314" lon="3.96333">
        <ele>1084.99</ele>
        <time>2025-06-15T10:40:46Z</time>
      </trkpt>
      <trkpt lat="44.80312" lon="3.96336">
        <ele>1085.95</ele>
        <time>2025-06-15T10:41:15Z</time>
      </trkpt>
      <trkpt lat="44.8031" lon="3.96338">
        <ele>1086.43</ele>
        <time>2025-06-15T10:41:37Z</time>
      </trkpt>
      <trkpt lat="44.80311" lon="3.96336">
        <ele>1082.58</ele>
        <time>2025-06-15T10:41:55Z</time>
      </trkpt>
      <trkpt lat="44.80312" lon="3.96334">
        <ele>1080.66</ele>
        <time>2025-06-15T10:42:17Z</time>
      </trkpt>
      <trkpt lat="44.80317" lon="3.96334">
        <ele>1080.18</ele>
        <time>2025-06-15T10:42:29Z</time>
      </trkpt>
      <trkpt lat="44.80313" lon="3.96334">
        <ele>1080.66</ele>
        <time>2025-06-15T10:42:49Z</time>
      </trkpt>
      <trkpt lat="44.80313" lon="3.96338">
        <ele>1080.66</ele>
        <time>2025-06-15T10:43:01Z</time>
      </trkpt>
      <trkpt lat="44.80316" lon="3.96333">
        <ele>1080.18</ele>
        <time>2025-06-15T10:43:23Z</time>
      </trkpt>
      <trkpt lat="44.80317" lon="3.96334">
        <ele>1083.06</ele>
        <time>2025-06-15T10:43:52Z</time>
      </trkpt>
      <trkpt lat="44.80317" lon="3.96333">
        <ele>1084.02</ele>
        <time>2025-06-15T10:44:08Z</time>
      </trkpt>
      <trkpt lat="44.80317" lon="3.96335">
        <ele>1082.1</ele>
        <time>2025-06-15T10:44:25Z</time>
      </trkpt>
      <trkpt lat="44.80319" lon="3.96335">
        <ele>1083.54</ele>
        <time>2025-06-15T10:44:45Z</time>
      </trkpt>
      <trkpt lat="44.80318" lon="3.96335">
        <ele>1082.58</ele>
        <time>2025-06-15T10:45:04Z</time>
      </trkpt>
      <trkpt lat="44.80316" lon="3.96334">
        <ele>1082.1</ele>
        <time>2025-06-15T10:45:20Z</time>
      </trkpt>
      <trkpt lat="44.80318" lon="3.96336">
        <ele>1082.58</ele>
        <time>2025-06-15T10:45:37Z</time>
      </trkpt>
      <trkpt lat="44.80317" lon="3.96334">
        <ele>1083.06</ele>
        <time>2025-06-15T10:45:52Z</time>
      </trkpt>
      <trkpt lat="44.80318" lon="3.96333">
        <ele>1083.54</ele>
        <time>2025-06-15T10:46:08Z</time>
      </trkpt>
      <trkpt lat="44.80321" lon="3.96333">
        <ele>1084.5</ele>
        <time>2025-06-15T10:46:28Z</time>
      </trkpt>
      <trkpt lat="44.80322" lon="3.96335">
        <ele>1083.54</ele>
        <time>2025-06-15T10:46:54Z</time>
      </trkpt>
      <trkpt lat="44.80319" lon="3.96332">
        <ele>1083.54</ele>
        <time>2025-06-15T10:47:20Z</time>
      </trkpt>
      <trkpt lat="44.8032" lon="3.96335">
        <ele>1082.58</ele>
        <time>2025-06-15T10:47:35Z</time>
      </trkpt>
      <trkpt lat="44.80316" lon="3.96344">
        <ele>1084.5</ele>
        <time>2025-06-15T10:48:05Z</time>
      </trkpt>
      <trkpt lat="44.80317" lon="3.9634">
        <ele>1085.95</ele>
        <time>2025-06-15T10:48:30Z</time>
      </trkpt>
      <trkpt lat="44.80316" lon="3.9634">
        <ele>1086.91</ele>
        <time>2025-06-15T10:49:01Z</time>
      </trkpt>
      <trkpt lat="44.80316" lon="3.96341">
        <ele>1085.95</ele>
        <time>2025-06-15T10:49:31Z</time>
      </trkpt>
      <trkpt lat="44.80314" lon="3.96339">
        <ele>1083.54</ele>
        <time>2025-06-15T10:50:15Z</time>
      </trkpt>
      <trkpt lat="44.8032" lon="3.96338">
        <ele>1090.75</ele>
        <time>2025-06-15T10:50:52Z</time>
      </trkpt>
      <trkpt lat="44.8032" lon="3.96337">
        <ele>1095.56</ele>
        <time>2025-06-15T10:51:29Z</time>
      </trkpt>
      <trkpt lat="44.8032" lon="3.96338">
        <ele>1096.04</ele>
        <time>2025-06-15T10:51:59Z</time>
      </trkpt>
      <trkpt lat="44.80322" lon="3.9634">
        <ele>1094.6</ele>
        <time>2025-06-15T10:52:33Z</time>
      </trkpt>
      <trkpt lat="44.80321" lon="3.96337">
        <ele>1095.56</ele>
        <time>2025-06-15T10:53:03Z</time>
      </trkpt>
      <trkpt lat="44.80321" lon="3.96335">
        <ele>1096.04</ele>
        <time>2025-06-15T10:53:38Z</time>
      </trkpt>
      <trkpt lat="44.8032" lon="3.96335">
        <ele>1094.12</ele>
        <time>2025-06-15T10:54:23Z</time>
      </trkpt>
      <trkpt lat="44.8032" lon="3.96335">
        <ele>1089.31</ele>
        <time>2025-06-15T10:55:07Z</time>
      </trkpt>
      <trkpt lat="44.8032" lon="3.96335">
        <ele>1090.27</ele>
        <time>2025-06-15T10:55:47Z</time>
      </trkpt>
      <trkpt lat="44.80319" lon="3.96335">
        <ele>1088.35</ele>
        <time>2025-06-15T10:56:28Z</time>
      </trkpt>
      <trkpt lat="44.80319" lon="3.96335">
        <ele>1088.35</ele>
        <time>2025-06-15T10:57:07Z</time>
      </trkpt>
      <trkpt lat="44.8032" lon="3.96337">
        <ele>1086.43</ele>
        <time>2025-06-15T10:57:34Z</time>
      </trkpt>
      <trkpt lat="44.80322" lon="3.96335">
        <ele>1086.91</ele>
        <time>2025-06-15T10:58:00Z</time>
      </trkpt>
      <trkpt lat="44.80321" lon="3.96335">
        <ele>1086.91</ele>
        <time>2025-06-15T10:58:30Z</time>
      </trkpt>
      <trkpt lat="44.80321" lon="3.96337">
        <ele>1084.5</ele>
        <time>2025-06-15T10:59:01Z</time>
      </trkpt>
      <trkpt lat="44.80321" lon="3.96335">
        <ele>1084.02</ele>
        <time>2025-06-15T10:59:37Z</time>
      </trkpt>
      <trkpt lat="44.80321" lon="3.96337">
        <ele>1080.66</ele>
        <time>2025-06-15T11:00:16Z</time>
      </trkpt>
      <trkpt lat="44.80319" lon="3.96334">
        <ele>1082.1</ele>
        <time>2025-06-15T11:00:55Z</time>
      </trkpt>
      <trkpt lat="44.80318" lon="3.96335">
        <ele>1082.58</ele>
        <time>2025-06-15T11:01:16Z</time>
      </trkpt>
      <trkpt lat="44.80318" lon="3.96336">
        <ele>1085.47</ele>
        <time>2025-06-15T11:01:46Z</time>
      </trkpt>
      <trkpt lat="44.8032" lon="3.96337">
        <ele>1090.27</ele>
        <time>2025-06-15T11:02:23Z</time>
      </trkpt>
      <trkpt lat="44.8032" lon="3.96338">
        <ele>1089.79</ele>
        <time>2025-06-15T11:02:55Z</time>
      </trkpt>
      <trkpt lat="44.80319" lon="3.96335">
        <ele>1089.31</ele>
        <time>2025-06-15T11:03:19Z</time>
      </trkpt>
      <trkpt lat="44.80319" lon="3.96337">
        <ele>1088.83</ele>
        <time>2025-06-15T11:03:50Z</time>
      </trkpt>
      <trkpt lat="44.80319" lon="3.96339">
        <ele>1086.91</ele>
        <time>2025-06-15T11:04:10Z</time>
      </trkpt>
      <trkpt lat="44.80319" lon="3.96338">
        <ele>1086.43</ele>
        <time>2025-06-15T11:04:33Z</time>
      </trkpt>
      <trkpt lat="44.80319" lon="3.96342">
        <ele>1087.39</ele>
        <time>2025-06-15T11:05:05Z</time>
      </trkpt>
      <trkpt lat="44.8032" lon="3.96342">
        <ele>1086.91</ele>
        <time>2025-06-15T11:05:31Z</time>
      </trkpt>
      <trkpt lat="44.80319" lon="3.9634">
        <ele>1086.91</ele>
        <time>2025-06-15T11:06:07Z</time>
      </trkpt>
      <trkpt lat="44.80319" lon="3.96337">
        <ele>1084.02</ele>
        <time>2025-06-15T11:06:35Z</time>
      </trkpt>
      <trkpt lat="44.80321" lon="3.96337">
        <ele>1085.95</ele>
        <time>2025-06-15T11:07:04Z</time>
      </trkpt>
      <trkpt lat="44.80321" lon="3.96337">
        <ele>1080.66</ele>
        <time>2025-06-15T11:07:35Z</time>
      </trkpt>
      <trkpt lat="44.80319" lon="3.96335">
        <ele>1079.22</ele>
        <time>2025-06-15T11:08:08Z</time>
      </trkpt>
      <trkpt lat="44.8032" lon="3.96338">
        <ele>1077.29</ele>
        <time>2025-06-15T11:08:48Z</time>
      </trkpt>
      <trkpt lat="44.80319" lon="3.96338">
        <ele>1076.81</ele>
        <time>2025-06-15T11:09:23Z</time>
      </trkpt>
      <trkpt lat="44.8032" lon="3.96338">
        <ele>1078.74</ele>
        <time>2025-06-15T11:09:51Z</time>
      </trkpt>
      <trkpt lat="44.8032" lon="3.96339">
        <ele>1079.22</ele>
        <time>2025-06-15T11:10:14Z</time>
      </trkpt>
      <trkpt lat="44.8032" lon="3.96339">
        <ele>1081.62</ele>
        <time>2025-06-15T11:10:40Z</time>
      </trkpt>
      <trkpt lat="44.8032" lon="3.96337">
        <ele>1084.5</ele>
        <time>2025-06-15T11:11:07Z</time>
      </trkpt>
      <trkpt lat="44.8032" lon="3.96336">
        <ele>1084.5</ele>
        <time>2025-06-15T11:11:32Z</time>
      </trkpt>
      <trkpt lat="44.80322" lon="3.96337">
        <ele>1086.91</ele>
        <time>2025-06-15T11:11:57Z</time>
      </trkpt>
      <trkpt lat="44.80321" lon="3.96337">
        <ele>1086.43</ele>
        <time>2025-06-15T11:12:12Z</time>
      </trkpt>
      <trkpt lat="44.8032" lon="3.96334">
        <ele>1085.47</ele>
        <time>2025-06-15T11:12:34Z</time>
      </trkpt>
      <trkpt lat="44.80321" lon="3.96334">
        <ele>1084.5</ele>
        <time>2025-06-15T11:13:07Z</time>
      </trkpt>
      <trkpt lat="44.8032" lon="3.96341">
        <ele>1083.06</ele>
        <time>2025-06-15T11:13:31Z</time>
      </trkpt>
      <trkpt lat="44.8032" lon="3.9634">
        <ele>1084.5</ele>
        <time>2025-06-15T11:14:00Z</time>
      </trkpt>
      <trkpt lat="44.80321" lon="3.96336">
        <ele>1085.47</ele>
        <time>2025-06-15T11:14:31Z</time>
      </trkpt>
      <trkpt lat="44.80319" lon="3.96334">
        <ele>1087.39</ele>
        <time>2025-06-15T11:14:53Z</time>
      </trkpt>
      <trkpt lat="44.80318" lon="3.96333">
        <ele>1083.06</ele>
        <time>2025-06-15T11:15:33Z</time>
      </trkpt>
      <trkpt lat="44.80318" lon="3.96332">
        <ele>1086.43</ele>
        <time>2025-06-15T11:16:09Z</time>
      </trkpt>
      <trkpt lat="44.80319" lon="3.96333">
        <ele>1086.43</ele>
        <time>2025-06-15T11:16:44Z</time>
      </trkpt>
      <trkpt lat="44.80319" lon="3.96333">
        <ele>1084.02</ele>
        <time>2025-06-15T11:17:01Z</time>
      </trkpt>
      <trkpt lat="44.80319" lon="3.96337">
        <ele>1077.78</ele>
        <time>2025-06-15T11:17:21Z</time>
      </trkpt>
      <trkpt lat="44.80312" lon="3.96333">
        <ele>1077.29</ele>
        <time>2025-06-15T11:17:36Z</time>
      </trkpt>
      <trkpt lat="44.8031" lon="3.96333">
        <ele>1077.78</ele>
        <time>2025-06-15T11:17:39Z</time>
      </trkpt>
      <trkpt lat="44.80301" lon="3.96333">
        <ele>1078.74</ele>
        <time>2025-06-15T11:17:54Z</time>
      </trkpt>
      <trkpt lat="44.80301" lon="3.96332">
        <ele>1080.66</ele>
        <time>2025-06-15T11:18:09Z</time>
      </trkpt>
      <trkpt lat="44.80308" lon="3.96334">
        <ele>1082.1</ele>
        <time>2025-06-15T11:18:23Z</time>
      </trkpt>
      <trkpt lat="44.80318" lon="3.96336">
        <ele>1084.02</ele>
        <time>2025-06-15T11:18:36Z</time>
      </trkpt>
      <trkpt lat="44.80321" lon="3.96334">
        <ele>1083.54</ele>
        <time>2025-06-15T11:18:49Z</time>
      </trkpt>
      <trkpt lat="44.80321" lon="3.96336">
        <ele>1083.54</ele>
        <time>2025-06-15T11:19:15Z</time>
      </trkpt>
      <trkpt lat="44.80322" lon="3.96335">
        <ele>1086.43</ele>
        <time>2025-06-15T11:19:40Z</time>
      </trkpt>
      <trkpt lat="44.80322" lon="3.96334">
        <ele>1085.47</ele>
        <time>2025-06-15T11:20:09Z</time>
      </trkpt>
      <trkpt lat="44.80319" lon="3.96335">
        <ele>1085.47</ele>
        <time>2025-06-15T11:20:43Z</time>
      </trkpt>
      <trkpt lat="44.80322" lon="3.96336">
        <ele>1087.39</ele>
        <time>2025-06-15T11:21:11Z</time>
      </trkpt>
      <trkpt lat="44.80322" lon="3.96336">
        <ele>1087.87</ele>
        <time>2025-06-15T11:21:40Z</time>
      </trkpt>
      <trkpt lat="44.80323" lon="3.96337">
        <ele>1086.43</ele>
        <time>2025-06-15T11:22:05Z</time>
      </trkpt>
      <trkpt lat="44.80325" lon="3.96335">
        <ele>1085.95</ele>
        <time>2025-06-15T11:22:40Z</time>
      </trkpt>
      <trkpt lat="44.80324" lon="3.96335">
        <ele>1085.47</ele>
        <time>2025-06-15T11:23:10Z</time>
      </trkpt>
      <trkpt lat="44.80323" lon="3.96335">
        <ele>1086.91</ele>
        <time>2025-06-15T11:23:44Z</time>
      </trkpt>
      <trkpt lat="44.80326" lon="3.96337">
        <ele>1084.99</ele>
        <time>2025-06-15T11:24:27Z</time>
      </trkpt>
      <trkpt lat="44.80322" lon="3.96337">
        <ele>1085.95</ele>
        <time>2025-06-15T11:25:01Z</time>
      </trkpt>
      <trkpt lat="44.8032" lon="3.96334">
        <ele>1086.43</ele>
        <time>2025-06-15T11:25:29Z</time>
      </trkpt>
      <trkpt lat="44.80319" lon="3.96333">
        <ele>1084.99</ele>
        <time>2025-06-15T11:25:55Z</time>
      </trkpt>
      <trkpt lat="44.80319" lon="3.96334">
        <ele>1082.58</ele>
        <time>2025-06-15T11:26:26Z</time>
      </trkpt>
      <trkpt lat="44.80321" lon="3.96332">
        <ele>1085.95</ele>
        <time>2025-06-15T11:26:48Z</time>
      </trkpt>
      <trkpt lat="44.8032" lon="3.96335">
        <ele>1084.5</ele>
        <time>2025-06-15T11:27:10Z</time>
      </trkpt>
      <trkpt lat="44.80321" lon="3.96336">
        <ele>1083.06</ele>
        <time>2025-06-15T11:27:26Z</time>
      </trkpt>
      <trkpt lat="44.8032" lon="3.96335">
        <ele>1085.95</ele>
        <time>2025-06-15T11:28:06Z</time>
      </trkpt>
      <trkpt lat="44.8032" lon="3.96335">
        <ele>1084.5</ele>
        <time>2025-06-15T11:28:49Z</time>
      </trkpt>
      <trkpt lat="44.8032" lon="3.96333">
        <ele>1083.06</ele>
        <time>2025-06-15T11:29:39Z</time>
      </trkpt>
      <trkpt lat="44.80321" lon="3.96333">
        <ele>1083.06</ele>
        <time>2025-06-15T11:30:10Z</time>
      </trkpt>
      <trkpt lat="44.80323" lon="3.96341">
        <ele>1082.1</ele>
        <time>2025-06-15T11:30:47Z</time>
      </trkpt>
      <trkpt lat="44.80321" lon="3.9634">
        <ele>1082.58</ele>
        <time>2025-06-15T11:31:27Z</time>
      </trkpt>
      <trkpt lat="44.80321" lon="3.96333">
        <ele>1079.7</ele>
        <time>2025-06-15T11:31:51Z</time>
      </trkpt>
      <trkpt lat="44.80323" lon="3.96333">
        <ele>1082.1</ele>
        <time>2025-06-15T11:32:02Z</time>
      </trkpt>
      <trkpt lat="44.80322" lon="3.96333">
        <ele>1083.06</ele>
        <time>2025-06-15T11:32:22Z</time>
      </trkpt>
      <trkpt lat="44.80322" lon="3.96333">
        <ele>1083.06</ele>
        <time>2025-06-15T11:32:37Z</time>
      </trkpt>
      <trkpt lat="44.80321" lon="3.96335">
        <ele>1081.62</ele>
        <time>2025-06-15T11:32:59Z</time>
      </trkpt>
      <trkpt lat="44.80322" lon="3.96333">
        <ele>1080.18</ele>
        <time>2025-06-15T11:33:25Z</time>
      </trkpt>
      <trkpt lat="44.80321" lon="3.96337">
        <ele>1079.22</ele>
        <time>2025-06-15T11:33:40Z</time>
      </trkpt>
      <trkpt lat="44.80318" lon="3.96347">
        <ele>1081.14</ele>
        <time>2025-06-15T11:34:15Z</time>
      </trkpt>
      <trkpt lat="44.80319" lon="3.96334">
        <ele>1081.62</ele>
        <time>2025-06-15T11:34:45Z</time>
      </trkpt>
      <trkpt lat="44.80323" lon="3.96335">
        <ele>1083.54</ele>
        <time>2025-06-15T11:35:00Z</time>
      </trkpt>
      <trkpt lat="44.80321" lon="3.96334">
        <ele>1083.06</ele>
        <time>2025-06-15T11:35:14Z</time>
      </trkpt>
      <trkpt lat="44.8032" lon="3.96335">
        <ele>1082.58</ele>
        <time>2025-06-15T11:35:30Z</time>
      </trkpt>
      <trkpt lat="44.80321" lon="3.96336">
        <ele>1082.58</ele>
        <time>2025-06-15T11:35:58Z</time>
      </trkpt>
      <trkpt lat="44.8032" lon="3.96336">
        <ele>1080.18</ele>
        <time>2025-06-15T11:36:28Z</time>
      </trkpt>
      <trkpt lat="44.80321" lon="3.96334">
        <ele>1082.1</ele>
        <time>2025-06-15T11:36:58Z</time>
      </trkpt>
      <trkpt lat="44.80323" lon="3.96334">
        <ele>1082.1</ele>
        <time>2025-06-15T11:37:21Z</time>
      </trkpt>
      <trkpt lat="44.8032" lon="3.96334">
        <ele>1083.54</ele>
        <time>2025-06-15T11:37:38Z</time>
      </trkpt>
      <trkpt lat="44.80318" lon="3.96332">
        <ele>1083.54</ele>
        <time>2025-06-15T11:37:50Z</time>
      </trkpt>
      <trkpt lat="44.80318" lon="3.96336">
        <ele>1084.5</ele>
        <time>2025-06-15T11:38:13Z</time>
      </trkpt>
      <trkpt lat="44.80317" lon="3.96331">
        <ele>1083.06</ele>
        <time>2025-06-15T11:38:31Z</time>
      </trkpt>
      <trkpt lat="44.80317" lon="3.96331">
        <ele>1082.1</ele>
        <time>2025-06-15T11:38:57Z</time>
      </trkpt>
      <trkpt lat="44.80318" lon="3.9633">
        <ele>1085.47</ele>
        <time>2025-06-15T11:39:19Z</time>
      </trkpt>
      <trkpt lat="44.80316" lon="3.96334">
        <ele>1088.83</ele>
        <time>2025-06-15T11:40:04Z</time>
      </trkpt>
      <trkpt lat="44.80317" lon="3.96333">
        <ele>1089.31</ele>
        <time>2025-06-15T11:40:45Z</time>
      </trkpt>
      <trkpt lat="44.80317" lon="3.96333">
        <ele>1087.39</ele>
        <time>2025-06-15T11:41:21Z</time>
      </trkpt>
      <trkpt lat="44.80318" lon="3.96332">
        <ele>1086.91</ele>
        <time>2025-06-15T11:41:56Z</time>
      </trkpt>
      <trkpt lat="44.80319" lon="3.96333">
        <ele>1084.02</ele>
        <time>2025-06-15T11:42:40Z</time>
      </trkpt>
      <trkpt lat="44.80317" lon="3.96339">
        <ele>1083.06</ele>
        <time>2025-06-15T11:43:17Z</time>
      </trkpt>
      <trkpt lat="44.80318" lon="3.96333">
        <ele>1087.39</ele>
        <time>2025-06-15T11:43:59Z</time>
      </trkpt>
      <trkpt lat="44.80318" lon="3.96333">
        <ele>1085.95</ele>
        <time>2025-06-15T11:44:36Z</time>
      </trkpt>
      <trkpt lat="44.80316" lon="3.9633">
        <ele>1080.66</ele>
        <time>2025-06-15T11:45:10Z</time>
      </trkpt>
      <trkpt lat="44.80319" lon="3.96339">
        <ele>1078.74</ele>
        <time>2025-06-15T11:45:48Z</time>
      </trkpt>
      <trkpt lat="44.80317" lon="3.96332">
        <ele>1082.1</ele>
        <time>2025-06-15T11:46:20Z</time>
      </trkpt>
      <trkpt lat="44.80318" lon="3.96335">
        <ele>1077.29</ele>
        <time>2025-06-15T11:46:58Z</time>
      </trkpt>
      <trkpt lat="44.80313" lon="3.96335">
        <ele>1076.81</ele>
        <time>2025-06-15T11:47:34Z</time>
      </trkpt>
      <trkpt lat="44.80315" lon="3.9633">
        <ele>1079.22</ele>
        <time>2025-06-15T11:48:08Z</time>
      </trkpt>
      <trkpt lat="44.80316" lon="3.96335">
        <ele>1079.22</ele>
        <time>2025-06-15T11:48:51Z</time>
      </trkpt>
      <trkpt lat="44.80314" lon="3.96335">
        <ele>1078.26</ele>
        <time>2025-06-15T11:49:30Z</time>
      </trkpt>
      <trkpt lat="44.80319" lon="3.96335">
        <ele>1084.02</ele>
        <time>2025-06-15T11:50:18Z</time>
      </trkpt>
      <trkpt lat="44.80317" lon="3.96333">
        <ele>1080.66</ele>
        <time>2025-06-15T11:51:03Z</time>
      </trkpt>
      <trkpt lat="44.80315" lon="3.96334">
        <ele>1080.66</ele>
        <time>2025-06-15T11:51:49Z</time>
      </trkpt>
      <trkpt lat="44.80313" lon="3.96335">
        <ele>1075.37</ele>
        <time>2025-06-15T11:52:41Z</time>
      </trkpt>
      <trkpt lat="44.80314" lon="3.96332">
        <ele>1072.49</ele>
        <time>2025-06-15T11:53:26Z</time>
      </trkpt>
      <trkpt lat="44.80314" lon="3.96334">
        <ele>1072.49</ele>
        <time>2025-06-15T11:54:05Z</time>
      </trkpt>
      <trkpt lat="44.80317" lon="3.96335">
        <ele>1080.18</ele>
        <time>2025-06-15T11:54:26Z</time>
      </trkpt>
      <trkpt lat="44.80319" lon="3.96336">
        <ele>1081.62</ele>
        <time>2025-06-15T11:54:55Z</time>
      </trkpt>
      <trkpt lat="44.80316" lon="3.96337">
        <ele>1081.62</ele>
        <time>2025-06-15T11:55:20Z</time>
      </trkpt>
      <trkpt lat="44.80318" lon="3.96324">
        <ele>1082.58</ele>
        <time>2025-06-15T11:55:37Z</time>
      </trkpt>
      <trkpt lat="44.80319" lon="3.96322">
        <ele>1082.1</ele>
        <time>2025-06-15T11:55:54Z</time>
      </trkpt>
      <trkpt lat="44.8032" lon="3.9632">
        <ele>1082.58</ele>
        <time>2025-06-15T11:56:22Z</time>
      </trkpt>
      <trkpt lat="44.80318" lon="3.96326">
        <ele>1084.5</ele>
        <time>2025-06-15T11:56:49Z</time>
      </trkpt>
      <trkpt lat="44.80319" lon="3.96331">
        <ele>1084.02</ele>
        <time>2025-06-15T11:57:08Z</time>
      </trkpt>
      <trkpt lat="44.80322" lon="3.96333">
        <ele>1085.95</ele>
        <time>2025-06-15T11:57:30Z</time>
      </trkpt>
      <trkpt lat="44.80327" lon="3.9633">
        <ele>1085.95</ele>
        <time>2025-06-15T11:57:47Z</time>
      </trkpt>
      <trkpt lat="44.80334" lon="3.96331">
        <ele>1086.43</ele>
        <time>2025-06-15T11:58:03Z</time>
      </trkpt>
      <trkpt lat="44.80335" lon="3.9633">
        <ele>1085.47</ele>
        <time>2025-06-15T11:58:16Z</time>
      </trkpt>
      <trkpt lat="44.80336" lon="3.96332">
        <ele>1084.5</ele>
        <time>2025-06-15T11:58:45Z</time>
      </trkpt>
      <trkpt lat="44.80335" lon="3.96331">
        <ele>1085.47</ele>
        <time>2025-06-15T11:59:01Z</time>
      </trkpt>
      <trkpt lat="44.8033" lon="3.96332">
        <ele>1085.95</ele>
        <time>2025-06-15T11:59:17Z</time>
      </trkpt>
      <trkpt lat="44.80322" lon="3.96332">
        <ele>1085.47</ele>
        <time>2025-06-15T11:59:33Z</time>
      </trkpt>
      <trkpt lat="44.80319" lon="3.96333">
        <ele>1086.91</ele>
        <time>2025-06-15T11:59:54Z</time>
      </trkpt>
      <trkpt lat="44.80319" lon="3.96334">
        <ele>1085.47</ele>
        <time>2025-06-15T12:00:12Z</time>
      </trkpt>
      <trkpt lat="44.8032" lon="3.96333">
        <ele>1084.99</ele>
        <time>2025-06-15T12:00:28Z</time>
      </trkpt>
      <trkpt lat="44.80323" lon="3.96332">
        <ele>1084.02</ele>
        <time>2025-06-15T12:00:58Z</time>
      </trkpt>
      <trkpt lat="44.80322" lon="3.96333">
        <ele>1083.54</ele>
        <time>2025-06-15T12:01:24Z</time>
      </trkpt>
      <trkpt lat="44.80321" lon="3.96333">
        <ele>1079.7</ele>
        <time>2025-06-15T12:02:00Z</time>
      </trkpt>
      <trkpt lat="44.80321" lon="3.96332">
        <ele>1079.22</ele>
        <time>2025-06-15T12:02:05Z</time>
      </trkpt>
      <trkpt lat="44.80317" lon="3.96332">
        <ele>1088.35</ele>
        <time>2025-06-15T12:28:15Z</time>
      </trkpt>
      <trkpt lat="44.80319" lon="3.9633">
        <ele>1087.87</ele>
        <time>2025-06-15T12:28:34Z</time>
      </trkpt>
      <trkpt lat="44.80319" lon="3.9633">
        <ele>1088.35</ele>
        <time>2025-06-15T12:28:57Z</time>
      </trkpt>
      <trkpt lat="44.80318" lon="3.96332">
        <ele>1086.43</ele>
        <time>2025-06-15T12:29:27Z</time>
      </trkpt>
      <trkpt lat="44.8032" lon="3.96331">
        <ele>1083.54</ele>
        <time>2025-06-15T12:30:02Z</time>
      </trkpt>
      <trkpt lat="44.80319" lon="3.96332">
        <ele>1082.1</ele>
        <time>2025-06-15T12:30:38Z</time>
      </trkpt>
      <trkpt lat="44.80316" lon="3.96332">
        <ele>1083.54</ele>
        <time>2025-06-15T12:30:56Z</time>
      </trkpt>
      <trkpt lat="44.80314" lon="3.96331">
        <ele>1083.54</ele>
        <time>2025-06-15T12:31:03Z</time>
      </trkpt>
      <trkpt lat="44.80299" lon="3.96329">
        <ele>1080.18</ele>
        <time>2025-06-15T12:31:18Z</time>
      </trkpt>
      <trkpt lat="44.80282" lon="3.96323">
        <ele>1079.7</ele>
        <time>2025-06-15T12:31:35Z</time>
      </trkpt>
      <trkpt lat="44.80268" lon="3.96311">
        <ele>1077.78</ele>
        <time>2025-06-15T12:31:52Z</time>
      </trkpt>
      <trkpt lat="44.80268" lon="3.96311">
        <ele>1077.78</ele>
        <time>2025-06-15T12:31:53Z</time>
      </trkpt>
      <trkpt lat="44.80266" lon="3.96304">
        <ele>1076.33</ele>
        <time>2025-06-15T12:32:12Z</time>
      </trkpt>
      <trkpt lat="44.80261" lon="3.96295">
        <ele>1075.85</ele>
        <time>2025-06-15T12:32:24Z</time>
      </trkpt>
      <trkpt lat="44.80263" lon="3.96289">
        <ele>1077.78</ele>
        <time>2025-06-15T12:32:39Z</time>
      </trkpt>
      <trkpt lat="44.80264" lon="3.96288">
        <ele>1079.7</ele>
        <time>2025-06-15T12:32:58Z</time>
      </trkpt>
      <trkpt lat="44.80264" lon="3.96288">
        <ele>1080.18</ele>
        <time>2025-06-15T12:33:16Z</time>
      </trkpt>
      <trkpt lat="44.80265" lon="3.96286">
        <ele>1080.18</ele>
        <time>2025-06-15T12:33:27Z</time>
      </trkpt>
      <trkpt lat="44.80265" lon="3.96287">
        <ele>1080.18</ele>
        <time>2025-06-15T12:33:39Z</time>
      </trkpt>
      <trkpt lat="44.80264" lon="3.96289">
        <ele>1080.66</ele>
        <time>2025-06-15T12:33:44Z</time>
      </trkpt>
      <trkpt lat="44.80264" lon="3.96284">
        <ele>1079.7</ele>
        <time>2025-06-15T12:33:54Z</time>
      </trkpt>
      <trkpt lat="44.80263" lon="3.96284">
        <ele>1081.14</ele>
        <time>2025-06-15T12:34:08Z</time>
      </trkpt>
      <trkpt lat="44.80262" lon="3.96283">
        <ele>1081.14</ele>
        <time>2025-06-15T12:34:14Z</time>
      </trkpt>
      <trkpt lat="44.80257" lon="3.96282">
        <ele>1081.14</ele>
        <time>2025-06-15T12:34:18Z</time>
      </trkpt>
      <trkpt lat="44.80252" lon="3.96282">
        <ele>1080.66</ele>
        <time>2025-06-15T12:34:23Z</time>
      </trkpt>
      <trkpt lat="44.80237" lon="3.96263">
        <ele>1081.14</ele>
        <time>2025-06-15T12:34:41Z</time>
      </trkpt>
      <trkpt lat="44.80222" lon="3.96247">
        <ele>1084.02</ele>
        <time>2025-06-15T12:34:58Z</time>
      </trkpt>
      <trkpt lat="44.80219" lon="3.96246">
        <ele>1085.47</ele>
        <time>2025-06-15T12:35:03Z</time>
      </trkpt>
      <trkpt lat="44.80217" lon="3.96247">
        <ele>1085.47</ele>
        <time>2025-06-15T12:35:05Z</time>
      </trkpt>
      <trkpt lat="44.80212" lon="3.96245">
        <ele>1085.95</ele>
        <time>2025-06-15T12:35:10Z</time>
      </trkpt>
      <trkpt lat="44.80209" lon="3.96231">
        <ele>1085.95</ele>
        <time>2025-06-15T12:35:20Z</time>
      </trkpt>
      <trkpt lat="44.80207" lon="3.96226">
        <ele>1085.47</ele>
        <time>2025-06-15T12:35:24Z</time>
      </trkpt>
      <trkpt lat="44.80205" lon="3.9622">
        <ele>1085.95</ele>
        <time>2025-06-15T12:35:28Z</time>
      </trkpt>
      <trkpt lat="44.80198" lon="3.96199">
        <ele>1084.02</ele>
        <time>2025-06-15T12:35:44Z</time>
      </trkpt>
      <trkpt lat="44.802" lon="3.96174">
        <ele>1084.5</ele>
        <time>2025-06-15T12:36:00Z</time>
      </trkpt>
      <trkpt lat="44.80201" lon="3.96171">
        <ele>1084.5</ele>
        <time>2025-06-15T12:36:02Z</time>
      </trkpt>
      <trkpt lat="44.80204" lon="3.96164">
        <ele>1087.39</ele>
        <time>2025-06-15T12:36:17Z</time>
      </trkpt>
      <trkpt lat="44.80205" lon="3.96159">
        <ele>1088.83</ele>
        <time>2025-06-15T12:36:30Z</time>
      </trkpt>
      <trkpt lat="44.80209" lon="3.96148">
        <ele>1087.39</ele>
        <time>2025-06-15T12:36:45Z</time>
      </trkpt>
      <trkpt lat="44.80211" lon="3.9614">
        <ele>1086.43</ele>
        <time>2025-06-15T12:36:49Z</time>
      </trkpt>
      <trkpt lat="44.80214" lon="3.96105">
        <ele>1087.39</ele>
        <time>2025-06-15T12:37:05Z</time>
      </trkpt>
      <trkpt lat="44.80222" lon="3.96079">
        <ele>1088.83</ele>
        <time>2025-06-15T12:37:18Z</time>
      </trkpt>
      <trkpt lat="44.80229" lon="3.96054">
        <ele>1089.79</ele>
        <time>2025-06-15T12:37:33Z</time>
      </trkpt>
      <trkpt lat="44.80235" lon="3.9603">
        <ele>1091.23</ele>
        <time>2025-06-15T12:37:47Z</time>
      </trkpt>
      <trkpt lat="44.80238" lon="3.9602">
        <ele>1091.23</ele>
        <time>2025-06-15T12:37:53Z</time>
      </trkpt>
      <trkpt lat="44.80239" lon="3.9599">
        <ele>1091.71</ele>
        <time>2025-06-15T12:38:11Z</time>
      </trkpt>
      <trkpt lat="44.80241" lon="3.95981">
        <ele>1092.68</ele>
        <time>2025-06-15T12:38:16Z</time>
      </trkpt>
      <trkpt lat="44.8024" lon="3.95955">
        <ele>1093.64</ele>
        <time>2025-06-15T12:38:34Z</time>
      </trkpt>
      <trkpt lat="44.8024" lon="3.9593">
        <ele>1095.56</ele>
        <time>2025-06-15T12:38:50Z</time>
      </trkpt>
      <trkpt lat="44.80237" lon="3.95905">
        <ele>1097</ele>
        <time>2025-06-15T12:39:01Z</time>
      </trkpt>
      <trkpt lat="44.80237" lon="3.95875">
        <ele>1097.96</ele>
        <time>2025-06-15T12:39:17Z</time>
      </trkpt>
      <trkpt lat="44.80255" lon="3.9585">
        <ele>1102.29</ele>
        <time>2025-06-15T12:39:35Z</time>
      </trkpt>
      <trkpt lat="44.80256" lon="3.95848">
        <ele>1102.29</ele>
        <time>2025-06-15T12:39:36Z</time>
      </trkpt>
      <trkpt lat="44.80275" lon="3.95829">
        <ele>1101.33</ele>
        <time>2025-06-15T12:39:51Z</time>
      </trkpt>
      <trkpt lat="44.80291" lon="3.95812">
        <ele>1103.73</ele>
        <time>2025-06-15T12:40:07Z</time>
      </trkpt>
      <trkpt lat="44.80317" lon="3.95794">
        <ele>1108.54</ele>
        <time>2025-06-15T12:40:29Z</time>
      </trkpt>
      <trkpt lat="44.8034" lon="3.95794">
        <ele>1108.54</ele>
        <time>2025-06-15T12:40:46Z</time>
      </trkpt>
      <trkpt lat="44.80358" lon="3.95785">
        <ele>1109.02</ele>
        <time>2025-06-15T12:41:02Z</time>
      </trkpt>
      <trkpt lat="44.80376" lon="3.95782">
        <ele>1110.94</ele>
        <time>2025-06-15T12:41:19Z</time>
      </trkpt>
      <trkpt lat="44.80378" lon="3.95782">
        <ele>1110.94</ele>
        <time>2025-06-15T12:41:20Z</time>
      </trkpt>
      <trkpt lat="44.8038" lon="3.95782">
        <ele>1110.94</ele>
        <time>2025-06-15T12:41:21Z</time>
      </trkpt>
      <trkpt lat="44.80397" lon="3.95777">
        <ele>1111.9</ele>
        <time>2025-06-15T12:41:37Z</time>
      </trkpt>
      <trkpt lat="44.8042" lon="3.95771">
        <ele>1118.15</ele>
        <time>2025-06-15T12:41:55Z</time>
      </trkpt>
      <trkpt lat="44.80442" lon="3.95776">
        <ele>1118.63</ele>
        <time>2025-06-15T12:42:14Z</time>
      </trkpt>
      <trkpt lat="44.8048" lon="3.95769">
        <ele>1114.31</ele>
        <time>2025-06-15T12:42:38Z</time>
      </trkpt>
      <trkpt lat="44.80497" lon="3.95753">
        <ele>1118.15</ele>
        <time>2025-06-15T12:42:57Z</time>
      </trkpt>
      <trkpt lat="44.80518" lon="3.95747">
        <ele>1122.96</ele>
        <time>2025-06-15T12:43:15Z</time>
      </trkpt>
      <trkpt lat="44.80544" lon="3.95766">
        <ele>1124.88</ele>
        <time>2025-06-15T12:43:37Z</time>
      </trkpt>
      <trkpt lat="44.80573" lon="3.95778">
        <ele>1132.09</ele>
        <time>2025-06-15T12:44:01Z</time>
      </trkpt>
      <trkpt lat="44.80591" lon="3.95773">
        <ele>1132.57</ele>
        <time>2025-06-15T12:44:18Z</time>
      </trkpt>
      <trkpt lat="44.80613" lon="3.95764">
        <ele>1132.09</ele>
        <time>2025-06-15T12:44:37Z</time>
      </trkpt>
      <trkpt lat="44.80623" lon="3.95759">
        <ele>1135.45</ele>
        <time>2025-06-15T12:44:51Z</time>
      </trkpt>
      <trkpt lat="44.8064" lon="3.95742">
        <ele>1132.09</ele>
        <time>2025-06-15T12:45:10Z</time>
      </trkpt>
      <trkpt lat="44.80657" lon="3.95724">
        <ele>1129.21</ele>
        <time>2025-06-15T12:45:31Z</time>
      </trkpt>
      <trkpt lat="44.80675" lon="3.95712">
        <ele>1122.96</ele>
        <time>2025-06-15T12:45:48Z</time>
      </trkpt>
      <trkpt lat="44.80692" lon="3.9569">
        <ele>1116.71</ele>
        <time>2025-06-15T12:46:06Z</time>
      </trkpt>
      <trkpt lat="44.80709" lon="3.95672">
        <ele>1112.86</ele>
        <time>2025-06-15T12:46:22Z</time>
      </trkpt>
      <trkpt lat="44.80717" lon="3.95661">
        <ele>1111.42</ele>
        <time>2025-06-15T12:46:38Z</time>
      </trkpt>
      <trkpt lat="44.80717" lon="3.95658">
        <ele>1107.1</ele>
        <time>2025-06-15T12:46:56Z</time>
      </trkpt>
      <trkpt lat="44.80703" lon="3.95656">
        <ele>1103.25</ele>
        <time>2025-06-15T12:47:16Z</time>
      </trkpt>
      <trkpt lat="44.80709" lon="3.95653">
        <ele>1101.81</ele>
        <time>2025-06-15T12:47:38Z</time>
      </trkpt>
      <trkpt lat="44.80715" lon="3.95636">
        <ele>1103.73</ele>
        <time>2025-06-15T12:47:54Z</time>
      </trkpt>
      <trkpt lat="44.80717" lon="3.9563">
        <ele>1104.69</ele>
        <time>2025-06-15T12:48:09Z</time>
      </trkpt>
      <trkpt lat="44.80708" lon="3.95614">
        <ele>1097.96</ele>
        <time>2025-06-15T12:48:28Z</time>
      </trkpt>
      <trkpt lat="44.80679" lon="3.95579">
        <ele>1091.71</ele>
        <time>2025-06-15T12:48:49Z</time>
      </trkpt>
      <trkpt lat="44.80679" lon="3.95562">
        <ele>1089.79</ele>
        <time>2025-06-15T12:49:11Z</time>
      </trkpt>
      <trkpt lat="44.80676" lon="3.95544">
        <ele>1087.87</ele>
        <time>2025-06-15T12:49:32Z</time>
      </trkpt>
      <trkpt lat="44.80665" lon="3.95538">
        <ele>1084.02</ele>
        <time>2025-06-15T12:49:51Z</time>
      </trkpt>
      <trkpt lat="44.80665" lon="3.95538">
        <ele>1084.02</ele>
        <time>2025-06-15T12:49:52Z</time>
      </trkpt>
      <trkpt lat="44.80679" lon="3.95546">
        <ele>1087.39</ele>
        <time>2025-06-15T12:50:13Z</time>
      </trkpt>
      <trkpt lat="44.80683" lon="3.95544">
        <ele>1086.43</ele>
        <time>2025-06-15T12:50:38Z</time>
      </trkpt>
      <trkpt lat="44.80691" lon="3.95523">
        <ele>1082.58</ele>
        <time>2025-06-15T12:51:05Z</time>
      </trkpt>
      <trkpt lat="44.80696" lon="3.95504">
        <ele>1084.02</ele>
        <time>2025-06-15T12:51:27Z</time>
      </trkpt>
      <trkpt lat="44.80708" lon="3.95471">
        <ele>1091.71</ele>
        <time>2025-06-15T12:51:48Z</time>
      </trkpt>
      <trkpt lat="44.80712" lon="3.95461">
        <ele>1099.4</ele>
        <time>2025-06-15T12:52:09Z</time>
      </trkpt>
      <trkpt lat="44.80728" lon="3.95449">
        <ele>1104.69</ele>
        <time>2025-06-15T12:52:34Z</time>
      </trkpt>
      <trkpt lat="44.80732" lon="3.95424">
        <ele>1105.65</ele>
        <time>2025-06-15T12:52:56Z</time>
      </trkpt>
      <trkpt lat="44.80738" lon="3.95393">
        <ele>1105.17</ele>
        <time>2025-06-15T12:53:20Z</time>
      </trkpt>
      <trkpt lat="44.80745" lon="3.95366">
        <ele>1107.58</ele>
        <time>2025-06-15T12:53:43Z</time>
      </trkpt>
      <trkpt lat="44.80758" lon="3.95337">
        <ele>1106.13</ele>
        <time>2025-06-15T12:54:08Z</time>
      </trkpt>
      <trkpt lat="44.80777" lon="3.95319">
        <ele>1104.69</ele>
        <time>2025-06-15T12:54:30Z</time>
      </trkpt>
      <trkpt lat="44.808" lon="3.95305">
        <ele>1102.29</ele>
        <time>2025-06-15T12:54:54Z</time>
      </trkpt>
      <trkpt lat="44.80833" lon="3.95301">
        <ele>1102.77</ele>
        <time>2025-06-15T12:55:19Z</time>
      </trkpt>
      <trkpt lat="44.80861" lon="3.9529">
        <ele>1096.04</ele>
        <time>2025-06-15T12:55:46Z</time>
      </trkpt>
      <trkpt lat="44.80874" lon="3.95288">
        <ele>1087.39</ele>
        <time>2025-06-15T12:56:07Z</time>
      </trkpt>
      <trkpt lat="44.80881" lon="3.95287">
        <ele>1081.62</ele>
        <time>2025-06-15T12:56:21Z</time>
      </trkpt>
      <trkpt lat="44.80889" lon="3.95281">
        <ele>1078.26</ele>
        <time>2025-06-15T12:56:37Z</time>
      </trkpt>
      <trkpt lat="44.80899" lon="3.95262">
        <ele>1078.74</ele>
        <time>2025-06-15T12:56:54Z</time>
      </trkpt>
      <trkpt lat="44.80913" lon="3.9524">
        <ele>1079.22</ele>
        <time>2025-06-15T12:57:12Z</time>
      </trkpt>
      <trkpt lat="44.80925" lon="3.9522">
        <ele>1080.66</ele>
        <time>2025-06-15T12:57:29Z</time>
      </trkpt>
      <trkpt lat="44.80939" lon="3.95195">
        <ele>1077.78</ele>
        <time>2025-06-15T12:57:51Z</time>
      </trkpt>
      <trkpt lat="44.80954" lon="3.95179">
        <ele>1078.26</ele>
        <time>2025-06-15T12:58:08Z</time>
      </trkpt>
      <trkpt lat="44.80959" lon="3.95168">
        <ele>1069.6</ele>
        <time>2025-06-15T12:58:22Z</time>
      </trkpt>
      <trkpt lat="44.80966" lon="3.95158">
        <ele>1067.68</ele>
        <time>2025-06-15T12:58:42Z</time>
      </trkpt>
      <trkpt lat="44.80966" lon="3.95142">
        <ele>1078.74</ele>
        <time>2025-06-15T12:59:02Z</time>
      </trkpt>
      <trkpt lat="44.80987" lon="3.95156">
        <ele>1083.54</ele>
        <time>2025-06-15T12:59:23Z</time>
      </trkpt>
      <trkpt lat="44.80998" lon="3.95159">
        <ele>1081.62</ele>
        <time>2025-06-15T12:59:39Z</time>
      </trkpt>
      <trkpt lat="44.81001" lon="3.95145">
        <ele>1077.78</ele>
        <time>2025-06-15T12:59:57Z</time>
      </trkpt>
      <trkpt lat="44.80994" lon="3.95136">
        <ele>1074.89</ele>
        <time>2025-06-15T13:00:14Z</time>
      </trkpt>
      <trkpt lat="44.80991" lon="3.95112">
        <ele>1073.93</ele>
        <time>2025-06-15T13:00:31Z</time>
      </trkpt>
      <trkpt lat="44.81004" lon="3.95087">
        <ele>1074.89</ele>
        <time>2025-06-15T13:00:49Z</time>
      </trkpt>
      <trkpt lat="44.81024" lon="3.9506">
        <ele>1080.18</ele>
        <time>2025-06-15T13:01:07Z</time>
      </trkpt>
      <trkpt lat="44.81046" lon="3.95031">
        <ele>1085.47</ele>
        <time>2025-06-15T13:01:31Z</time>
      </trkpt>
      <trkpt lat="44.81064" lon="3.95016">
        <ele>1084.99</ele>
        <time>2025-06-15T13:01:48Z</time>
      </trkpt>
      <trkpt lat="44.81083" lon="3.95002">
        <ele>1082.1</ele>
        <time>2025-06-15T13:02:04Z</time>
      </trkpt>
      <trkpt lat="44.81092" lon="3.94977">
        <ele>1083.06</ele>
        <time>2025-06-15T13:02:22Z</time>
      </trkpt>
      <trkpt lat="44.81103" lon="3.94956">
        <ele>1083.06</ele>
        <time>2025-06-15T13:02:38Z</time>
      </trkpt>
      <trkpt lat="44.8111" lon="3.94945">
        <ele>1083.54</ele>
        <time>2025-06-15T13:02:51Z</time>
      </trkpt>
      <trkpt lat="44.81101" lon="3.9494">
        <ele>1076.33</ele>
        <time>2025-06-15T13:03:12Z</time>
      </trkpt>
      <trkpt lat="44.81105" lon="3.94949">
        <ele>1074.89</ele>
        <time>2025-06-15T13:03:41Z</time>
      </trkpt>
      <trkpt lat="44.81118" lon="3.94953">
        <ele>1079.22</ele>
        <time>2025-06-15T13:04:08Z</time>
      </trkpt>
      <trkpt lat="44.81112" lon="3.94958">
        <ele>1079.22</ele>
        <time>2025-06-15T13:04:34Z</time>
      </trkpt>
      <trkpt lat="44.81113" lon="3.9496">
        <ele>1083.54</ele>
        <time>2025-06-15T13:04:56Z</time>
      </trkpt>
      <trkpt lat="44.81111" lon="3.94958">
        <ele>1085.47</ele>
        <time>2025-06-15T13:05:16Z</time>
      </trkpt>
      <trkpt lat="44.81109" lon="3.9495">
        <ele>1090.27</ele>
        <time>2025-06-15T13:05:36Z</time>
      </trkpt>
      <trkpt lat="44.81106" lon="3.94969">
        <ele>1084.99</ele>
        <time>2025-06-15T13:05:49Z</time>
      </trkpt>
      <trkpt lat="44.81103" lon="3.94984">
        <ele>1087.39</ele>
        <time>2025-06-15T13:06:04Z</time>
      </trkpt>
      <trkpt lat="44.81102" lon="3.94987">
        <ele>1085.47</ele>
        <time>2025-06-15T13:06:24Z</time>
      </trkpt>
      <trkpt lat="44.81101" lon="3.94987">
        <ele>1083.54</ele>
        <time>2025-06-15T13:06:43Z</time>
      </trkpt>
      <trkpt lat="44.811" lon="3.94985">
        <ele>1082.1</ele>
        <time>2025-06-15T13:06:57Z</time>
      </trkpt>
      <trkpt lat="44.81091" lon="3.94976">
        <ele>1084.99</ele>
        <time>2025-06-15T13:07:21Z</time>
      </trkpt>
      <trkpt lat="44.81102" lon="3.94989">
        <ele>1083.06</ele>
        <time>2025-06-15T13:07:46Z</time>
      </trkpt>
      <trkpt lat="44.81101" lon="3.94988">
        <ele>1081.62</ele>
        <time>2025-06-15T13:08:04Z</time>
      </trkpt>
      <trkpt lat="44.81099" lon="3.94989">
        <ele>1081.14</ele>
        <time>2025-06-15T13:08:24Z</time>
      </trkpt>
      <trkpt lat="44.81093" lon="3.94995">
        <ele>1078.74</ele>
        <time>2025-06-15T13:08:37Z</time>
      </trkpt>
      <trkpt lat="44.81085" lon="3.95014">
        <ele>1082.1</ele>
        <time>2025-06-15T13:08:50Z</time>
      </trkpt>
      <trkpt lat="44.81085" lon="3.95021">
        <ele>1080.66</ele>
        <time>2025-06-15T13:09:11Z</time>
      </trkpt>
      <trkpt lat="44.81075" lon="3.95023">
        <ele>1077.29</ele>
        <time>2025-06-15T13:09:25Z</time>
      </trkpt>
      <trkpt lat="44.81076" lon="3.95027">
        <ele>1077.78</ele>
        <time>2025-06-15T13:09:45Z</time>
      </trkpt>
      <trkpt lat="44.81078" lon="3.95021">
        <ele>1077.78</ele>
        <time>2025-06-15T13:10:02Z</time>
      </trkpt>
      <trkpt lat="44.81083" lon="3.95023">
        <ele>1079.22</ele>
        <time>2025-06-15T13:10:21Z</time>
      </trkpt>
      <trkpt lat="44.81092" lon="3.95022">
        <ele>1076.81</ele>
        <time>2025-06-15T13:10:39Z</time>
      </trkpt>
      <trkpt lat="44.81096" lon="3.95016">
        <ele>1078.26</ele>
        <time>2025-06-15T13:10:52Z</time>
      </trkpt>
      <trkpt lat="44.81097" lon="3.95019">
        <ele>1080.66</ele>
        <time>2025-06-15T13:11:14Z</time>
      </trkpt>
      <trkpt lat="44.81101" lon="3.95023">
        <ele>1079.7</ele>
        <time>2025-06-15T13:11:30Z</time>
      </trkpt>
      <trkpt lat="44.81098" lon="3.95021">
        <ele>1076.33</ele>
        <time>2025-06-15T13:11:48Z</time>
      </trkpt>
      <trkpt lat="44.81106" lon="3.95018">
        <ele>1072.01</ele>
        <time>2025-06-15T13:12:12Z</time>
      </trkpt>
      <trkpt lat="44.81109" lon="3.95022">
        <ele>1069.6</ele>
        <time>2025-06-15T13:12:32Z</time>
      </trkpt>
      <trkpt lat="44.81107" lon="3.95018">
        <ele>1068.16</ele>
        <time>2025-06-15T13:12:54Z</time>
      </trkpt>
      <trkpt lat="44.81109" lon="3.95018">
        <ele>1067.2</ele>
        <time>2025-06-15T13:13:14Z</time>
      </trkpt>
      <trkpt lat="44.81113" lon="3.95016">
        <ele>1072.01</ele>
        <time>2025-06-15T13:13:42Z</time>
      </trkpt>
      <trkpt lat="44.81125" lon="3.95023">
        <ele>1072.49</ele>
        <time>2025-06-15T13:14:03Z</time>
      </trkpt>
      <trkpt lat="44.81137" lon="3.95023">
        <ele>1078.26</ele>
        <time>2025-06-15T13:14:22Z</time>
      </trkpt>
      <trkpt lat="44.81142" lon="3.9502">
        <ele>1075.37</ele>
        <time>2025-06-15T13:14:42Z</time>
      </trkpt>
      <trkpt lat="44.81145" lon="3.95004">
        <ele>1072.49</ele>
        <time>2025-06-15T13:14:58Z</time>
      </trkpt>
      <trkpt lat="44.81138" lon="3.94984">
        <ele>1079.22</ele>
        <time>2025-06-15T13:15:19Z</time>
      </trkpt>
      <trkpt lat="44.81142" lon="3.94976">
        <ele>1083.06</ele>
        <time>2025-06-15T13:15:40Z</time>
      </trkpt>
      <trkpt lat="44.81141" lon="3.94974">
        <ele>1082.58</ele>
        <time>2025-06-15T13:16:00Z</time>
      </trkpt>
      <trkpt lat="44.81136" lon="3.94972">
        <ele>1082.1</ele>
        <time>2025-06-15T13:16:25Z</time>
      </trkpt>
      <trkpt lat="44.81144" lon="3.94967">
        <ele>1083.06</ele>
        <time>2025-06-15T13:16:50Z</time>
      </trkpt>
      <trkpt lat="44.81143" lon="3.94964">
        <ele>1077.29</ele>
        <time>2025-06-15T13:17:11Z</time>
      </trkpt>
      <trkpt lat="44.81148" lon="3.9497">
        <ele>1078.26</ele>
        <time>2025-06-15T13:17:36Z</time>
      </trkpt>
      <trkpt lat="44.81142" lon="3.94963">
        <ele>1077.78</ele>
        <time>2025-06-15T13:18:00Z</time>
      </trkpt>
      <trkpt lat="44.81135" lon="3.94955">
        <ele>1074.89</ele>
        <time>2025-06-15T13:18:19Z</time>
      </trkpt>
      <trkpt lat="44.81125" lon="3.9494">
        <ele>1071.05</ele>
        <time>2025-06-15T13:18:47Z</time>
      </trkpt>
      <trkpt lat="44.81125" lon="3.94938">
        <ele>1072.01</ele>
        <time>2025-06-15T13:19:12Z</time>
      </trkpt>
      <trkpt lat="44.81138" lon="3.94949">
        <ele>1085.47</ele>
        <time>2025-06-15T13:19:39Z</time>
      </trkpt>
      <trkpt lat="44.81138" lon="3.94935">
        <ele>1090.75</ele>
        <time>2025-06-15T13:20:06Z</time>
      </trkpt>
      <trkpt lat="44.81142" lon="3.9494">
        <ele>1092.68</ele>
        <time>2025-06-15T13:20:31Z</time>
      </trkpt>
      <trkpt lat="44.81132" lon="3.94934">
        <ele>1087.39</ele>
        <time>2025-06-15T13:20:48Z</time>
      </trkpt>
      <trkpt lat="44.81127" lon="3.94931">
        <ele>1084.5</ele>
        <time>2025-06-15T13:21:11Z</time>
      </trkpt>
      <trkpt lat="44.81126" lon="3.94932">
        <ele>1081.14</ele>
        <time>2025-06-15T13:21:33Z</time>
      </trkpt>
      <trkpt lat="44.81129" lon="3.94927">
        <ele>1078.74</ele>
        <time>2025-06-15T13:21:58Z</time>
      </trkpt>
      <trkpt lat="44.81122" lon="3.9493">
        <ele>1077.29</ele>
        <time>2025-06-15T13:22:15Z</time>
      </trkpt>
      <trkpt lat="44.81121" lon="3.94923">
        <ele>1077.29</ele>
        <time>2025-06-15T13:22:38Z</time>
      </trkpt>
      <trkpt lat="44.81124" lon="3.9492">
        <ele>1089.79</ele>
        <time>2025-06-15T13:22:56Z</time>
      </trkpt>
      <trkpt lat="44.81126" lon="3.94916">
        <ele>1093.16</ele>
        <time>2025-06-15T13:23:15Z</time>
      </trkpt>
      <trkpt lat="44.81126" lon="3.94914">
        <ele>1096.04</ele>
        <time>2025-06-15T13:23:43Z</time>
      </trkpt>
      <trkpt lat="44.81127" lon="3.94909">
        <ele>1091.23</ele>
        <time>2025-06-15T13:24:07Z</time>
      </trkpt>
      <trkpt lat="44.81126" lon="3.94904">
        <ele>1090.75</ele>
        <time>2025-06-15T13:24:09Z</time>
      </trkpt>
      <trkpt lat="44.81132" lon="3.94892">
        <ele>1092.68</ele>
        <time>2025-06-15T13:24:16Z</time>
      </trkpt>
      <trkpt lat="44.8114" lon="3.94876">
        <ele>1090.75</ele>
        <time>2025-06-15T13:24:29Z</time>
      </trkpt>
      <trkpt lat="44.8115" lon="3.94854">
        <ele>1088.35</ele>
        <time>2025-06-15T13:24:47Z</time>
      </trkpt>
      <trkpt lat="44.81158" lon="3.94824">
        <ele>1086.43</ele>
        <time>2025-06-15T13:25:05Z</time>
      </trkpt>
      <trkpt lat="44.81167" lon="3.94798">
        <ele>1084.02</ele>
        <time>2025-06-15T13:25:23Z</time>
      </trkpt>
      <trkpt lat="44.8117" lon="3.94781">
        <ele>1084.02</ele>
        <time>2025-06-15T13:25:34Z</time>
      </trkpt>
      <trkpt lat="44.81169" lon="3.94762">
        <ele>1087.87</ele>
        <time>2025-06-15T13:25:50Z</time>
      </trkpt>
      <trkpt lat="44.81188" lon="3.94765">
        <ele>1094.12</ele>
        <time>2025-06-15T13:26:13Z</time>
      </trkpt>
      <trkpt lat="44.81187" lon="3.94764">
        <ele>1091.23</ele>
        <time>2025-06-15T13:26:32Z</time>
      </trkpt>
      <trkpt lat="44.81182" lon="3.94764">
        <ele>1092.2</ele>
        <time>2025-06-15T13:26:36Z</time>
      </trkpt>
      <trkpt lat="44.81173" lon="3.94774">
        <ele>1097.96</ele>
        <time>2025-06-15T13:26:48Z</time>
      </trkpt>
      <trkpt lat="44.81164" lon="3.94789">
        <ele>1103.73</ele>
        <time>2025-06-15T13:27:04Z</time>
      </trkpt>
      <trkpt lat="44.81154" lon="3.94806">
        <ele>1111.42</ele>
        <time>2025-06-15T13:27:23Z</time>
      </trkpt>
      <trkpt lat="44.81126" lon="3.94819">
        <ele>1114.31</ele>
        <time>2025-06-15T13:27:43Z</time>
      </trkpt>
      <trkpt lat="44.81107" lon="3.94836">
        <ele>1114.79</ele>
        <time>2025-06-15T13:28:00Z</time>
      </trkpt>
      <trkpt lat="44.81089" lon="3.94862">
        <ele>1115.75</ele>
        <time>2025-06-15T13:28:20Z</time>
      </trkpt>
      <trkpt lat="44.81078" lon="3.94878">
        <ele>1117.67</ele>
        <time>2025-06-15T13:28:35Z</time>
      </trkpt>
      <trkpt lat="44.81061" lon="3.94893">
        <ele>1122</ele>
        <time>2025-06-15T13:28:54Z</time>
      </trkpt>
      <trkpt lat="44.81054" lon="3.94901">
        <ele>1123.44</ele>
        <time>2025-06-15T13:29:01Z</time>
      </trkpt>
      <trkpt lat="44.81041" lon="3.94916">
        <ele>1126.8</ele>
        <time>2025-06-15T13:29:17Z</time>
      </trkpt>
      <trkpt lat="44.81023" lon="3.94926">
        <ele>1128.24</ele>
        <time>2025-06-15T13:29:36Z</time>
      </trkpt>
      <trkpt lat="44.81019" lon="3.94927">
        <ele>1128.73</ele>
        <time>2025-06-15T13:29:40Z</time>
      </trkpt>
      <trkpt lat="44.81012" lon="3.94928">
        <ele>1128.24</ele>
        <time>2025-06-15T13:29:45Z</time>
      </trkpt>
      <trkpt lat="44.80995" lon="3.9494">
        <ele>1127.76</ele>
        <time>2025-06-15T13:30:01Z</time>
      </trkpt>
      <trkpt lat="44.80974" lon="3.94957">
        <ele>1124.88</ele>
        <time>2025-06-15T13:30:20Z</time>
      </trkpt>
      <trkpt lat="44.80946" lon="3.94979">
        <ele>1123.44</ele>
        <time>2025-06-15T13:30:36Z</time>
      </trkpt>
      <trkpt lat="44.80932" lon="3.94997">
        <ele>1131.13</ele>
        <time>2025-06-15T13:30:53Z</time>
      </trkpt>
      <trkpt lat="44.80923" lon="3.95016">
        <ele>1131.61</ele>
        <time>2025-06-15T13:31:06Z</time>
      </trkpt>
      <trkpt lat="44.80915" lon="3.95032">
        <ele>1133.05</ele>
        <time>2025-06-15T13:31:20Z</time>
      </trkpt>
      <trkpt lat="44.80911" lon="3.95034">
        <ele>1130.65</ele>
        <time>2025-06-15T13:31:46Z</time>
      </trkpt>
      <trkpt lat="44.80907" lon="3.95039">
        <ele>1131.61</ele>
        <time>2025-06-15T13:32:09Z</time>
      </trkpt>
      <trkpt lat="44.80902" lon="3.9504">
        <ele>1130.65</ele>
        <time>2025-06-15T13:32:27Z</time>
      </trkpt>
      <trkpt lat="44.809" lon="3.95038">
        <ele>1130.17</ele>
        <time>2025-06-15T13:32:54Z</time>
      </trkpt>
      <trkpt lat="44.80905" lon="3.9504">
        <ele>1130.17</ele>
        <time>2025-06-15T13:33:28Z</time>
      </trkpt>
      <trkpt lat="44.80908" lon="3.95044">
        <ele>1128.73</ele>
        <time>2025-06-15T13:33:54Z</time>
      </trkpt>
      <trkpt lat="44.80905" lon="3.95043">
        <ele>1129.21</ele>
        <time>2025-06-15T13:34:16Z</time>
      </trkpt>
      <trkpt lat="44.80901" lon="3.9504">
        <ele>1129.69</ele>
        <time>2025-06-15T13:34:44Z</time>
      </trkpt>
      <trkpt lat="44.80906" lon="3.95043">
        <ele>1129.69</ele>
        <time>2025-06-15T13:35:21Z</time>
      </trkpt>
      <trkpt lat="44.80905" lon="3.9504">
        <ele>1129.69</ele>
        <time>2025-06-15T13:35:49Z</time>
      </trkpt>
      <trkpt lat="44.80903" lon="3.9504">
        <ele>1132.57</ele>
        <time>2025-06-15T13:36:19Z</time>
      </trkpt>
      <trkpt lat="44.80902" lon="3.9504">
        <ele>1131.61</ele>
        <time>2025-06-15T13:36:49Z</time>
      </trkpt>
      <trkpt lat="44.80902" lon="3.95039">
        <ele>1130.65</ele>
        <time>2025-06-15T13:37:21Z</time>
      </trkpt>
      <trkpt lat="44.80904" lon="3.95046">
        <ele>1131.13</ele>
        <time>2025-06-15T13:37:40Z</time>
      </trkpt>
      <trkpt lat="44.80899" lon="3.95055">
        <ele>1133.05</ele>
        <time>2025-06-15T13:37:55Z</time>
      </trkpt>
      <trkpt lat="44.80887" lon="3.95073">
        <ele>1132.09</ele>
        <time>2025-06-15T13:38:12Z</time>
      </trkpt>
      <trkpt lat="44.80874" lon="3.95092">
        <ele>1131.61</ele>
        <time>2025-06-15T13:38:29Z</time>
      </trkpt>
      <trkpt lat="44.80858" lon="3.95111">
        <ele>1131.13</ele>
        <time>2025-06-15T13:38:48Z</time>
      </trkpt>
      <trkpt lat="44.80836" lon="3.95131">
        <ele>1130.65</ele>
        <time>2025-06-15T13:39:08Z</time>
      </trkpt>
      <trkpt lat="44.80821" lon="3.95147">
        <ele>1131.13</ele>
        <time>2025-06-15T13:39:27Z</time>
      </trkpt>
      <trkpt lat="44.80798" lon="3.95163">
        <ele>1129.69</ele>
        <time>2025-06-15T13:39:49Z</time>
      </trkpt>
      <trkpt lat="44.80795" lon="3.95166">
        <ele>1130.65</ele>
        <time>2025-06-15T13:39:52Z</time>
      </trkpt>
      <trkpt lat="44.80779" lon="3.95185">
        <ele>1134.01</ele>
        <time>2025-06-15T13:40:08Z</time>
      </trkpt>
      <trkpt lat="44.8077" lon="3.95191">
        <ele>1133.05</ele>
        <time>2025-06-15T13:40:16Z</time>
      </trkpt>
      <trkpt lat="44.80764" lon="3.95193">
        <ele>1133.05</ele>
        <time>2025-06-15T13:40:21Z</time>
      </trkpt>
      <trkpt lat="44.80746" lon="3.95202">
        <ele>1134.01</ele>
        <time>2025-06-15T13:40:38Z</time>
      </trkpt>
      <trkpt lat="44.80728" lon="3.95211">
        <ele>1132.09</ele>
        <time>2025-06-15T13:40:54Z</time>
      </trkpt>
      <trkpt lat="44.80706" lon="3.95218">
        <ele>1134.01</ele>
        <time>2025-06-15T13:41:12Z</time>
      </trkpt>
      <trkpt lat="44.80683" lon="3.95228">
        <ele>1134.49</ele>
        <time>2025-06-15T13:41:31Z</time>
      </trkpt>
      <trkpt lat="44.80663" lon="3.95237">
        <ele>1136.42</ele>
        <time>2025-06-15T13:41:48Z</time>
      </trkpt>
      <trkpt lat="44.80644" lon="3.95247">
        <ele>1137.86</ele>
        <time>2025-06-15T13:42:04Z</time>
      </trkpt>
      <trkpt lat="44.80624" lon="3.95251">
        <ele>1139.3</ele>
        <time>2025-06-15T13:42:21Z</time>
      </trkpt>
      <trkpt lat="44.80603" lon="3.95251">
        <ele>1139.3</ele>
        <time>2025-06-15T13:42:39Z</time>
      </trkpt>
      <trkpt lat="44.8058" lon="3.95249">
        <ele>1135.94</ele>
        <time>2025-06-15T13:42:57Z</time>
      </trkpt>
      <trkpt lat="44.80563" lon="3.9525">
        <ele>1131.61</ele>
        <time>2025-06-15T13:43:13Z</time>
      </trkpt>
      <trkpt lat="44.80541" lon="3.95252">
        <ele>1129.21</ele>
        <time>2025-06-15T13:43:28Z</time>
      </trkpt>
      <trkpt lat="44.80523" lon="3.9526">
        <ele>1126.32</ele>
        <time>2025-06-15T13:43:44Z</time>
      </trkpt>
      <trkpt lat="44.80506" lon="3.95266">
        <ele>1125.84</ele>
        <time>2025-06-15T13:44:00Z</time>
      </trkpt>
      <trkpt lat="44.80483" lon="3.95273">
        <ele>1126.32</ele>
        <time>2025-06-15T13:44:16Z</time>
      </trkpt>
      <trkpt lat="44.80463" lon="3.95283">
        <ele>1126.8</ele>
        <time>2025-06-15T13:44:33Z</time>
      </trkpt>
      <trkpt lat="44.80443" lon="3.95298">
        <ele>1129.69</ele>
        <time>2025-06-15T13:44:54Z</time>
      </trkpt>
      <trkpt lat="44.80415" lon="3.95312">
        <ele>1128.73</ele>
        <time>2025-06-15T13:45:17Z</time>
      </trkpt>
      <trkpt lat="44.80393" lon="3.95321">
        <ele>1131.13</ele>
        <time>2025-06-15T13:45:34Z</time>
      </trkpt>
      <trkpt lat="44.80385" lon="3.9533">
        <ele>1140.26</ele>
        <time>2025-06-15T13:45:48Z</time>
      </trkpt>
      <trkpt lat="44.8037" lon="3.95332">
        <ele>1145.55</ele>
        <time>2025-06-15T13:46:05Z</time>
      </trkpt>
      <trkpt lat="44.80351" lon="3.95329">
        <ele>1153.24</ele>
        <time>2025-06-15T13:46:19Z</time>
      </trkpt>
      <trkpt lat="44.80312" lon="3.95318">
        <ele>1149.87</ele>
        <time>2025-06-15T13:46:33Z</time>
      </trkpt>
      <trkpt lat="44.80298" lon="3.9532">
        <ele>1146.51</ele>
        <time>2025-06-15T13:46:42Z</time>
      </trkpt>
      <trkpt lat="44.80275" lon="3.95316">
        <ele>1138.82</ele>
        <time>2025-06-15T13:47:00Z</time>
      </trkpt>
      <trkpt lat="44.80254" lon="3.9532">
        <ele>1131.61</ele>
        <time>2025-06-15T13:47:18Z</time>
      </trkpt>
      <trkpt lat="44.80238" lon="3.95323">
        <ele>1125.36</ele>
        <time>2025-06-15T13:47:32Z</time>
      </trkpt>
      <trkpt lat="44.80219" lon="3.95315">
        <ele>1120.07</ele>
        <time>2025-06-15T13:47:48Z</time>
      </trkpt>
      <trkpt lat="44.80199" lon="3.95301">
        <ele>1115.27</ele>
        <time>2025-06-15T13:48:04Z</time>
      </trkpt>
      <trkpt lat="44.80176" lon="3.95281">
        <ele>1113.34</ele>
        <time>2025-06-15T13:48:23Z</time>
      </trkpt>
      <trkpt lat="44.80165" lon="3.95257">
        <ele>1114.79</ele>
        <time>2025-06-15T13:48:40Z</time>
      </trkpt>
      <trkpt lat="44.80165" lon="3.9525">
        <ele>1115.27</ele>
        <time>2025-06-15T13:48:44Z</time>
      </trkpt>
      <trkpt lat="44.80168" lon="3.95237">
        <ele>1115.75</ele>
        <time>2025-06-15T13:48:52Z</time>
      </trkpt>
      <trkpt lat="44.80164" lon="3.95206">
        <ele>1117.19</ele>
        <time>2025-06-15T13:49:09Z</time>
      </trkpt>
      <trkpt lat="44.80168" lon="3.95176">
        <ele>1119.11</ele>
        <time>2025-06-15T13:49:27Z</time>
      </trkpt>
      <trkpt lat="44.80168" lon="3.95175">
        <ele>1119.11</ele>
        <time>2025-06-15T13:49:28Z</time>
      </trkpt>
      <trkpt lat="44.8017" lon="3.95142">
        <ele>1119.11</ele>
        <time>2025-06-15T13:49:46Z</time>
      </trkpt>
      <trkpt lat="44.80165" lon="3.95116">
        <ele>1121.03</ele>
        <time>2025-06-15T13:50:01Z</time>
      </trkpt>
      <trkpt lat="44.80159" lon="3.95082">
        <ele>1120.07</ele>
        <time>2025-06-15T13:50:19Z</time>
      </trkpt>
      <trkpt lat="44.80158" lon="3.95055">
        <ele>1117.19</ele>
        <time>2025-06-15T13:50:34Z</time>
      </trkpt>
      <trkpt lat="44.80161" lon="3.9502">
        <ele>1116.23</ele>
        <time>2025-06-15T13:50:52Z</time>
      </trkpt>
      <trkpt lat="44.80158" lon="3.94996">
        <ele>1115.27</ele>
        <time>2025-06-15T13:51:05Z</time>
      </trkpt>
      <trkpt lat="44.80159" lon="3.94964">
        <ele>1114.31</ele>
        <time>2025-06-15T13:51:23Z</time>
      </trkpt>
      <trkpt lat="44.80158" lon="3.94929">
        <ele>1111.9</ele>
        <time>2025-06-15T13:51:40Z</time>
      </trkpt>
      <trkpt lat="44.80169" lon="3.94913">
        <ele>1107.58</ele>
        <time>2025-06-15T13:51:55Z</time>
      </trkpt>
      <trkpt lat="44.80175" lon="3.9491">
        <ele>1107.1</ele>
        <time>2025-06-15T13:51:59Z</time>
      </trkpt>
      <trkpt lat="44.80197" lon="3.94894">
        <ele>1107.1</ele>
        <time>2025-06-15T13:52:17Z</time>
      </trkpt>
      <trkpt lat="44.80209" lon="3.94869">
        <ele>1105.65</ele>
        <time>2025-06-15T13:52:33Z</time>
      </trkpt>
      <trkpt lat="44.80219" lon="3.94842">
        <ele>1104.69</ele>
        <time>2025-06-15T13:52:50Z</time>
      </trkpt>
      <trkpt lat="44.80234" lon="3.94818">
        <ele>1104.69</ele>
        <time>2025-06-15T13:53:07Z</time>
      </trkpt>
      <trkpt lat="44.80245" lon="3.94796">
        <ele>1105.65</ele>
        <time>2025-06-15T13:53:23Z</time>
      </trkpt>
      <trkpt lat="44.80252" lon="3.94785">
        <ele>1105.65</ele>
        <time>2025-06-15T13:53:35Z</time>
      </trkpt>
      <trkpt lat="44.80267" lon="3.94774">
        <ele>1107.58</ele>
        <time>2025-06-15T13:53:50Z</time>
      </trkpt>
      <trkpt lat="44.80281" lon="3.94775">
        <ele>1108.54</ele>
        <time>2025-06-15T13:54:01Z</time>
      </trkpt>
      <trkpt lat="44.80301" lon="3.94783">
        <ele>1112.38</ele>
        <time>2025-06-15T13:54:19Z</time>
      </trkpt>
      <trkpt lat="44.80321" lon="3.94778">
        <ele>1114.79</ele>
        <time>2025-06-15T13:54:35Z</time>
      </trkpt>
      <trkpt lat="44.8033" lon="3.94761">
        <ele>1115.27</ele>
        <time>2025-06-15T13:54:48Z</time>
      </trkpt>
      <trkpt lat="44.80326" lon="3.94735">
        <ele>1117.67</ele>
        <time>2025-06-15T13:55:03Z</time>
      </trkpt>
      <trkpt lat="44.80317" lon="3.94712">
        <ele>1116.71</ele>
        <time>2025-06-15T13:55:14Z</time>
      </trkpt>
      <trkpt lat="44.80315" lon="3.94683">
        <ele>1116.23</ele>
        <time>2025-06-15T13:55:30Z</time>
      </trkpt>
      <trkpt lat="44.80316" lon="3.94654">
        <ele>1114.79</ele>
        <time>2025-06-15T13:55:45Z</time>
      </trkpt>
      <trkpt lat="44.80322" lon="3.94628">
        <ele>1112.86</ele>
        <time>2025-06-15T13:56:01Z</time>
      </trkpt>
      <trkpt lat="44.80327" lon="3.94621">
        <ele>1112.38</ele>
        <time>2025-06-15T13:56:07Z</time>
      </trkpt>
      <trkpt lat="44.80327" lon="3.94619">
        <ele>1111.9</ele>
        <time>2025-06-15T13:56:08Z</time>
      </trkpt>
      <trkpt lat="44.80327" lon="3.94617">
        <ele>1111.9</ele>
        <time>2025-06-15T13:56:09Z</time>
      </trkpt>
      <trkpt lat="44.80327" lon="3.94615">
        <ele>1111.9</ele>
        <time>2025-06-15T13:56:10Z</time>
      </trkpt>
      <trkpt lat="44.80327" lon="3.94613">
        <ele>1111.9</ele>
        <time>2025-06-15T13:56:11Z</time>
      </trkpt>
      <trkpt lat="44.80328" lon="3.94606">
        <ele>1111.42</ele>
        <time>2025-06-15T13:56:16Z</time>
      </trkpt>
      <trkpt lat="44.80328" lon="3.94604">
        <ele>1111.42</ele>
        <time>2025-06-15T13:56:17Z</time>
      </trkpt>
      <trkpt lat="44.80329" lon="3.94603">
        <ele>1111.42</ele>
        <time>2025-06-15T13:56:18Z</time>
      </trkpt>
      <trkpt lat="44.80333" lon="3.94598">
        <ele>1109.5</ele>
        <time>2025-06-15T13:56:24Z</time>
      </trkpt>
      <trkpt lat="44.80357" lon="3.94601">
        <ele>1105.17</ele>
        <time>2025-06-15T13:56:42Z</time>
      </trkpt>
      <trkpt lat="44.80381" lon="3.94607">
        <ele>1101.81</ele>
        <time>2025-06-15T13:57:00Z</time>
      </trkpt>
      <trkpt lat="44.80387" lon="3.94605">
        <ele>1101.33</ele>
        <time>2025-06-15T13:57:04Z</time>
      </trkpt>
      <trkpt lat="44.80388" lon="3.94604">
        <ele>1101.81</ele>
        <time>2025-06-15T13:57:05Z</time>
      </trkpt>
      <trkpt lat="44.80409" lon="3.94597">
        <ele>1100.85</ele>
        <time>2025-06-15T13:57:22Z</time>
      </trkpt>
      <trkpt lat="44.80427" lon="3.94589">
        <ele>1097.96</ele>
        <time>2025-06-15T13:57:36Z</time>
      </trkpt>
      <trkpt lat="44.80448" lon="3.9458">
        <ele>1096.04</ele>
        <time>2025-06-15T13:57:51Z</time>
      </trkpt>
      <trkpt lat="44.80464" lon="3.94573">
        <ele>1093.64</ele>
        <time>2025-06-15T13:58:04Z</time>
      </trkpt>
      <trkpt lat="44.8047" lon="3.94566">
        <ele>1093.64</ele>
        <time>2025-06-15T13:58:14Z</time>
      </trkpt>
      <trkpt lat="44.80471" lon="3.94565">
        <ele>1093.64</ele>
        <time>2025-06-15T13:58:15Z</time>
      </trkpt>
      <trkpt lat="44.80485" lon="3.94547">
        <ele>1092.68</ele>
        <time>2025-06-15T13:58:30Z</time>
      </trkpt>
      <trkpt lat="44.80497" lon="3.94537">
        <ele>1093.64</ele>
        <time>2025-06-15T13:58:46Z</time>
      </trkpt>
      <trkpt lat="44.80497" lon="3.94537">
        <ele>1094.12</ele>
        <time>2025-06-15T13:59:02Z</time>
      </trkpt>
      <trkpt lat="44.80497" lon="3.94535">
        <ele>1095.08</ele>
        <time>2025-06-15T13:59:27Z</time>
      </trkpt>
      <trkpt lat="44.80497" lon="3.94534">
        <ele>1093.64</ele>
        <time>2025-06-15T13:59:40Z</time>
      </trkpt>
      <trkpt lat="44.80496" lon="3.94533">
        <ele>1093.64</ele>
        <time>2025-06-15T13:59:57Z</time>
      </trkpt>
      <trkpt lat="44.80498" lon="3.94534">
        <ele>1093.64</ele>
        <time>2025-06-15T14:00:15Z</time>
      </trkpt>
      <trkpt lat="44.80497" lon="3.94532">
        <ele>1093.64</ele>
        <time>2025-06-15T14:00:35Z</time>
      </trkpt>
      <trkpt lat="44.80487" lon="3.94546">
        <ele>1092.2</ele>
        <time>2025-06-15T14:00:46Z</time>
      </trkpt>
      <trkpt lat="44.80486" lon="3.94547">
        <ele>1092.2</ele>
        <time>2025-06-15T14:00:47Z</time>
      </trkpt>
      <trkpt lat="44.80472" lon="3.94566">
        <ele>1089.79</ele>
        <time>2025-06-15T14:01:03Z</time>
      </trkpt>
      <trkpt lat="44.80486" lon="3.94566">
        <ele>1087.87</ele>
        <time>2025-06-15T14:01:20Z</time>
      </trkpt>
      <trkpt lat="44.80506" lon="3.9456">
        <ele>1085.47</ele>
        <time>2025-06-15T14:01:37Z</time>
      </trkpt>
      <trkpt lat="44.80535" lon="3.94554">
        <ele>1081.14</ele>
        <time>2025-06-15T14:01:59Z</time>
      </trkpt>
      <trkpt lat="44.80557" lon="3.94551">
        <ele>1078.26</ele>
        <time>2025-06-15T14:02:19Z</time>
      </trkpt>
      <trkpt lat="44.80573" lon="3.94541">
        <ele>1073.93</ele>
        <time>2025-06-15T14:02:32Z</time>
      </trkpt>
      <trkpt lat="44.8059" lon="3.9452">
        <ele>1068.64</ele>
        <time>2025-06-15T14:02:51Z</time>
      </trkpt>
      <trkpt lat="44.80609" lon="3.94493">
        <ele>1064.32</ele>
        <time>2025-06-15T14:03:09Z</time>
      </trkpt>
      <trkpt lat="44.8062" lon="3.94461">
        <ele>1060.47</ele>
        <time>2025-06-15T14:03:30Z</time>
      </trkpt>
      <trkpt lat="44.80642" lon="3.9445">
        <ele>1056.63</ele>
        <time>2025-06-15T14:03:51Z</time>
      </trkpt>
      <trkpt lat="44.80666" lon="3.94446">
        <ele>1051.82</ele>
        <time>2025-06-15T14:04:11Z</time>
      </trkpt>
      <trkpt lat="44.80689" lon="3.94439">
        <ele>1047.49</ele>
        <time>2025-06-15T14:04:30Z</time>
      </trkpt>
      <trkpt lat="44.80708" lon="3.94437">
        <ele>1047.97</ele>
        <time>2025-06-15T14:04:51Z</time>
      </trkpt>
      <trkpt lat="44.80725" lon="3.94437">
        <ele>1049.42</ele>
        <time>2025-06-15T14:05:11Z</time>
      </trkpt>
      <trkpt lat="44.80754" lon="3.94451">
        <ele>1047.01</ele>
        <time>2025-06-15T14:05:32Z</time>
      </trkpt>
      <trkpt lat="44.80776" lon="3.94473">
        <ele>1045.09</ele>
        <time>2025-06-15T14:05:51Z</time>
      </trkpt>
      <trkpt lat="44.80799" lon="3.94493">
        <ele>1042.21</ele>
        <time>2025-06-15T14:06:12Z</time>
      </trkpt>
      <trkpt lat="44.808" lon="3.94494">
        <ele>1042.21</ele>
        <time>2025-06-15T14:06:13Z</time>
      </trkpt>
      <trkpt lat="44.80825" lon="3.94502">
        <ele>1044.61</ele>
        <time>2025-06-15T14:06:30Z</time>
      </trkpt>
      <trkpt lat="44.80831" lon="3.94514">
        <ele>1043.17</ele>
        <time>2025-06-15T14:06:38Z</time>
      </trkpt>
      <trkpt lat="44.80827" lon="3.94543">
        <ele>1041.73</ele>
        <time>2025-06-15T14:06:55Z</time>
      </trkpt>
      <trkpt lat="44.80824" lon="3.94567">
        <ele>1040.76</ele>
        <time>2025-06-15T14:07:08Z</time>
      </trkpt>
      <trkpt lat="44.80818" lon="3.946">
        <ele>1040.28</ele>
        <time>2025-06-15T14:07:26Z</time>
      </trkpt>
      <trkpt lat="44.80819" lon="3.94632">
        <ele>1035.48</ele>
        <time>2025-06-15T14:07:40Z</time>
      </trkpt>
      <trkpt lat="44.80817" lon="3.9466">
        <ele>1034.52</ele>
        <time>2025-06-15T14:07:55Z</time>
      </trkpt>
      <trkpt lat="44.80819" lon="3.94682">
        <ele>1034.04</ele>
        <time>2025-06-15T14:08:07Z</time>
      </trkpt>
      <trkpt lat="44.80823" lon="3.94694">
        <ele>1028.75</ele>
        <time>2025-06-15T14:08:21Z</time>
      </trkpt>
      <trkpt lat="44.80827" lon="3.94695">
        <ele>1029.71</ele>
        <time>2025-06-15T14:08:40Z</time>
      </trkpt>
      <trkpt lat="44.80828" lon="3.94694">
        <ele>1030.19</ele>
        <time>2025-06-15T14:08:50Z</time>
      </trkpt>
      <trkpt lat="44.80846" lon="3.94687">
        <ele>1031.15</ele>
        <time>2025-06-15T14:09:09Z</time>
      </trkpt>
      <trkpt lat="44.8086" lon="3.94677">
        <ele>1035</ele>
        <time>2025-06-15T14:09:26Z</time>
      </trkpt>
      <trkpt lat="44.80881" lon="3.94658">
        <ele>1036.92</ele>
        <time>2025-06-15T14:09:42Z</time>
      </trkpt>
      <trkpt lat="44.8089" lon="3.9464">
        <ele>1035.96</ele>
        <time>2025-06-15T14:09:59Z</time>
      </trkpt>
      <trkpt lat="44.80914" lon="3.94629">
        <ele>1040.76</ele>
        <time>2025-06-15T14:10:17Z</time>
      </trkpt>
      <trkpt lat="44.80934" lon="3.94617">
        <ele>1039.32</ele>
        <time>2025-06-15T14:10:33Z</time>
      </trkpt>
      <trkpt lat="44.80952" lon="3.94598">
        <ele>1035</ele>
        <time>2025-06-15T14:10:49Z</time>
      </trkpt>
      <trkpt lat="44.80954" lon="3.94589">
        <ele>1036.44</ele>
        <time>2025-06-15T14:10:53Z</time>
      </trkpt>
      <trkpt lat="44.8098" lon="3.9457">
        <ele>1039.32</ele>
        <time>2025-06-15T14:11:09Z</time>
      </trkpt>
      <trkpt lat="44.80985" lon="3.94565">
        <ele>1038.84</ele>
        <time>2025-06-15T14:11:12Z</time>
      </trkpt>
      <trkpt lat="44.81" lon="3.94562">
        <ele>1039.8</ele>
        <time>2025-06-15T14:11:23Z</time>
      </trkpt>
      <trkpt lat="44.81006" lon="3.9457">
        <ele>1039.8</ele>
        <time>2025-06-15T14:11:39Z</time>
      </trkpt>
      <trkpt lat="44.81006" lon="3.94573">
        <ele>1040.76</ele>
        <time>2025-06-15T14:11:57Z</time>
      </trkpt>
      <trkpt lat="44.80997" lon="3.94569">
        <ele>1041.25</ele>
        <time>2025-06-15T14:12:18Z</time>
      </trkpt>
      <trkpt lat="44.81002" lon="3.94566">
        <ele>1036.44</ele>
        <time>2025-06-15T14:12:44Z</time>
      </trkpt>
      <trkpt lat="44.81002" lon="3.94573">
        <ele>1033.07</ele>
        <time>2025-06-15T14:13:05Z</time>
      </trkpt>
      <trkpt lat="44.80997" lon="3.94576">
        <ele>1032.11</ele>
        <time>2025-06-15T14:13:09Z</time>
      </trkpt>
      <trkpt lat="44.80974" lon="3.94591">
        <ele>1031.15</ele>
        <time>2025-06-15T14:13:29Z</time>
      </trkpt>
      <trkpt lat="44.80952" lon="3.94614">
        <ele>1028.27</ele>
        <time>2025-06-15T14:13:49Z</time>
      </trkpt>
      <trkpt lat="44.80935" lon="3.94636">
        <ele>1024.42</ele>
        <time>2025-06-15T14:14:05Z</time>
      </trkpt>
      <trkpt lat="44.80908" lon="3.94646">
        <ele>1023.46</ele>
        <time>2025-06-15T14:14:23Z</time>
      </trkpt>
      <trkpt lat="44.80888" lon="3.94662">
        <ele>1019.13</ele>
        <time>2025-06-15T14:14:43Z</time>
      </trkpt>
      <trkpt lat="44.80863" lon="3.94684">
        <ele>1026.34</ele>
        <time>2025-06-15T14:15:02Z</time>
      </trkpt>
      <trkpt lat="44.80838" lon="3.94695">
        <ele>1026.34</ele>
        <time>2025-06-15T14:15:19Z</time>
      </trkpt>
      <trkpt lat="44.80831" lon="3.947">
        <ele>1026.34</ele>
        <time>2025-06-15T14:15:24Z</time>
      </trkpt>
      <trkpt lat="44.80822" lon="3.947">
        <ele>1027.31</ele>
        <time>2025-06-15T14:15:32Z</time>
      </trkpt>
      <trkpt lat="44.80813" lon="3.94666">
        <ele>1032.59</ele>
        <time>2025-06-15T14:15:51Z</time>
      </trkpt>
      <trkpt lat="44.80814" lon="3.9465">
        <ele>1037.4</ele>
        <time>2025-06-15T14:16:04Z</time>
      </trkpt>
      <trkpt lat="44.80815" lon="3.94621">
        <ele>1041.25</ele>
        <time>2025-06-15T14:16:22Z</time>
      </trkpt>
      <trkpt lat="44.80812" lon="3.9459">
        <ele>1048.45</ele>
        <time>2025-06-15T14:16:37Z</time>
      </trkpt>
      <trkpt lat="44.80815" lon="3.94558">
        <ele>1054.22</ele>
        <time>2025-06-15T14:16:54Z</time>
      </trkpt>
      <trkpt lat="44.8082" lon="3.9453">
        <ele>1055.18</ele>
        <time>2025-06-15T14:17:08Z</time>
      </trkpt>
      <trkpt lat="44.80821" lon="3.94513">
        <ele>1056.15</ele>
        <time>2025-06-15T14:17:21Z</time>
      </trkpt>
      <trkpt lat="44.80809" lon="3.9451">
        <ele>1052.78</ele>
        <time>2025-06-15T14:17:35Z</time>
      </trkpt>
      <trkpt lat="44.80794" lon="3.94497">
        <ele>1053.74</ele>
        <time>2025-06-15T14:17:50Z</time>
      </trkpt>
      <trkpt lat="44.8078" lon="3.94485">
        <ele>1057.59</ele>
        <time>2025-06-15T14:18:06Z</time>
      </trkpt>
      <trkpt lat="44.80776" lon="3.9448">
        <ele>1059.03</ele>
        <time>2025-06-15T14:18:12Z</time>
      </trkpt>
      <trkpt lat="44.80761" lon="3.94467">
        <ele>1063.36</ele>
        <time>2025-06-15T14:18:28Z</time>
      </trkpt>
      <trkpt lat="44.80745" lon="3.94452">
        <ele>1065.28</ele>
        <time>2025-06-15T14:18:44Z</time>
      </trkpt>
      <trkpt lat="44.80723" lon="3.94446">
        <ele>1064.8</ele>
        <time>2025-06-15T14:19:02Z</time>
      </trkpt>
      <trkpt lat="44.80704" lon="3.94448">
        <ele>1065.28</ele>
        <time>2025-06-15T14:19:18Z</time>
      </trkpt>
      <trkpt lat="44.80686" lon="3.9445">
        <ele>1065.76</ele>
        <time>2025-06-15T14:19:33Z</time>
      </trkpt>
      <trkpt lat="44.80668" lon="3.94457">
        <ele>1067.2</ele>
        <time>2025-06-15T14:19:47Z</time>
      </trkpt>
      <trkpt lat="44.80647" lon="3.9446">
        <ele>1068.64</ele>
        <time>2025-06-15T14:20:03Z</time>
      </trkpt>
      <trkpt lat="44.80632" lon="3.9446">
        <ele>1070.08</ele>
        <time>2025-06-15T14:20:18Z</time>
      </trkpt>
      <trkpt lat="44.80633" lon="3.94472">
        <ele>1075.37</ele>
        <time>2025-06-15T14:20:33Z</time>
      </trkpt>
      <trkpt lat="44.80626" lon="3.94498">
        <ele>1089.31</ele>
        <time>2025-06-15T14:20:50Z</time>
      </trkpt>
      <trkpt lat="44.8061" lon="3.94518">
        <ele>1092.68</ele>
        <time>2025-06-15T14:21:07Z</time>
      </trkpt>
      <trkpt lat="44.80593" lon="3.9454">
        <ele>1093.16</ele>
        <time>2025-06-15T14:21:25Z</time>
      </trkpt>
      <trkpt lat="44.80571" lon="3.94556">
        <ele>1093.64</ele>
        <time>2025-06-15T14:21:43Z</time>
      </trkpt>
      <trkpt lat="44.80557" lon="3.94564">
        <ele>1095.56</ele>
        <time>2025-06-15T14:21:56Z</time>
      </trkpt>
      <trkpt lat="44.80534" lon="3.94569">
        <ele>1097.96</ele>
        <time>2025-06-15T14:22:13Z</time>
      </trkpt>
      <trkpt lat="44.80516" lon="3.94572">
        <ele>1099.4</ele>
        <time>2025-06-15T14:22:29Z</time>
      </trkpt>
      <trkpt lat="44.80494" lon="3.94575">
        <ele>1102.29</ele>
        <time>2025-06-15T14:22:48Z</time>
      </trkpt>
      <trkpt lat="44.80474" lon="3.94577">
        <ele>1104.69</ele>
        <time>2025-06-15T14:23:03Z</time>
      </trkpt>
      <trkpt lat="44.80473" lon="3.94577">
        <ele>1104.21</ele>
        <time>2025-06-15T14:23:04Z</time>
      </trkpt>
      <trkpt lat="44.80481" lon="3.94548">
        <ele>1098.92</ele>
        <time>2025-06-15T14:23:19Z</time>
      </trkpt>
      <trkpt lat="44.80495" lon="3.94535">
        <ele>1094.6</ele>
        <time>2025-06-15T14:23:32Z</time>
      </trkpt>
      <trkpt lat="44.80498" lon="3.94532">
        <ele>1094.6</ele>
        <time>2025-06-15T14:23:35Z</time>
      </trkpt>
      <trkpt lat="44.80501" lon="3.94519">
        <ele>1096.04</ele>
        <time>2025-06-15T14:23:50Z</time>
      </trkpt>
      <trkpt lat="44.80496" lon="3.94517">
        <ele>1097.96</ele>
        <time>2025-06-15T14:24:04Z</time>
      </trkpt>
      <trkpt lat="44.80483" lon="3.94521">
        <ele>1102.77</ele>
        <time>2025-06-15T14:24:20Z</time>
      </trkpt>
      <trkpt lat="44.80466" lon="3.94521">
        <ele>1107.1</ele>
        <time>2025-06-15T14:24:35Z</time>
      </trkpt>
      <trkpt lat="44.80434" lon="3.94518">
        <ele>1107.1</ele>
        <time>2025-06-15T14:24:52Z</time>
      </trkpt>
      <trkpt lat="44.80402" lon="3.945">
        <ele>1107.1</ele>
        <time>2025-06-15T14:25:12Z</time>
      </trkpt>
      <trkpt lat="44.80382" lon="3.9449">
        <ele>1099.89</ele>
        <time>2025-06-15T14:25:28Z</time>
      </trkpt>
      <trkpt lat="44.80361" lon="3.94488">
        <ele>1094.6</ele>
        <time>2025-06-15T14:25:43Z</time>
      </trkpt>
      <trkpt lat="44.80344" lon="3.94484">
        <ele>1090.75</ele>
        <time>2025-06-15T14:25:55Z</time>
      </trkpt>
      <trkpt lat="44.80337" lon="3.94479">
        <ele>1088.83</ele>
        <time>2025-06-15T14:26:02Z</time>
      </trkpt>
      <trkpt lat="44.80316" lon="3.94473">
        <ele>1084.02</ele>
        <time>2025-06-15T14:26:19Z</time>
      </trkpt>
      <trkpt lat="44.80298" lon="3.94469">
        <ele>1082.1</ele>
        <time>2025-06-15T14:26:34Z</time>
      </trkpt>
      <trkpt lat="44.80275" lon="3.94459">
        <ele>1081.14</ele>
        <time>2025-06-15T14:26:51Z</time>
      </trkpt>
      <trkpt lat="44.80251" lon="3.94448">
        <ele>1077.78</ele>
        <time>2025-06-15T14:27:10Z</time>
      </trkpt>
      <trkpt lat="44.80228" lon="3.94442">
        <ele>1078.74</ele>
        <time>2025-06-15T14:27:27Z</time>
      </trkpt>
      <trkpt lat="44.80206" lon="3.94441">
        <ele>1077.29</ele>
        <time>2025-06-15T14:27:43Z</time>
      </trkpt>
      <trkpt lat="44.80182" lon="3.94442">
        <ele>1076.33</ele>
        <time>2025-06-15T14:28:02Z</time>
      </trkpt>
      <trkpt lat="44.8016" lon="3.94442">
        <ele>1077.78</ele>
        <time>2025-06-15T14:28:18Z</time>
      </trkpt>
      <trkpt lat="44.80138" lon="3.94435">
        <ele>1077.29</ele>
        <time>2025-06-15T14:28:35Z</time>
      </trkpt>
      <trkpt lat="44.80115" lon="3.94435">
        <ele>1076.81</ele>
        <time>2025-06-15T14:28:52Z</time>
      </trkpt>
      <trkpt lat="44.80097" lon="3.94435">
        <ele>1079.7</ele>
        <time>2025-06-15T14:29:05Z</time>
      </trkpt>
      <trkpt lat="44.80077" lon="3.9444">
        <ele>1082.58</ele>
        <time>2025-06-15T14:29:24Z</time>
      </trkpt>
      <trkpt lat="44.80051" lon="3.94449">
        <ele>1083.06</ele>
        <time>2025-06-15T14:29:42Z</time>
      </trkpt>
      <trkpt lat="44.80027" lon="3.94473">
        <ele>1068.64</ele>
        <time>2025-06-15T14:29:59Z</time>
      </trkpt>
      <trkpt lat="44.80008" lon="3.94492">
        <ele>1062.87</ele>
        <time>2025-06-15T14:30:17Z</time>
      </trkpt>
      <trkpt lat="44.80004" lon="3.94494">
        <ele>1062.39</ele>
        <time>2025-06-15T14:30:19Z</time>
      </trkpt>
      <trkpt lat="44.79982" lon="3.94508">
        <ele>1059.99</ele>
        <time>2025-06-15T14:30:36Z</time>
      </trkpt>
      <trkpt lat="44.79973" lon="3.945">
        <ele>1058.55</ele>
        <time>2025-06-15T14:30:45Z</time>
      </trkpt>
      <trkpt lat="44.79972" lon="3.94484">
        <ele>1056.15</ele>
        <time>2025-06-15T14:30:56Z</time>
      </trkpt>
      <trkpt lat="44.79982" lon="3.94467">
        <ele>1055.67</ele>
        <time>2025-06-15T14:31:10Z</time>
      </trkpt>
      <trkpt lat="44.79991" lon="3.94449">
        <ele>1057.59</ele>
        <time>2025-06-15T14:31:24Z</time>
      </trkpt>
      <trkpt lat="44.8" lon="3.94432">
        <ele>1056.63</ele>
        <time>2025-06-15T14:31:38Z</time>
      </trkpt>
      <trkpt lat="44.80013" lon="3.94407">
        <ele>1057.59</ele>
        <time>2025-06-15T14:31:53Z</time>
      </trkpt>
      <trkpt lat="44.80016" lon="3.94398">
        <ele>1058.55</ele>
        <time>2025-06-15T14:31:59Z</time>
      </trkpt>
      <trkpt lat="44.80019" lon="3.94391">
        <ele>1059.51</ele>
        <time>2025-06-15T14:32:04Z</time>
      </trkpt>
      <trkpt lat="44.80027" lon="3.94377">
        <ele>1061.43</ele>
        <time>2025-06-15T14:32:16Z</time>
      </trkpt>
      <trkpt lat="44.80028" lon="3.94374">
        <ele>1061.43</ele>
        <time>2025-06-15T14:32:18Z</time>
      </trkpt>
      <trkpt lat="44.80038" lon="3.94348">
        <ele>1062.39</ele>
        <time>2025-06-15T14:32:36Z</time>
      </trkpt>
      <trkpt lat="44.80045" lon="3.9433">
        <ele>1063.84</ele>
        <time>2025-06-15T14:32:49Z</time>
      </trkpt>
      <trkpt lat="44.80046" lon="3.94328">
        <ele>1064.32</ele>
        <time>2025-06-15T14:32:51Z</time>
      </trkpt>
      <trkpt lat="44.80064" lon="3.94309">
        <ele>1066.24</ele>
        <time>2025-06-15T14:33:10Z</time>
      </trkpt>
      <trkpt lat="44.80086" lon="3.94288">
        <ele>1065.76</ele>
        <time>2025-06-15T14:33:31Z</time>
      </trkpt>
      <trkpt lat="44.801" lon="3.94275">
        <ele>1063.84</ele>
        <time>2025-06-15T14:33:46Z</time>
      </trkpt>
      <trkpt lat="44.80116" lon="3.94264">
        <ele>1064.32</ele>
        <time>2025-06-15T14:34:01Z</time>
      </trkpt>
      <trkpt lat="44.80136" lon="3.94252">
        <ele>1066.72</ele>
        <time>2025-06-15T14:34:19Z</time>
      </trkpt>
      <trkpt lat="44.80148" lon="3.94239">
        <ele>1069.12</ele>
        <time>2025-06-15T14:34:35Z</time>
      </trkpt>
      <trkpt lat="44.80167" lon="3.94227">
        <ele>1071.05</ele>
        <time>2025-06-15T14:34:51Z</time>
      </trkpt>
      <trkpt lat="44.80189" lon="3.94215">
        <ele>1072.01</ele>
        <time>2025-06-15T14:35:08Z</time>
      </trkpt>
      <trkpt lat="44.80205" lon="3.94208">
        <ele>1068.16</ele>
        <time>2025-06-15T14:35:25Z</time>
      </trkpt>
      <trkpt lat="44.80221" lon="3.94196">
        <ele>1067.68</ele>
        <time>2025-06-15T14:35:41Z</time>
      </trkpt>
      <trkpt lat="44.80232" lon="3.94189">
        <ele>1069.12</ele>
        <time>2025-06-15T14:35:51Z</time>
      </trkpt>
      <trkpt lat="44.80236" lon="3.94182">
        <ele>1070.08</ele>
        <time>2025-06-15T14:35:55Z</time>
      </trkpt>
      <trkpt lat="44.80234" lon="3.94172">
        <ele>1073.93</ele>
        <time>2025-06-15T14:36:02Z</time>
      </trkpt>
      <trkpt lat="44.80224" lon="3.94155">
        <ele>1079.22</ele>
        <time>2025-06-15T14:36:18Z</time>
      </trkpt>
      <trkpt lat="44.80208" lon="3.94151">
        <ele>1080.18</ele>
        <time>2025-06-15T14:36:36Z</time>
      </trkpt>
      <trkpt lat="44.80191" lon="3.9415">
        <ele>1083.06</ele>
        <time>2025-06-15T14:36:52Z</time>
      </trkpt>
      <trkpt lat="44.80171" lon="3.9415">
        <ele>1088.83</ele>
        <time>2025-06-15T14:37:11Z</time>
      </trkpt>
      <trkpt lat="44.80156" lon="3.94157">
        <ele>1091.71</ele>
        <time>2025-06-15T14:37:26Z</time>
      </trkpt>
      <trkpt lat="44.80136" lon="3.94163">
        <ele>1096.04</ele>
        <time>2025-06-15T14:37:43Z</time>
      </trkpt>
      <trkpt lat="44.80117" lon="3.94151">
        <ele>1098.44</ele>
        <time>2025-06-15T14:38:03Z</time>
      </trkpt>
      <trkpt lat="44.80103" lon="3.94144">
        <ele>1101.81</ele>
        <time>2025-06-15T14:38:18Z</time>
      </trkpt>
      <trkpt lat="44.80087" lon="3.94137">
        <ele>1103.73</ele>
        <time>2025-06-15T14:38:34Z</time>
      </trkpt>
      <trkpt lat="44.80069" lon="3.94128">
        <ele>1106.13</ele>
        <time>2025-06-15T14:38:51Z</time>
      </trkpt>
      <trkpt lat="44.80049" lon="3.94119">
        <ele>1108.54</ele>
        <time>2025-06-15T14:39:12Z</time>
      </trkpt>
      <trkpt lat="44.80049" lon="3.9412">
        <ele>1112.86</ele>
        <time>2025-06-15T14:39:40Z</time>
      </trkpt>
      <trkpt lat="44.80053" lon="3.94117">
        <ele>1117.67</ele>
        <time>2025-06-15T14:40:03Z</time>
      </trkpt>
      <trkpt lat="44.80051" lon="3.94114">
        <ele>1118.63</ele>
        <time>2025-06-15T14:40:23Z</time>
      </trkpt>
      <trkpt lat="44.80045" lon="3.94109">
        <ele>1119.11</ele>
        <time>2025-06-15T14:40:41Z</time>
      </trkpt>
      <trkpt lat="44.80032" lon="3.94093">
        <ele>1121.52</ele>
        <time>2025-06-15T14:40:58Z</time>
      </trkpt>
      <trkpt lat="44.80025" lon="3.94088">
        <ele>1122</ele>
        <time>2025-06-15T14:41:04Z</time>
      </trkpt>
      <trkpt lat="44.80006" lon="3.94082">
        <ele>1118.15</ele>
        <time>2025-06-15T14:41:23Z</time>
      </trkpt>
      <trkpt lat="44.8" lon="3.94085">
        <ele>1121.03</ele>
        <time>2025-06-15T14:41:41Z</time>
      </trkpt>
      <trkpt lat="44.7999" lon="3.94085">
        <ele>1132.57</ele>
        <time>2025-06-15T14:41:57Z</time>
      </trkpt>
      <trkpt lat="44.79962" lon="3.94082">
        <ele>1140.26</ele>
        <time>2025-06-15T14:42:13Z</time>
      </trkpt>
      <trkpt lat="44.79939" lon="3.94082">
        <ele>1143.63</ele>
        <time>2025-06-15T14:42:32Z</time>
      </trkpt>
      <trkpt lat="44.79909" lon="3.94095">
        <ele>1143.14</ele>
        <time>2025-06-15T14:42:54Z</time>
      </trkpt>
      <trkpt lat="44.79907" lon="3.94102">
        <ele>1142.66</ele>
        <time>2025-06-15T14:43:00Z</time>
      </trkpt>
      <trkpt lat="44.79894" lon="3.94128">
        <ele>1141.22</ele>
        <time>2025-06-15T14:43:20Z</time>
      </trkpt>
      <trkpt lat="44.79883" lon="3.94145">
        <ele>1142.18</ele>
        <time>2025-06-15T14:43:35Z</time>
      </trkpt>
      <trkpt lat="44.79873" lon="3.94163">
        <ele>1143.63</ele>
        <time>2025-06-15T14:43:51Z</time>
      </trkpt>
      <trkpt lat="44.79868" lon="3.94172">
        <ele>1143.63</ele>
        <time>2025-06-15T14:44:05Z</time>
      </trkpt>
      <trkpt lat="44.79852" lon="3.9419">
        <ele>1144.59</ele>
        <time>2025-06-15T14:44:24Z</time>
      </trkpt>
      <trkpt lat="44.7985" lon="3.94191">
        <ele>1145.07</ele>
        <time>2025-06-15T14:44:26Z</time>
      </trkpt>
      <trkpt lat="44.79827" lon="3.94197">
        <ele>1146.03</ele>
        <time>2025-06-15T14:44:44Z</time>
      </trkpt>
      <trkpt lat="44.79803" lon="3.94197">
        <ele>1146.03</ele>
        <time>2025-06-15T14:45:05Z</time>
      </trkpt>
      <trkpt lat="44.79784" lon="3.94199">
        <ele>1147.47</ele>
        <time>2025-06-15T14:45:21Z</time>
      </trkpt>
      <trkpt lat="44.79763" lon="3.94206">
        <ele>1147.47</ele>
        <time>2025-06-15T14:45:38Z</time>
      </trkpt>
      <trkpt lat="44.79748" lon="3.94214">
        <ele>1148.43</ele>
        <time>2025-06-15T14:45:52Z</time>
      </trkpt>
      <trkpt lat="44.79739" lon="3.9422">
        <ele>1149.39</ele>
        <time>2025-06-15T14:46:01Z</time>
      </trkpt>
      <trkpt lat="44.79719" lon="3.94233">
        <ele>1150.84</ele>
        <time>2025-06-15T14:46:20Z</time>
      </trkpt>
      <trkpt lat="44.79698" lon="3.94243">
        <ele>1151.32</ele>
        <time>2025-06-15T14:46:38Z</time>
      </trkpt>
      <trkpt lat="44.79682" lon="3.94257">
        <ele>1152.28</ele>
        <time>2025-06-15T14:46:54Z</time>
      </trkpt>
      <trkpt lat="44.79681" lon="3.94259">
        <ele>1152.28</ele>
        <time>2025-06-15T14:46:56Z</time>
      </trkpt>
      <trkpt lat="44.79666" lon="3.94277">
        <ele>1154.2</ele>
        <time>2025-06-15T14:47:13Z</time>
      </trkpt>
      <trkpt lat="44.79665" lon="3.94278">
        <ele>1154.2</ele>
        <time>2025-06-15T14:47:14Z</time>
      </trkpt>
      <trkpt lat="44.7965" lon="3.94294">
        <ele>1155.64</ele>
        <time>2025-06-15T14:47:31Z</time>
      </trkpt>
      <trkpt lat="44.79634" lon="3.94316">
        <ele>1157.08</ele>
        <time>2025-06-15T14:47:50Z</time>
      </trkpt>
      <trkpt lat="44.79623" lon="3.94333">
        <ele>1158.53</ele>
        <time>2025-06-15T14:48:04Z</time>
      </trkpt>
      <trkpt lat="44.79611" lon="3.9435">
        <ele>1158.05</ele>
        <time>2025-06-15T14:48:18Z</time>
      </trkpt>
      <trkpt lat="44.79595" lon="3.94375">
        <ele>1158.53</ele>
        <time>2025-06-15T14:48:38Z</time>
      </trkpt>
      <trkpt lat="44.79577" lon="3.94397">
        <ele>1159.49</ele>
        <time>2025-06-15T14:48:57Z</time>
      </trkpt>
      <trkpt lat="44.7956" lon="3.94418">
        <ele>1159.01</ele>
        <time>2025-06-15T14:49:15Z</time>
      </trkpt>
      <trkpt lat="44.79542" lon="3.94439">
        <ele>1160.45</ele>
        <time>2025-06-15T14:49:34Z</time>
      </trkpt>
      <trkpt lat="44.79524" lon="3.94458">
        <ele>1161.41</ele>
        <time>2025-06-15T14:49:52Z</time>
      </trkpt>
      <trkpt lat="44.79509" lon="3.94476">
        <ele>1161.89</ele>
        <time>2025-06-15T14:50:08Z</time>
      </trkpt>
      <trkpt lat="44.79494" lon="3.94497">
        <ele>1161.89</ele>
        <time>2025-06-15T14:50:26Z</time>
      </trkpt>
      <trkpt lat="44.79474" lon="3.94515">
        <ele>1161.41</ele>
        <time>2025-06-15T14:50:40Z</time>
      </trkpt>
      <trkpt lat="44.79454" lon="3.94532">
        <ele>1160.45</ele>
        <time>2025-06-15T14:50:55Z</time>
      </trkpt>
      <trkpt lat="44.79416" lon="3.94572">
        <ele>1162.85</ele>
        <time>2025-06-15T14:51:07Z</time>
      </trkpt>
      <trkpt lat="44.79359" lon="3.94635">
        <ele>1163.81</ele>
        <time>2025-06-15T14:51:22Z</time>
      </trkpt>
      <trkpt lat="44.79284" lon="3.94699">
        <ele>1164.77</ele>
        <time>2025-06-15T14:51:38Z</time>
      </trkpt>
      <trkpt lat="44.79236" lon="3.94746">
        <ele>1168.14</ele>
        <time>2025-06-15T14:51:50Z</time>
      </trkpt>
      <trkpt lat="44.79216" lon="3.94766">
        <ele>1168.62</ele>
        <time>2025-06-15T14:51:56Z</time>
      </trkpt>
      <trkpt lat="44.79159" lon="3.94817">
        <ele>1170.06</ele>
        <time>2025-06-15T14:52:09Z</time>
      </trkpt>
      <trkpt lat="44.79098" lon="3.94876">
        <ele>1173.91</ele>
        <time>2025-06-15T14:52:23Z</time>
      </trkpt>
      <trkpt lat="44.79071" lon="3.94891">
        <ele>1176.79</ele>
        <time>2025-06-15T14:52:34Z</time>
      </trkpt>
      <trkpt lat="44.79046" lon="3.94914">
        <ele>1176.79</ele>
        <time>2025-06-15T14:52:46Z</time>
      </trkpt>
      <trkpt lat="44.79029" lon="3.94933">
        <ele>1178.23</ele>
        <time>2025-06-15T14:53:01Z</time>
      </trkpt>
      <trkpt lat="44.79012" lon="3.94953">
        <ele>1180.64</ele>
        <time>2025-06-15T14:53:15Z</time>
      </trkpt>
      <trkpt lat="44.78995" lon="3.94972">
        <ele>1181.12</ele>
        <time>2025-06-15T14:53:27Z</time>
      </trkpt>
      <trkpt lat="44.78978" lon="3.94992">
        <ele>1182.08</ele>
        <time>2025-06-15T14:53:40Z</time>
      </trkpt>
      <trkpt lat="44.7896" lon="3.95016">
        <ele>1184</ele>
        <time>2025-06-15T14:53:54Z</time>
      </trkpt>
      <trkpt lat="44.78947" lon="3.9503">
        <ele>1184</ele>
        <time>2025-06-15T14:54:05Z</time>
      </trkpt>
      <trkpt lat="44.78937" lon="3.95042">
        <ele>1183.52</ele>
        <time>2025-06-15T14:54:13Z</time>
      </trkpt>
      <trkpt lat="44.78917" lon="3.95065">
        <ele>1184.48</ele>
        <time>2025-06-15T14:54:32Z</time>
      </trkpt>
      <trkpt lat="44.78899" lon="3.95084">
        <ele>1183.04</ele>
        <time>2025-06-15T14:54:48Z</time>
      </trkpt>
      <trkpt lat="44.78873" lon="3.95106">
        <ele>1182.56</ele>
        <time>2025-06-15T14:55:11Z</time>
      </trkpt>
      <trkpt lat="44.78856" lon="3.95085">
        <ele>1182.08</ele>
        <time>2025-06-15T14:55:25Z</time>
      </trkpt>
      <trkpt lat="44.78845" lon="3.95057">
        <ele>1181.12</ele>
        <time>2025-06-15T14:55:40Z</time>
      </trkpt>
      <trkpt lat="44.78828" lon="3.95023">
        <ele>1179.67</ele>
        <time>2025-06-15T14:56:00Z</time>
      </trkpt>
      <trkpt lat="44.78808" lon="3.94997">
        <ele>1180.64</ele>
        <time>2025-06-15T14:56:19Z</time>
      </trkpt>
      <trkpt lat="44.78782" lon="3.94991">
        <ele>1181.6</ele>
        <time>2025-06-15T14:56:37Z</time>
      </trkpt>
      <trkpt lat="44.78755" lon="3.94991">
        <ele>1181.6</ele>
        <time>2025-06-15T14:56:55Z</time>
      </trkpt>
      <trkpt lat="44.78729" lon="3.94991">
        <ele>1180.16</ele>
        <time>2025-06-15T14:57:12Z</time>
      </trkpt>
      <trkpt lat="44.78693" lon="3.94988">
        <ele>1179.67</ele>
        <time>2025-06-15T14:57:35Z</time>
      </trkpt>
      <trkpt lat="44.7866" lon="3.94988">
        <ele>1178.23</ele>
        <time>2025-06-15T14:57:57Z</time>
      </trkpt>
      <trkpt lat="44.78636" lon="3.94988">
        <ele>1175.83</ele>
        <time>2025-06-15T14:58:15Z</time>
      </trkpt>
      <trkpt lat="44.7861" lon="3.94994">
        <ele>1175.35</ele>
        <time>2025-06-15T14:58:32Z</time>
      </trkpt>
      <trkpt lat="44.78586" lon="3.95001">
        <ele>1174.87</ele>
        <time>2025-06-15T14:58:49Z</time>
      </trkpt>
      <trkpt lat="44.78552" lon="3.95009">
        <ele>1173.43</ele>
        <time>2025-06-15T14:59:11Z</time>
      </trkpt>
      <trkpt lat="44.78523" lon="3.95028">
        <ele>1172.95</ele>
        <time>2025-06-15T14:59:31Z</time>
      </trkpt>
      <trkpt lat="44.78496" lon="3.95043">
        <ele>1172.95</ele>
        <time>2025-06-15T14:59:49Z</time>
      </trkpt>
      <trkpt lat="44.78474" lon="3.95067">
        <ele>1173.91</ele>
        <time>2025-06-15T15:00:09Z</time>
      </trkpt>
      <trkpt lat="44.78457" lon="3.95088">
        <ele>1172.95</ele>
        <time>2025-06-15T15:00:23Z</time>
      </trkpt>
      <trkpt lat="44.78432" lon="3.951">
        <ele>1175.83</ele>
        <time>2025-06-15T15:00:42Z</time>
      </trkpt>
      <trkpt lat="44.78407" lon="3.951">
        <ele>1177.75</ele>
        <time>2025-06-15T15:00:58Z</time>
      </trkpt>
      <trkpt lat="44.78376" lon="3.95101">
        <ele>1177.27</ele>
        <time>2025-06-15T15:01:20Z</time>
      </trkpt>
      <trkpt lat="44.78352" lon="3.95104">
        <ele>1178.23</ele>
        <time>2025-06-15T15:01:37Z</time>
      </trkpt>
      <trkpt lat="44.78328" lon="3.9511">
        <ele>1178.71</ele>
        <time>2025-06-15T15:01:54Z</time>
      </trkpt>
      <trkpt lat="44.78308" lon="3.95107">
        <ele>1180.64</ele>
        <time>2025-06-15T15:02:09Z</time>
      </trkpt>
      <trkpt lat="44.78285" lon="3.95091">
        <ele>1180.16</ele>
        <time>2025-06-15T15:02:26Z</time>
      </trkpt>
      <trkpt lat="44.78263" lon="3.95071">
        <ele>1179.67</ele>
        <time>2025-06-15T15:02:43Z</time>
      </trkpt>
      <trkpt lat="44.78244" lon="3.95053">
        <ele>1178.23</ele>
        <time>2025-06-15T15:02:59Z</time>
      </trkpt>
      <trkpt lat="44.7823" lon="3.95034">
        <ele>1177.75</ele>
        <time>2025-06-15T15:03:13Z</time>
      </trkpt>
      <trkpt lat="44.78225" lon="3.95003">
        <ele>1177.75</ele>
        <time>2025-06-15T15:03:29Z</time>
      </trkpt>
      <trkpt lat="44.78225" lon="3.95001">
        <ele>1177.27</ele>
        <time>2025-06-15T15:03:30Z</time>
      </trkpt>
      <trkpt lat="44.78225" lon="3.94999">
        <ele>1177.27</ele>
        <time>2025-06-15T15:03:31Z</time>
      </trkpt>
      <trkpt lat="44.78224" lon="3.94997">
        <ele>1177.27</ele>
        <time>2025-06-15T15:03:32Z</time>
      </trkpt>
      <trkpt lat="44.78207" lon="3.94978">
        <ele>1176.79</ele>
        <time>2025-06-15T15:03:51Z</time>
      </trkpt>
      <trkpt lat="44.78203" lon="3.94973">
        <ele>1176.31</ele>
        <time>2025-06-15T15:03:55Z</time>
      </trkpt>
      <trkpt lat="44.78198" lon="3.94963">
        <ele>1176.79</ele>
        <time>2025-06-15T15:04:10Z</time>
      </trkpt>
      <trkpt lat="44.78195" lon="3.94961">
        <ele>1176.31</ele>
        <time>2025-06-15T15:04:33Z</time>
      </trkpt>
      <trkpt lat="44.78196" lon="3.94962">
        <ele>1173.43</ele>
        <time>2025-06-15T15:05:04Z</time>
      </trkpt>
      <trkpt lat="44.78197" lon="3.94964">
        <ele>1174.87</ele>
        <time>2025-06-15T15:05:34Z</time>
      </trkpt>
      <trkpt lat="44.78198" lon="3.94964">
        <ele>1178.23</ele>
        <time>2025-06-15T15:05:56Z</time>
      </trkpt>
      <trkpt lat="44.78194" lon="3.94964">
        <ele>1178.71</ele>
        <time>2025-06-15T15:06:09Z</time>
      </trkpt>
      <trkpt lat="44.78191" lon="3.94962">
        <ele>1178.23</ele>
        <time>2025-06-15T15:06:13Z</time>
      </trkpt>
      <trkpt lat="44.78175" lon="3.94952">
        <ele>1176.31</ele>
        <time>2025-06-15T15:06:28Z</time>
      </trkpt>
      <trkpt lat="44.78179" lon="3.94952">
        <ele>1176.79</ele>
        <time>2025-06-15T15:06:36Z</time>
      </trkpt>
      <trkpt lat="44.78181" lon="3.94952">
        <ele>1176.79</ele>
        <time>2025-06-15T15:06:37Z</time>
      </trkpt>
      <trkpt lat="44.78186" lon="3.94951">
        <ele>1177.27</ele>
        <time>2025-06-15T15:06:42Z</time>
      </trkpt>
      <trkpt lat="44.78187" lon="3.9495">
        <ele>1177.75</ele>
        <time>2025-06-15T15:06:43Z</time>
      </trkpt>
      <trkpt lat="44.78192" lon="3.94944">
        <ele>1178.23</ele>
        <time>2025-06-15T15:06:49Z</time>
      </trkpt>
      <trkpt lat="44.78193" lon="3.94944">
        <ele>1178.71</ele>
        <time>2025-06-15T15:06:50Z</time>
      </trkpt>
      <trkpt lat="44.78209" lon="3.94944">
        <ele>1183.04</ele>
        <time>2025-06-15T15:07:04Z</time>
      </trkpt>
      <trkpt lat="44.7821" lon="3.94943">
        <ele>1183.04</ele>
        <time>2025-06-15T15:07:05Z</time>
      </trkpt>
      <trkpt lat="44.78211" lon="3.94942">
        <ele>1183.52</ele>
        <time>2025-06-15T15:07:06Z</time>
      </trkpt>
      <trkpt lat="44.78212" lon="3.94942">
        <ele>1183.52</ele>
        <time>2025-06-15T15:07:07Z</time>
      </trkpt>
      <trkpt lat="44.78213" lon="3.94941">
        <ele>1183.52</ele>
        <time>2025-06-15T15:07:08Z</time>
      </trkpt>
      <trkpt lat="44.78215" lon="3.9494">
        <ele>1183.52</ele>
        <time>2025-06-15T15:07:09Z</time>
      </trkpt>
      <trkpt lat="44.78232" lon="3.94915">
        <ele>1183.52</ele>
        <time>2025-06-15T15:07:29Z</time>
      </trkpt>
      <trkpt lat="44.78231" lon="3.94886">
        <ele>1184</ele>
        <time>2025-06-15T15:07:45Z</time>
      </trkpt>
      <trkpt lat="44.78231" lon="3.94877">
        <ele>1183.52</ele>
        <time>2025-06-15T15:07:59Z</time>
      </trkpt>
      <trkpt lat="44.78231" lon="3.9488">
        <ele>1183.52</ele>
        <time>2025-06-15T15:08:01Z</time>
      </trkpt>
      <trkpt lat="44.78231" lon="3.94881">
        <ele>1183.52</ele>
        <time>2025-06-15T15:08:02Z</time>
      </trkpt>
      <trkpt lat="44.78231" lon="3.94883">
        <ele>1183.52</ele>
        <time>2025-06-15T15:08:03Z</time>
      </trkpt>
      <trkpt lat="44.78232" lon="3.94911">
        <ele>1182.08</ele>
        <time>2025-06-15T15:08:20Z</time>
      </trkpt>
      <trkpt lat="44.78231" lon="3.94913">
        <ele>1181.6</ele>
        <time>2025-06-15T15:08:21Z</time>
      </trkpt>
      <trkpt lat="44.78231" lon="3.94915">
        <ele>1181.6</ele>
        <time>2025-06-15T15:08:22Z</time>
      </trkpt>
      <trkpt lat="44.78217" lon="3.9494">
        <ele>1178.71</ele>
        <time>2025-06-15T15:08:40Z</time>
      </trkpt>
      <trkpt lat="44.78199" lon="3.94944">
        <ele>1178.71</ele>
        <time>2025-06-15T15:08:57Z</time>
      </trkpt>
      <trkpt lat="44.78192" lon="3.94926">
        <ele>1179.19</ele>
        <time>2025-06-15T15:09:10Z</time>
      </trkpt>
      <trkpt lat="44.78191" lon="3.94924">
        <ele>1179.19</ele>
        <time>2025-06-15T15:09:11Z</time>
      </trkpt>
      <trkpt lat="44.7819" lon="3.94923">
        <ele>1179.19</ele>
        <time>2025-06-15T15:09:12Z</time>
      </trkpt>
      <trkpt lat="44.7819" lon="3.94921">
        <ele>1179.19</ele>
        <time>2025-06-15T15:09:13Z</time>
      </trkpt>
      <trkpt lat="44.78189" lon="3.9492">
        <ele>1179.19</ele>
        <time>2025-06-15T15:09:14Z</time>
      </trkpt>
      <trkpt lat="44.78188" lon="3.94918">
        <ele>1179.19</ele>
        <time>2025-06-15T15:09:15Z</time>
      </trkpt>
      <trkpt lat="44.78188" lon="3.94917">
        <ele>1178.71</ele>
        <time>2025-06-15T15:09:16Z</time>
      </trkpt>
      <trkpt lat="44.78187" lon="3.94915">
        <ele>1178.71</ele>
        <time>2025-06-15T15:09:17Z</time>
      </trkpt>
      <trkpt lat="44.78183" lon="3.94883">
        <ele>1178.23</ele>
        <time>2025-06-15T15:09:36Z</time>
      </trkpt>
      <trkpt lat="44.78183" lon="3.94856">
        <ele>1176.79</ele>
        <time>2025-06-15T15:09:51Z</time>
      </trkpt>
      <trkpt lat="44.78182" lon="3.94828">
        <ele>1175.35</ele>
        <time>2025-06-15T15:10:07Z</time>
      </trkpt>
      <trkpt lat="44.78179" lon="3.9479">
        <ele>1174.39</ele>
        <time>2025-06-15T15:10:25Z</time>
      </trkpt>
      <trkpt lat="44.78179" lon="3.94789">
        <ele>1174.87</ele>
        <time>2025-06-15T15:10:26Z</time>
      </trkpt>
      <trkpt lat="44.78179" lon="3.94787">
        <ele>1174.87</ele>
        <time>2025-06-15T15:10:27Z</time>
      </trkpt>
      <trkpt lat="44.78179" lon="3.94785">
        <ele>1174.87</ele>
        <time>2025-06-15T15:10:28Z</time>
      </trkpt>
      <trkpt lat="44.78178" lon="3.94783">
        <ele>1174.87</ele>
        <time>2025-06-15T15:10:29Z</time>
      </trkpt>
      <trkpt lat="44.78178" lon="3.94781">
        <ele>1174.87</ele>
        <time>2025-06-15T15:10:30Z</time>
      </trkpt>
      <trkpt lat="44.78178" lon="3.94779">
        <ele>1174.39</ele>
        <time>2025-06-15T15:10:31Z</time>
      </trkpt>
      <trkpt lat="44.78179" lon="3.94777">
        <ele>1174.39</ele>
        <time>2025-06-15T15:10:32Z</time>
      </trkpt>
      <trkpt lat="44.78179" lon="3.94775">
        <ele>1174.39</ele>
        <time>2025-06-15T15:10:33Z</time>
      </trkpt>
      <trkpt lat="44.78175" lon="3.94755">
        <ele>1174.87</ele>
        <time>2025-06-15T15:10:47Z</time>
      </trkpt>
      <trkpt lat="44.78173" lon="3.94752">
        <ele>1175.35</ele>
        <time>2025-06-15T15:11:00Z</time>
      </trkpt>
      <trkpt lat="44.78167" lon="3.94721">
        <ele>1175.35</ele>
        <time>2025-06-15T15:11:16Z</time>
      </trkpt>
      <trkpt lat="44.78158" lon="3.9469">
        <ele>1171.98</ele>
        <time>2025-06-15T15:11:33Z</time>
      </trkpt>
      <trkpt lat="44.78149" lon="3.94656">
        <ele>1168.14</ele>
        <time>2025-06-15T15:11:50Z</time>
      </trkpt>
      <trkpt lat="44.78147" lon="3.94644">
        <ele>1167.18</ele>
        <time>2025-06-15T15:11:56Z</time>
      </trkpt>
      <trkpt lat="44.78131" lon="3.94629">
        <ele>1164.77</ele>
        <time>2025-06-15T15:12:12Z</time>
      </trkpt>
      <trkpt lat="44.78115" lon="3.94633">
        <ele>1167.66</ele>
        <time>2025-06-15T15:12:25Z</time>
      </trkpt>
      <trkpt lat="44.78096" lon="3.94625">
        <ele>1168.14</ele>
        <time>2025-06-15T15:12:39Z</time>
      </trkpt>
      <trkpt lat="44.78074" lon="3.94623">
        <ele>1162.85</ele>
        <time>2025-06-15T15:12:57Z</time>
      </trkpt>
      <trkpt lat="44.78062" lon="3.9462">
        <ele>1160.93</ele>
        <time>2025-06-15T15:13:06Z</time>
      </trkpt>
      <trkpt lat="44.78062" lon="3.94618">
        <ele>1160.93</ele>
        <time>2025-06-15T15:13:07Z</time>
      </trkpt>
      <trkpt lat="44.78062" lon="3.94615">
        <ele>1160.93</ele>
        <time>2025-06-15T15:13:08Z</time>
      </trkpt>
      <trkpt lat="44.78062" lon="3.94613">
        <ele>1160.93</ele>
        <time>2025-06-15T15:13:09Z</time>
      </trkpt>
      <trkpt lat="44.78062" lon="3.94611">
        <ele>1160.45</ele>
        <time>2025-06-15T15:13:10Z</time>
      </trkpt>
      <trkpt lat="44.78068" lon="3.946">
        <ele>1157.56</ele>
        <time>2025-06-15T15:13:19Z</time>
      </trkpt>
      <trkpt lat="44.7807" lon="3.94598">
        <ele>1155.64</ele>
        <time>2025-06-15T15:13:21Z</time>
      </trkpt>
      <trkpt lat="44.78071" lon="3.94597">
        <ele>1155.16</ele>
        <time>2025-06-15T15:13:22Z</time>
      </trkpt>
      <trkpt lat="44.78076" lon="3.94593">
        <ele>1151.8</ele>
        <time>2025-06-15T15:13:26Z</time>
      </trkpt>
      <trkpt lat="44.78077" lon="3.94593">
        <ele>1151.32</ele>
        <time>2025-06-15T15:13:27Z</time>
      </trkpt>
      <trkpt lat="44.78082" lon="3.94587">
        <ele>1146.99</ele>
        <time>2025-06-15T15:13:40Z</time>
      </trkpt>
      <trkpt lat="44.78087" lon="3.94586">
        <ele>1146.99</ele>
        <time>2025-06-15T15:13:45Z</time>
      </trkpt>
      <trkpt lat="44.78095" lon="3.94581">
        <ele>1146.99</ele>
        <time>2025-06-15T15:13:56Z</time>
      </trkpt>
      <trkpt lat="44.78097" lon="3.9458">
        <ele>1146.51</ele>
        <time>2025-06-15T15:13:57Z</time>
      </trkpt>
      <trkpt lat="44.78098" lon="3.9458">
        <ele>1146.51</ele>
        <time>2025-06-15T15:13:58Z</time>
      </trkpt>
      <trkpt lat="44.78111" lon="3.94574">
        <ele>1147.95</ele>
        <time>2025-06-15T15:14:10Z</time>
      </trkpt>
      <trkpt lat="44.78116" lon="3.94572">
        <ele>1147.95</ele>
        <time>2025-06-15T15:14:14Z</time>
      </trkpt>
      <trkpt lat="44.78125" lon="3.9457">
        <ele>1146.51</ele>
        <time>2025-06-15T15:14:21Z</time>
      </trkpt>
      <trkpt lat="44.78127" lon="3.94569">
        <ele>1146.99</ele>
        <time>2025-06-15T15:14:22Z</time>
      </trkpt>
      <trkpt lat="44.7814" lon="3.94564">
        <ele>1146.99</ele>
        <time>2025-06-15T15:14:37Z</time>
      </trkpt>
      <trkpt lat="44.78153" lon="3.94555">
        <ele>1145.55</ele>
        <time>2025-06-15T15:14:52Z</time>
      </trkpt>
      <trkpt lat="44.78156" lon="3.9455">
        <ele>1146.03</ele>
        <time>2025-06-15T15:14:57Z</time>
      </trkpt>
      <trkpt lat="44.78158" lon="3.9455">
        <ele>1146.51</ele>
        <time>2025-06-15T15:14:58Z</time>
      </trkpt>
      <trkpt lat="44.78165" lon="3.94543">
        <ele>1146.51</ele>
        <time>2025-06-15T15:15:09Z</time>
      </trkpt>
      <trkpt lat="44.78173" lon="3.94534">
        <ele>1141.22</ele>
        <time>2025-06-15T15:15:24Z</time>
      </trkpt>
      <trkpt lat="44.78168" lon="3.94526">
        <ele>1140.74</ele>
        <time>2025-06-15T15:15:38Z</time>
      </trkpt>
      <trkpt lat="44.78168" lon="3.94525">
        <ele>1141.22</ele>
        <time>2025-06-15T15:15:39Z</time>
      </trkpt>
      <trkpt lat="44.78171" lon="3.94514">
        <ele>1137.86</ele>
        <time>2025-06-15T15:15:46Z</time>
      </trkpt>
      <trkpt lat="44.78173" lon="3.94513">
        <ele>1136.9</ele>
        <time>2025-06-15T15:15:47Z</time>
      </trkpt>
      <trkpt lat="44.78174" lon="3.94512">
        <ele>1135.94</ele>
        <time>2025-06-15T15:15:48Z</time>
      </trkpt>
      <trkpt lat="44.78176" lon="3.9451">
        <ele>1134.97</ele>
        <time>2025-06-15T15:15:49Z</time>
      </trkpt>
      <trkpt lat="44.78182" lon="3.94505">
        <ele>1131.13</ele>
        <time>2025-06-15T15:15:54Z</time>
      </trkpt>
      <trkpt lat="44.78189" lon="3.94495">
        <ele>1126.8</ele>
        <time>2025-06-15T15:16:02Z</time>
      </trkpt>
      <trkpt lat="44.78189" lon="3.94493">
        <ele>1126.32</ele>
        <time>2025-06-15T15:16:04Z</time>
      </trkpt>
      <trkpt lat="44.78186" lon="3.94491">
        <ele>1126.32</ele>
        <time>2025-06-15T15:16:09Z</time>
      </trkpt>
      <trkpt lat="44.78182" lon="3.9449">
        <ele>1127.28</ele>
        <time>2025-06-15T15:16:23Z</time>
      </trkpt>
      <trkpt lat="44.78184" lon="3.94493">
        <ele>1128.24</ele>
        <time>2025-06-15T15:16:45Z</time>
      </trkpt>
      <trkpt lat="44.78172" lon="3.94489">
        <ele>1131.13</ele>
        <time>2025-06-15T15:17:00Z</time>
      </trkpt>
      <trkpt lat="44.78166" lon="3.94493">
        <ele>1139.3</ele>
        <time>2025-06-15T15:17:23Z</time>
      </trkpt>
      <trkpt lat="44.78165" lon="3.94495">
        <ele>1142.66</ele>
        <time>2025-06-15T15:17:54Z</time>
      </trkpt>
      <trkpt lat="44.78165" lon="3.94497">
        <ele>1140.74</ele>
        <time>2025-06-15T15:18:21Z</time>
      </trkpt>
      <trkpt lat="44.78165" lon="3.94502">
        <ele>1145.07</ele>
        <time>2025-06-15T15:18:47Z</time>
      </trkpt>
      <trkpt lat="44.78164" lon="3.94499">
        <ele>1145.55</ele>
        <time>2025-06-15T15:19:23Z</time>
      </trkpt>
      <trkpt lat="44.78164" lon="3.94498">
        <ele>1144.11</ele>
        <time>2025-06-15T15:19:48Z</time>
      </trkpt>
      <trkpt lat="44.78161" lon="3.94505">
        <ele>1150.35</ele>
        <time>2025-06-15T15:20:14Z</time>
      </trkpt>
      <trkpt lat="44.78162" lon="3.94493">
        <ele>1150.35</ele>
        <time>2025-06-15T15:20:43Z</time>
      </trkpt>
      <trkpt lat="44.78163" lon="3.94479">
        <ele>1136.9</ele>
        <time>2025-06-15T15:21:14Z</time>
      </trkpt>
      <trkpt lat="44.78165" lon="3.94473">
        <ele>1130.65</ele>
        <time>2025-06-15T15:21:44Z</time>
      </trkpt>
      <trkpt lat="44.78174" lon="3.94468">
        <ele>1122.96</ele>
        <time>2025-06-15T15:21:58Z</time>
      </trkpt>
      <trkpt lat="44.78174" lon="3.94471">
        <ele>1121.52</ele>
        <time>2025-06-15T15:22:20Z</time>
      </trkpt>
      <trkpt lat="44.78173" lon="3.94471">
        <ele>1121.52</ele>
        <time>2025-06-15T15:22:47Z</time>
      </trkpt>
      <trkpt lat="44.78171" lon="3.94472">
        <ele>1124.4</ele>
        <time>2025-06-15T15:23:16Z</time>
      </trkpt>
      <trkpt lat="44.78172" lon="3.94474">
        <ele>1122.48</ele>
        <time>2025-06-15T15:23:42Z</time>
      </trkpt>
      <trkpt lat="44.78174" lon="3.94467">
        <ele>1119.59</ele>
        <time>2025-06-15T15:24:01Z</time>
      </trkpt>
      <trkpt lat="44.78173" lon="3.94468">
        <ele>1118.63</ele>
        <time>2025-06-15T15:24:19Z</time>
      </trkpt>
      <trkpt lat="44.78172" lon="3.94466">
        <ele>1119.11</ele>
        <time>2025-06-15T15:24:45Z</time>
      </trkpt>
      <trkpt lat="44.78171" lon="3.94469">
        <ele>1119.11</ele>
        <time>2025-06-15T15:25:06Z</time>
      </trkpt>
      <trkpt lat="44.78178" lon="3.94473">
        <ele>1120.55</ele>
        <time>2025-06-15T15:25:33Z</time>
      </trkpt>
      <trkpt lat="44.78182" lon="3.94475">
        <ele>1121.52</ele>
        <time>2025-06-15T15:26:01Z</time>
      </trkpt>
      <trkpt lat="44.78188" lon="3.94473">
        <ele>1123.92</ele>
        <time>2025-06-15T15:26:29Z</time>
      </trkpt>
      <trkpt lat="44.78183" lon="3.94472">
        <ele>1121.52</ele>
        <time>2025-06-15T15:26:59Z</time>
      </trkpt>
      <trkpt lat="44.78177" lon="3.94474">
        <ele>1122.48</ele>
        <time>2025-06-15T15:27:24Z</time>
      </trkpt>
      <trkpt lat="44.78167" lon="3.94468">
        <ele>1122.48</ele>
        <time>2025-06-15T15:27:31Z</time>
      </trkpt>
      <trkpt lat="44.7816" lon="3.94454">
        <ele>1124.88</ele>
        <time>2025-06-15T15:27:43Z</time>
      </trkpt>
      <trkpt lat="44.7816" lon="3.9443">
        <ele>1130.65</ele>
        <time>2025-06-15T15:27:57Z</time>
      </trkpt>
      <trkpt lat="44.78166" lon="3.94408">
        <ele>1137.38</ele>
        <time>2025-06-15T15:28:13Z</time>
      </trkpt>
      <trkpt lat="44.7817" lon="3.94398">
        <ele>1138.34</ele>
        <time>2025-06-15T15:28:37Z</time>
      </trkpt>
      <trkpt lat="44.78173" lon="3.94378">
        <ele>1137.86</ele>
        <time>2025-06-15T15:28:49Z</time>
      </trkpt>
      <trkpt lat="44.7819" lon="3.94341">
        <ele>1134.49</ele>
        <time>2025-06-15T15:29:08Z</time>
      </trkpt>
      <trkpt lat="44.78204" lon="3.9431">
        <ele>1130.65</ele>
        <time>2025-06-15T15:29:31Z</time>
      </trkpt>
      <trkpt lat="44.78218" lon="3.94285">
        <ele>1127.28</ele>
        <time>2025-06-15T15:29:50Z</time>
      </trkpt>
      <trkpt lat="44.78237" lon="3.94249">
        <ele>1125.84</ele>
        <time>2025-06-15T15:30:15Z</time>
      </trkpt>
      <trkpt lat="44.78246" lon="3.94221">
        <ele>1125.84</ele>
        <time>2025-06-15T15:30:35Z</time>
      </trkpt>
      <trkpt lat="44.78261" lon="3.94184">
        <ele>1123.44</ele>
        <time>2025-06-15T15:30:56Z</time>
      </trkpt>
      <trkpt lat="44.78282" lon="3.94134">
        <ele>1123.92</ele>
        <time>2025-06-15T15:31:21Z</time>
      </trkpt>
      <trkpt lat="44.78275" lon="3.94118">
        <ele>1126.8</ele>
        <time>2025-06-15T15:31:41Z</time>
      </trkpt>
      <trkpt lat="44.78254" lon="3.94134">
        <ele>1128.73</ele>
        <time>2025-06-15T15:32:02Z</time>
      </trkpt>
      <trkpt lat="44.78237" lon="3.94159">
        <ele>1130.17</ele>
        <time>2025-06-15T15:32:24Z</time>
      </trkpt>
      <trkpt lat="44.78222" lon="3.9418">
        <ele>1127.28</ele>
        <time>2025-06-15T15:32:44Z</time>
      </trkpt>
      <trkpt lat="44.78199" lon="3.94192">
        <ele>1129.21</ele>
        <time>2025-06-15T15:33:07Z</time>
      </trkpt>
      <trkpt lat="44.78176" lon="3.94199">
        <ele>1135.45</ele>
        <time>2025-06-15T15:33:29Z</time>
      </trkpt>
      <trkpt lat="44.78162" lon="3.94194">
        <ele>1138.34</ele>
        <time>2025-06-15T15:33:46Z</time>
      </trkpt>
      <trkpt lat="44.78147" lon="3.94183">
        <ele>1140.26</ele>
        <time>2025-06-15T15:34:07Z</time>
      </trkpt>
      <trkpt lat="44.78142" lon="3.94157">
        <ele>1143.63</ele>
        <time>2025-06-15T15:34:25Z</time>
      </trkpt>
      <trkpt lat="44.7812" lon="3.94148">
        <ele>1152.76</ele>
        <time>2025-06-15T15:34:45Z</time>
      </trkpt>
      <trkpt lat="44.78097" lon="3.94148">
        <ele>1156.6</ele>
        <time>2025-06-15T15:35:08Z</time>
      </trkpt>
      <trkpt lat="44.78075" lon="3.94147">
        <ele>1157.08</ele>
        <time>2025-06-15T15:35:32Z</time>
      </trkpt>
      <trkpt lat="44.78055" lon="3.94146">
        <ele>1154.68</ele>
        <time>2025-06-15T15:35:53Z</time>
      </trkpt>
      <trkpt lat="44.78032" lon="3.94128">
        <ele>1154.68</ele>
        <time>2025-06-15T15:36:17Z</time>
      </trkpt>
      <trkpt lat="44.78008" lon="3.94116">
        <ele>1162.37</ele>
        <time>2025-06-15T15:36:36Z</time>
      </trkpt>
      <trkpt lat="44.77985" lon="3.94119">
        <ele>1166.7</ele>
        <time>2025-06-15T15:36:58Z</time>
      </trkpt>
      <trkpt lat="44.77964" lon="3.94119">
        <ele>1167.18</ele>
        <time>2025-06-15T15:37:19Z</time>
      </trkpt>
      <trkpt lat="44.77936" lon="3.94133">
        <ele>1172.95</ele>
        <time>2025-06-15T15:37:42Z</time>
      </trkpt>
      <trkpt lat="44.77913" lon="3.94141">
        <ele>1175.35</ele>
        <time>2025-06-15T15:38:03Z</time>
      </trkpt>
      <trkpt lat="44.77907" lon="3.9414">
        <ele>1174.87</ele>
        <time>2025-06-15T15:38:08Z</time>
      </trkpt>
      <trkpt lat="44.77893" lon="3.94133">
        <ele>1174.87</ele>
        <time>2025-06-15T15:38:22Z</time>
      </trkpt>
      <trkpt lat="44.77844" lon="3.94117">
        <ele>1176.31</ele>
        <time>2025-06-15T15:38:35Z</time>
      </trkpt>
      <trkpt lat="44.77811" lon="3.9411">
        <ele>1177.75</ele>
        <time>2025-06-15T15:38:45Z</time>
      </trkpt>
      <trkpt lat="44.77787" lon="3.94114">
        <ele>1180.16</ele>
        <time>2025-06-15T15:38:59Z</time>
      </trkpt>
      <trkpt lat="44.77768" lon="3.94126">
        <ele>1184.48</ele>
        <time>2025-06-15T15:39:11Z</time>
      </trkpt>
      <trkpt lat="44.77745" lon="3.94127">
        <ele>1188.33</ele>
        <time>2025-06-15T15:39:25Z</time>
      </trkpt>
      <trkpt lat="44.77724" lon="3.94119">
        <ele>1187.85</ele>
        <time>2025-06-15T15:39:44Z</time>
      </trkpt>
      <trkpt lat="44.77706" lon="3.94116">
        <ele>1188.33</ele>
        <time>2025-06-15T15:39:59Z</time>
      </trkpt>
      <trkpt lat="44.77659" lon="3.94122">
        <ele>1189.29</ele>
        <time>2025-06-15T15:40:10Z</time>
      </trkpt>
      <trkpt lat="44.77564" lon="3.94145">
        <ele>1192.65</ele>
        <time>2025-06-15T15:40:27Z</time>
      </trkpt>
      <trkpt lat="44.77498" lon="3.94179">
        <ele>1195.54</ele>
        <time>2025-06-15T15:40:42Z</time>
      </trkpt>
      <trkpt lat="44.77481" lon="3.94181">
        <ele>1197.94</ele>
        <time>2025-06-15T15:40:56Z</time>
      </trkpt>
      <trkpt lat="44.77465" lon="3.94153">
        <ele>1197.94</ele>
        <time>2025-06-15T15:41:16Z</time>
      </trkpt>
      <trkpt lat="44.77455" lon="3.94126">
        <ele>1196.5</ele>
        <time>2025-06-15T15:41:33Z</time>
      </trkpt>
      <trkpt lat="44.77446" lon="3.94104">
        <ele>1193.13</ele>
        <time>2025-06-15T15:41:48Z</time>
      </trkpt>
      <trkpt lat="44.77446" lon="3.94102">
        <ele>1192.65</ele>
        <time>2025-06-15T15:41:49Z</time>
      </trkpt>
      <trkpt lat="44.77445" lon="3.941">
        <ele>1192.65</ele>
        <time>2025-06-15T15:41:50Z</time>
      </trkpt>
      <trkpt lat="44.77437" lon="3.94078">
        <ele>1192.65</ele>
        <time>2025-06-15T15:42:05Z</time>
      </trkpt>
      <trkpt lat="44.77436" lon="3.94075">
        <ele>1192.65</ele>
        <time>2025-06-15T15:42:07Z</time>
      </trkpt>
      <trkpt lat="44.77435" lon="3.94075">
        <ele>1192.65</ele>
        <time>2025-06-15T15:42:08Z</time>
      </trkpt>
      <trkpt lat="44.77413" lon="3.94071">
        <ele>1191.21</ele>
        <time>2025-06-15T15:42:26Z</time>
      </trkpt>
      <trkpt lat="44.77409" lon="3.94071">
        <ele>1191.21</ele>
        <time>2025-06-15T15:42:29Z</time>
      </trkpt>
      <trkpt lat="44.77408" lon="3.94072">
        <ele>1190.73</ele>
        <time>2025-06-15T15:42:30Z</time>
      </trkpt>
      <trkpt lat="44.77407" lon="3.94073">
        <ele>1190.73</ele>
        <time>2025-06-15T15:42:31Z</time>
      </trkpt>
      <trkpt lat="44.77406" lon="3.94074">
        <ele>1190.73</ele>
        <time>2025-06-15T15:42:32Z</time>
      </trkpt>
      <trkpt lat="44.77405" lon="3.94075">
        <ele>1190.73</ele>
        <time>2025-06-15T15:42:33Z</time>
      </trkpt>
      <trkpt lat="44.77404" lon="3.94076">
        <ele>1190.73</ele>
        <time>2025-06-15T15:42:34Z</time>
      </trkpt>
      <trkpt lat="44.77388" lon="3.94085">
        <ele>1191.21</ele>
        <time>2025-06-15T15:42:48Z</time>
      </trkpt>
      <trkpt lat="44.77385" lon="3.94085">
        <ele>1191.21</ele>
        <time>2025-06-15T15:42:51Z</time>
      </trkpt>
      <trkpt lat="44.77384" lon="3.94083">
        <ele>1191.21</ele>
        <time>2025-06-15T15:42:53Z</time>
      </trkpt>
      <trkpt lat="44.77382" lon="3.94066">
        <ele>1187.85</ele>
        <time>2025-06-15T15:43:06Z</time>
      </trkpt>
      <trkpt lat="44.77381" lon="3.94063">
        <ele>1187.37</ele>
        <time>2025-06-15T15:43:08Z</time>
      </trkpt>
      <trkpt lat="44.77381" lon="3.94062">
        <ele>1186.88</ele>
        <time>2025-06-15T15:43:09Z</time>
      </trkpt>
      <trkpt lat="44.7738" lon="3.94061">
        <ele>1186.4</ele>
        <time>2025-06-15T15:43:10Z</time>
      </trkpt>
      <trkpt lat="44.7738" lon="3.9406">
        <ele>1186.4</ele>
        <time>2025-06-15T15:43:11Z</time>
      </trkpt>
      <trkpt lat="44.77379" lon="3.94058">
        <ele>1185.92</ele>
        <time>2025-06-15T15:43:12Z</time>
      </trkpt>
      <trkpt lat="44.77378" lon="3.94057">
        <ele>1185.92</ele>
        <time>2025-06-15T15:43:13Z</time>
      </trkpt>
      <trkpt lat="44.77378" lon="3.94055">
        <ele>1185.92</ele>
        <time>2025-06-15T15:43:14Z</time>
      </trkpt>
      <trkpt lat="44.77372" lon="3.94027">
        <ele>1184.48</ele>
        <time>2025-06-15T15:43:32Z</time>
      </trkpt>
      <trkpt lat="44.77367" lon="3.94001">
        <ele>1182.08</ele>
        <time>2025-06-15T15:43:48Z</time>
      </trkpt>
      <trkpt lat="44.77362" lon="3.93973">
        <ele>1179.19</ele>
        <time>2025-06-15T15:44:06Z</time>
      </trkpt>
      <trkpt lat="44.77354" lon="3.9394">
        <ele>1176.79</ele>
        <time>2025-06-15T15:44:25Z</time>
      </trkpt>
      <trkpt lat="44.77353" lon="3.93939">
        <ele>1176.79</ele>
        <time>2025-06-15T15:44:26Z</time>
      </trkpt>
      <trkpt lat="44.77352" lon="3.93938">
        <ele>1176.79</ele>
        <time>2025-06-15T15:44:27Z</time>
      </trkpt>
      <trkpt lat="44.77352" lon="3.93936">
        <ele>1176.31</ele>
        <time>2025-06-15T15:44:28Z</time>
      </trkpt>
      <trkpt lat="44.77352" lon="3.93934">
        <ele>1176.31</ele>
        <time>2025-06-15T15:44:29Z</time>
      </trkpt>
      <trkpt lat="44.77347" lon="3.93916">
        <ele>1174.87</ele>
        <time>2025-06-15T15:44:40Z</time>
      </trkpt>
      <trkpt lat="44.77348" lon="3.93914">
        <ele>1174.87</ele>
        <time>2025-06-15T15:44:41Z</time>
      </trkpt>
      <trkpt lat="44.77364" lon="3.93883">
        <ele>1173.43</ele>
        <time>2025-06-15T15:44:57Z</time>
      </trkpt>
      <trkpt lat="44.77372" lon="3.93861">
        <ele>1175.35</ele>
        <time>2025-06-15T15:45:11Z</time>
      </trkpt>
      <trkpt lat="44.7737" lon="3.93838">
        <ele>1177.75</ele>
        <time>2025-06-15T15:45:26Z</time>
      </trkpt>
      <trkpt lat="44.7737" lon="3.93827">
        <ele>1179.19</ele>
        <time>2025-06-15T15:45:32Z</time>
      </trkpt>
      <trkpt lat="44.77369" lon="3.93826">
        <ele>1179.19</ele>
        <time>2025-06-15T15:45:33Z</time>
      </trkpt>
      <trkpt lat="44.77362" lon="3.93803">
        <ele>1181.12</ele>
        <time>2025-06-15T15:45:49Z</time>
      </trkpt>
      <trkpt lat="44.77355" lon="3.93778">
        <ele>1183.52</ele>
        <time>2025-06-15T15:46:04Z</time>
      </trkpt>
      <trkpt lat="44.77353" lon="3.9377">
        <ele>1184.48</ele>
        <time>2025-06-15T15:46:09Z</time>
      </trkpt>
      <trkpt lat="44.77353" lon="3.93768">
        <ele>1184.48</ele>
        <time>2025-06-15T15:46:10Z</time>
      </trkpt>
      <trkpt lat="44.77343" lon="3.93742">
        <ele>1185.92</ele>
        <time>2025-06-15T15:46:27Z</time>
      </trkpt>
      <trkpt lat="44.77332" lon="3.93715">
        <ele>1184.96</ele>
        <time>2025-06-15T15:46:45Z</time>
      </trkpt>
      <trkpt lat="44.77315" lon="3.93687">
        <ele>1184.96</ele>
        <time>2025-06-15T15:47:05Z</time>
      </trkpt>
      <trkpt lat="44.77306" lon="3.93675">
        <ele>1184.48</ele>
        <time>2025-06-15T15:47:14Z</time>
      </trkpt>
      <trkpt lat="44.77295" lon="3.93659">
        <ele>1183.04</ele>
        <time>2025-06-15T15:47:26Z</time>
      </trkpt>
      <trkpt lat="44.77294" lon="3.93658">
        <ele>1183.04</ele>
        <time>2025-06-15T15:47:27Z</time>
      </trkpt>
      <trkpt lat="44.77293" lon="3.93656">
        <ele>1183.52</ele>
        <time>2025-06-15T15:47:28Z</time>
      </trkpt>
      <trkpt lat="44.77275" lon="3.93634">
        <ele>1186.88</ele>
        <time>2025-06-15T15:47:47Z</time>
      </trkpt>
      <trkpt lat="44.77259" lon="3.93609">
        <ele>1191.21</ele>
        <time>2025-06-15T15:48:05Z</time>
      </trkpt>
      <trkpt lat="44.77247" lon="3.9358">
        <ele>1193.13</ele>
        <time>2025-06-15T15:48:22Z</time>
      </trkpt>
      <trkpt lat="44.77235" lon="3.93552">
        <ele>1196.98</ele>
        <time>2025-06-15T15:48:41Z</time>
      </trkpt>
      <trkpt lat="44.77221" lon="3.93527">
        <ele>1198.9</ele>
        <time>2025-06-15T15:48:59Z</time>
      </trkpt>
      <trkpt lat="44.77208" lon="3.93502">
        <ele>1200.34</ele>
        <time>2025-06-15T15:49:17Z</time>
      </trkpt>
      <trkpt lat="44.77195" lon="3.93473">
        <ele>1201.79</ele>
        <time>2025-06-15T15:49:36Z</time>
      </trkpt>
      <trkpt lat="44.77182" lon="3.9345">
        <ele>1203.23</ele>
        <time>2025-06-15T15:49:53Z</time>
      </trkpt>
      <trkpt lat="44.77168" lon="3.93425">
        <ele>1205.63</ele>
        <time>2025-06-15T15:50:08Z</time>
      </trkpt>
      <trkpt lat="44.77158" lon="3.93397">
        <ele>1209</ele>
        <time>2025-06-15T15:50:26Z</time>
      </trkpt>
      <trkpt lat="44.77153" lon="3.93363">
        <ele>1210.92</ele>
        <time>2025-06-15T15:50:46Z</time>
      </trkpt>
      <trkpt lat="44.77152" lon="3.9333">
        <ele>1210.92</ele>
        <time>2025-06-15T15:51:02Z</time>
      </trkpt>
      <trkpt lat="44.77153" lon="3.93292">
        <ele>1210.92</ele>
        <time>2025-06-15T15:51:22Z</time>
      </trkpt>
      <trkpt lat="44.77153" lon="3.9326">
        <ele>1212.84</ele>
        <time>2025-06-15T15:51:39Z</time>
      </trkpt>
      <trkpt lat="44.77153" lon="3.93227">
        <ele>1213.8</ele>
        <time>2025-06-15T15:51:57Z</time>
      </trkpt>
      <trkpt lat="44.77154" lon="3.93192">
        <ele>1214.28</ele>
        <time>2025-06-15T15:52:13Z</time>
      </trkpt>
      <trkpt lat="44.77153" lon="3.93151">
        <ele>1214.28</ele>
        <time>2025-06-15T15:52:34Z</time>
      </trkpt>
      <trkpt lat="44.7715" lon="3.93116">
        <ele>1217.17</ele>
        <time>2025-06-15T15:52:53Z</time>
      </trkpt>
      <trkpt lat="44.77146" lon="3.93072">
        <ele>1219.09</ele>
        <time>2025-06-15T15:53:14Z</time>
      </trkpt>
      <trkpt lat="44.77143" lon="3.93055">
        <ele>1219.57</ele>
        <time>2025-06-15T15:53:31Z</time>
      </trkpt>
      <trkpt lat="44.77142" lon="3.93054">
        <ele>1219.57</ele>
        <time>2025-06-15T15:53:32Z</time>
      </trkpt>
      <trkpt lat="44.77141" lon="3.93052">
        <ele>1219.57</ele>
        <time>2025-06-15T15:53:33Z</time>
      </trkpt>
      <trkpt lat="44.7714" lon="3.9305">
        <ele>1219.57</ele>
        <time>2025-06-15T15:53:34Z</time>
      </trkpt>
      <trkpt lat="44.77139" lon="3.93048">
        <ele>1219.57</ele>
        <time>2025-06-15T15:53:35Z</time>
      </trkpt>
      <trkpt lat="44.77138" lon="3.93047">
        <ele>1220.05</ele>
        <time>2025-06-15T15:53:36Z</time>
      </trkpt>
      <trkpt lat="44.77137" lon="3.93045">
        <ele>1219.57</ele>
        <time>2025-06-15T15:53:37Z</time>
      </trkpt>
      <trkpt lat="44.77129" lon="3.9301">
        <ele>1217.65</ele>
        <time>2025-06-15T15:53:55Z</time>
      </trkpt>
      <trkpt lat="44.77124" lon="3.92982">
        <ele>1216.21</ele>
        <time>2025-06-15T15:54:11Z</time>
      </trkpt>
      <trkpt lat="44.77122" lon="3.92963">
        <ele>1214.76</ele>
        <time>2025-06-15T15:54:31Z</time>
      </trkpt>
      <trkpt lat="44.77115" lon="3.92927">
        <ele>1211.4</ele>
        <time>2025-06-15T15:54:48Z</time>
      </trkpt>
      <trkpt lat="44.7711" lon="3.92891">
        <ele>1211.88</ele>
        <time>2025-06-15T15:55:05Z</time>
      </trkpt>
      <trkpt lat="44.77105" lon="3.92851">
        <ele>1212.36</ele>
        <time>2025-06-15T15:55:21Z</time>
      </trkpt>
      <trkpt lat="44.77103" lon="3.9281">
        <ele>1210.44</ele>
        <time>2025-06-15T15:55:40Z</time>
      </trkpt>
      <trkpt lat="44.77095" lon="3.92765">
        <ele>1211.4</ele>
        <time>2025-06-15T15:56:00Z</time>
      </trkpt>
      <trkpt lat="44.77089" lon="3.92733">
        <ele>1211.88</ele>
        <time>2025-06-15T15:56:18Z</time>
      </trkpt>
      <trkpt lat="44.77082" lon="3.92707">
        <ele>1212.84</ele>
        <time>2025-06-15T15:56:35Z</time>
      </trkpt>
      <trkpt lat="44.77074" lon="3.92688">
        <ele>1211.88</ele>
        <time>2025-06-15T15:56:48Z</time>
      </trkpt>
      <trkpt lat="44.7707" lon="3.92668">
        <ele>1212.36</ele>
        <time>2025-06-15T15:56:59Z</time>
      </trkpt>
      <trkpt lat="44.77056" lon="3.92632">
        <ele>1214.28</ele>
        <time>2025-06-15T15:57:18Z</time>
      </trkpt>
      <trkpt lat="44.77045" lon="3.92605">
        <ele>1212.84</ele>
        <time>2025-06-15T15:57:35Z</time>
      </trkpt>
      <trkpt lat="44.77044" lon="3.9259">
        <ele>1213.32</ele>
        <time>2025-06-15T15:57:44Z</time>
      </trkpt>
      <trkpt lat="44.77046" lon="3.92588">
        <ele>1214.28</ele>
        <time>2025-06-15T15:57:47Z</time>
      </trkpt>
      <trkpt lat="44.77048" lon="3.92584">
        <ele>1215.72</ele>
        <time>2025-06-15T15:58:00Z</time>
      </trkpt>
      <trkpt lat="44.77048" lon="3.92583">
        <ele>1215.72</ele>
        <time>2025-06-15T15:58:10Z</time>
      </trkpt>
      <trkpt lat="44.77053" lon="3.9257">
        <ele>1216.69</ele>
        <time>2025-06-15T15:58:19Z</time>
      </trkpt>
      <trkpt lat="44.77048" lon="3.92555">
        <ele>1216.69</ele>
        <time>2025-06-15T15:58:34Z</time>
      </trkpt>
      <trkpt lat="44.77031" lon="3.92533">
        <ele>1215.72</ele>
        <time>2025-06-15T15:58:52Z</time>
      </trkpt>
      <trkpt lat="44.77026" lon="3.92528">
        <ele>1219.09</ele>
        <time>2025-06-15T15:59:07Z</time>
      </trkpt>
      <trkpt lat="44.77022" lon="3.92523">
        <ele>1218.13</ele>
        <time>2025-06-15T15:59:22Z</time>
      </trkpt>
      <trkpt lat="44.77028" lon="3.92518">
        <ele>1218.13</ele>
        <time>2025-06-15T15:59:26Z</time>
      </trkpt>
      <trkpt lat="44.7703" lon="3.92515">
        <ele>1218.13</ele>
        <time>2025-06-15T15:59:27Z</time>
      </trkpt>
      <trkpt lat="44.77032" lon="3.9251">
        <ele>1218.13</ele>
        <time>2025-06-15T15:59:28Z</time>
      </trkpt>
      <trkpt lat="44.77033" lon="3.92506">
        <ele>1218.13</ele>
        <time>2025-06-15T15:59:29Z</time>
      </trkpt>
      <trkpt lat="44.77043" lon="3.92481">
        <ele>1219.57</ele>
        <time>2025-06-15T15:59:42Z</time>
      </trkpt>
      <trkpt lat="44.77061" lon="3.92461">
        <ele>1222.45</ele>
        <time>2025-06-15T16:00:00Z</time>
      </trkpt>
      <trkpt lat="44.77081" lon="3.92442">
        <ele>1224.38</ele>
        <time>2025-06-15T16:00:18Z</time>
      </trkpt>
      <trkpt lat="44.77098" lon="3.92417">
        <ele>1226.3</ele>
        <time>2025-06-15T16:00:36Z</time>
      </trkpt>
      <trkpt lat="44.77115" lon="3.92392">
        <ele>1226.78</ele>
        <time>2025-06-15T16:00:54Z</time>
      </trkpt>
      <trkpt lat="44.77133" lon="3.92371">
        <ele>1227.26</ele>
        <time>2025-06-15T16:01:11Z</time>
      </trkpt>
      <trkpt lat="44.77154" lon="3.92352">
        <ele>1227.26</ele>
        <time>2025-06-15T16:01:28Z</time>
      </trkpt>
      <trkpt lat="44.77174" lon="3.92333">
        <ele>1228.22</ele>
        <time>2025-06-15T16:01:45Z</time>
      </trkpt>
      <trkpt lat="44.77189" lon="3.92324">
        <ele>1228.22</ele>
        <time>2025-06-15T16:01:56Z</time>
      </trkpt>
      <trkpt lat="44.77191" lon="3.92323">
        <ele>1228.22</ele>
        <time>2025-06-15T16:01:57Z</time>
      </trkpt>
      <trkpt lat="44.77192" lon="3.92323">
        <ele>1228.7</ele>
        <time>2025-06-15T16:01:58Z</time>
      </trkpt>
      <trkpt lat="44.77193" lon="3.92323">
        <ele>1228.7</ele>
        <time>2025-06-15T16:01:59Z</time>
      </trkpt>
      <trkpt lat="44.77195" lon="3.92323">
        <ele>1228.7</ele>
        <time>2025-06-15T16:02:00Z</time>
      </trkpt>
      <trkpt lat="44.77196" lon="3.92323">
        <ele>1229.18</ele>
        <time>2025-06-15T16:02:01Z</time>
      </trkpt>
      <trkpt lat="44.77197" lon="3.92323">
        <ele>1229.18</ele>
        <time>2025-06-15T16:02:02Z</time>
      </trkpt>
      <trkpt lat="44.77199" lon="3.92324">
        <ele>1229.18</ele>
        <time>2025-06-15T16:02:03Z</time>
      </trkpt>
      <trkpt lat="44.772" lon="3.92325">
        <ele>1229.18</ele>
        <time>2025-06-15T16:02:04Z</time>
      </trkpt>
      <trkpt lat="44.77221" lon="3.92344">
        <ele>1228.7</ele>
        <time>2025-06-15T16:02:21Z</time>
      </trkpt>
      <trkpt lat="44.77229" lon="3.92344">
        <ele>1228.22</ele>
        <time>2025-06-15T16:02:28Z</time>
      </trkpt>
      <trkpt lat="44.77229" lon="3.92342">
        <ele>1228.22</ele>
        <time>2025-06-15T16:02:29Z</time>
      </trkpt>
      <trkpt lat="44.77241" lon="3.92315">
        <ele>1228.7</ele>
        <time>2025-06-15T16:02:46Z</time>
      </trkpt>
      <trkpt lat="44.77254" lon="3.92297">
        <ele>1228.7</ele>
        <time>2025-06-15T16:03:00Z</time>
      </trkpt>
      <trkpt lat="44.77258" lon="3.92296">
        <ele>1228.7</ele>
        <time>2025-06-15T16:03:03Z</time>
      </trkpt>
      <trkpt lat="44.77274" lon="3.9229">
        <ele>1228.22</ele>
        <time>2025-06-15T16:03:16Z</time>
      </trkpt>
      <trkpt lat="44.77296" lon="3.92308">
        <ele>1228.7</ele>
        <time>2025-06-15T16:03:35Z</time>
      </trkpt>
      <trkpt lat="44.77291" lon="3.92309">
        <ele>1227.26</ele>
        <time>2025-06-15T16:03:51Z</time>
      </trkpt>
      <trkpt lat="44.77272" lon="3.92294">
        <ele>1227.74</ele>
        <time>2025-06-15T16:04:10Z</time>
      </trkpt>
      <trkpt lat="44.77252" lon="3.92304">
        <ele>1228.22</ele>
        <time>2025-06-15T16:04:27Z</time>
      </trkpt>
      <trkpt lat="44.77252" lon="3.92288">
        <ele>1228.22</ele>
        <time>2025-06-15T16:04:40Z</time>
      </trkpt>
      <trkpt lat="44.77253" lon="3.92284">
        <ele>1228.7</ele>
        <time>2025-06-15T16:04:42Z</time>
      </trkpt>
      <trkpt lat="44.77257" lon="3.92253">
        <ele>1229.18</ele>
        <time>2025-06-15T16:05:00Z</time>
      </trkpt>
      <trkpt lat="44.77265" lon="3.92224">
        <ele>1231.59</ele>
        <time>2025-06-15T16:05:18Z</time>
      </trkpt>
      <trkpt lat="44.77271" lon="3.92195">
        <ele>1233.99</ele>
        <time>2025-06-15T16:05:38Z</time>
      </trkpt>
      <trkpt lat="44.77286" lon="3.92159">
        <ele>1238.32</ele>
        <time>2025-06-15T16:06:02Z</time>
      </trkpt>
      <trkpt lat="44.77309" lon="3.92122">
        <ele>1241.2</ele>
        <time>2025-06-15T16:06:26Z</time>
      </trkpt>
      <trkpt lat="44.77324" lon="3.92084">
        <ele>1243.12</ele>
        <time>2025-06-15T16:06:49Z</time>
      </trkpt>
      <trkpt lat="44.77341" lon="3.92065">
        <ele>1241.68</ele>
        <time>2025-06-15T16:07:13Z</time>
      </trkpt>
      <trkpt lat="44.77356" lon="3.92038">
        <ele>1239.28</ele>
        <time>2025-06-15T16:07:36Z</time>
      </trkpt>
      <trkpt lat="44.77371" lon="3.92015">
        <ele>1238.8</ele>
        <time>2025-06-15T16:07:57Z</time>
      </trkpt>
      <trkpt lat="44.77391" lon="3.91977">
        <ele>1236.87</ele>
        <time>2025-06-15T16:08:20Z</time>
      </trkpt>
      <trkpt lat="44.774" lon="3.91958">
        <ele>1236.87</ele>
        <time>2025-06-15T16:08:42Z</time>
      </trkpt>
      <trkpt lat="44.77414" lon="3.91936">
        <ele>1235.91</ele>
        <time>2025-06-15T16:09:03Z</time>
      </trkpt>
      <trkpt lat="44.77425" lon="3.91909">
        <ele>1238.8</ele>
        <time>2025-06-15T16:09:22Z</time>
      </trkpt>
      <trkpt lat="44.77431" lon="3.9189">
        <ele>1245.04</ele>
        <time>2025-06-15T16:09:44Z</time>
      </trkpt>
      <trkpt lat="44.77439" lon="3.91856">
        <ele>1249.85</ele>
        <time>2025-06-15T16:10:05Z</time>
      </trkpt>
      <trkpt lat="44.77438" lon="3.91835">
        <ele>1256.58</ele>
        <time>2025-06-15T16:10:26Z</time>
      </trkpt>
      <trkpt lat="44.77442" lon="3.91797">
        <ele>1257.06</ele>
        <time>2025-06-15T16:10:46Z</time>
      </trkpt>
      <trkpt lat="44.7744" lon="3.91768">
        <ele>1258.5</ele>
        <time>2025-06-15T16:11:04Z</time>
      </trkpt>
      <trkpt lat="44.77448" lon="3.91733">
        <ele>1256.1</ele>
        <time>2025-06-15T16:11:22Z</time>
      </trkpt>
      <trkpt lat="44.7745" lon="3.91724">
        <ele>1256.1</ele>
        <time>2025-06-15T16:11:27Z</time>
      </trkpt>
      <trkpt lat="44.77444" lon="3.91688">
        <ele>1258.5</ele>
        <time>2025-06-15T16:11:44Z</time>
      </trkpt>
      <trkpt lat="44.77442" lon="3.91673">
        <ele>1256.1</ele>
        <time>2025-06-15T16:11:52Z</time>
      </trkpt>
      <trkpt lat="44.77445" lon="3.91645">
        <ele>1257.54</ele>
        <time>2025-06-15T16:12:06Z</time>
      </trkpt>
      <trkpt lat="44.77448" lon="3.91617">
        <ele>1252.25</ele>
        <time>2025-06-15T16:12:20Z</time>
      </trkpt>
      <trkpt lat="44.77451" lon="3.91591">
        <ele>1251.77</ele>
        <time>2025-06-15T16:12:36Z</time>
      </trkpt>
      <trkpt lat="44.77442" lon="3.91557">
        <ele>1248.41</ele>
        <time>2025-06-15T16:12:56Z</time>
      </trkpt>
      <trkpt lat="44.77446" lon="3.91527">
        <ele>1240.72</ele>
        <time>2025-06-15T16:13:21Z</time>
      </trkpt>
      <trkpt lat="44.77432" lon="3.91505">
        <ele>1238.8</ele>
        <time>2025-06-15T16:13:41Z</time>
      </trkpt>
      <trkpt lat="44.77442" lon="3.91473">
        <ele>1239.28</ele>
        <time>2025-06-15T16:14:07Z</time>
      </trkpt>
      <trkpt lat="44.77447" lon="3.9146">
        <ele>1239.28</ele>
        <time>2025-06-15T16:14:30Z</time>
      </trkpt>
      <trkpt lat="44.77449" lon="3.91426">
        <ele>1240.24</ele>
        <time>2025-06-15T16:14:55Z</time>
      </trkpt>
      <trkpt lat="44.7745" lon="3.91387">
        <ele>1236.87</ele>
        <time>2025-06-15T16:15:15Z</time>
      </trkpt>
      <trkpt lat="44.77457" lon="3.9135">
        <ele>1237.35</ele>
        <time>2025-06-15T16:15:36Z</time>
      </trkpt>
      <trkpt lat="44.77458" lon="3.91302">
        <ele>1238.32</ele>
        <time>2025-06-15T16:15:59Z</time>
      </trkpt>
      <trkpt lat="44.77457" lon="3.91273">
        <ele>1236.87</ele>
        <time>2025-06-15T16:16:18Z</time>
      </trkpt>
      <trkpt lat="44.77469" lon="3.91249">
        <ele>1235.91</ele>
        <time>2025-06-15T16:16:36Z</time>
      </trkpt>
      <trkpt lat="44.77469" lon="3.91226">
        <ele>1235.91</ele>
        <time>2025-06-15T16:16:51Z</time>
      </trkpt>
      <trkpt lat="44.77464" lon="3.91196">
        <ele>1235.91</ele>
        <time>2025-06-15T16:17:12Z</time>
      </trkpt>
      <trkpt lat="44.77466" lon="3.91195">
        <ele>1237.35</ele>
        <time>2025-06-15T16:17:30Z</time>
      </trkpt>
      <trkpt lat="44.77465" lon="3.91197">
        <ele>1245.53</ele>
        <time>2025-06-15T16:17:57Z</time>
      </trkpt>
      <trkpt lat="44.77464" lon="3.91188">
        <ele>1246.49</ele>
        <time>2025-06-15T16:18:21Z</time>
      </trkpt>
      <trkpt lat="44.77464" lon="3.91185">
        <ele>1246.97</ele>
        <time>2025-06-15T16:18:22Z</time>
      </trkpt>
      <trkpt lat="44.77455" lon="3.91161">
        <ele>1247.45</ele>
        <time>2025-06-15T16:18:42Z</time>
      </trkpt>
      <trkpt lat="44.77432" lon="3.91167">
        <ele>1247.93</ele>
        <time>2025-06-15T16:19:00Z</time>
      </trkpt>
      <trkpt lat="44.77412" lon="3.91174">
        <ele>1246.97</ele>
        <time>2025-06-15T16:19:18Z</time>
      </trkpt>
      <trkpt lat="44.77392" lon="3.91177">
        <ele>1245.53</ele>
        <time>2025-06-15T16:19:38Z</time>
      </trkpt>
      <trkpt lat="44.77364" lon="3.91188">
        <ele>1246.01</ele>
        <time>2025-06-15T16:20:01Z</time>
      </trkpt>
      <trkpt lat="44.77335" lon="3.91204">
        <ele>1246.49</ele>
        <time>2025-06-15T16:20:27Z</time>
      </trkpt>
      <trkpt lat="44.77314" lon="3.9121">
        <ele>1258.98</ele>
        <time>2025-06-15T16:20:42Z</time>
      </trkpt>
      <trkpt lat="44.77304" lon="3.91208">
        <ele>1258.98</ele>
        <time>2025-06-15T16:20:58Z</time>
      </trkpt>
      <trkpt lat="44.77295" lon="3.91183">
        <ele>1258.5</ele>
        <time>2025-06-15T16:21:13Z</time>
      </trkpt>
      <trkpt lat="44.77284" lon="3.91157">
        <ele>1264.27</ele>
        <time>2025-06-15T16:21:31Z</time>
      </trkpt>
      <trkpt lat="44.77273" lon="3.91122">
        <ele>1268.12</ele>
        <time>2025-06-15T16:21:51Z</time>
      </trkpt>
      <trkpt lat="44.77262" lon="3.91071">
        <ele>1267.64</ele>
        <time>2025-06-15T16:22:15Z</time>
      </trkpt>
      <trkpt lat="44.77254" lon="3.91036">
        <ele>1275.33</ele>
        <time>2025-06-15T16:22:35Z</time>
      </trkpt>
      <trkpt lat="44.77269" lon="3.91004">
        <ele>1277.73</ele>
        <time>2025-06-15T16:22:53Z</time>
      </trkpt>
      <trkpt lat="44.77282" lon="3.90974">
        <ele>1275.33</ele>
        <time>2025-06-15T16:23:14Z</time>
      </trkpt>
      <trkpt lat="44.773" lon="3.90938">
        <ele>1271.48</ele>
        <time>2025-06-15T16:23:33Z</time>
      </trkpt>
      <trkpt lat="44.77313" lon="3.9091">
        <ele>1273.4</ele>
        <time>2025-06-15T16:23:53Z</time>
      </trkpt>
      <trkpt lat="44.77337" lon="3.90894">
        <ele>1270.04</ele>
        <time>2025-06-15T16:24:13Z</time>
      </trkpt>
      <trkpt lat="44.77357" lon="3.90878">
        <ele>1265.71</ele>
        <time>2025-06-15T16:24:29Z</time>
      </trkpt>
      <trkpt lat="44.77367" lon="3.90851">
        <ele>1261.87</ele>
        <time>2025-06-15T16:24:48Z</time>
      </trkpt>
      <trkpt lat="44.77381" lon="3.90827">
        <ele>1261.39</ele>
        <time>2025-06-15T16:25:04Z</time>
      </trkpt>
      <trkpt lat="44.774" lon="3.90796">
        <ele>1259.46</ele>
        <time>2025-06-15T16:25:24Z</time>
      </trkpt>
      <trkpt lat="44.77413" lon="3.9076">
        <ele>1255.14</ele>
        <time>2025-06-15T16:25:44Z</time>
      </trkpt>
      <trkpt lat="44.77433" lon="3.90732">
        <ele>1254.18</ele>
        <time>2025-06-15T16:26:05Z</time>
      </trkpt>
      <trkpt lat="44.7745" lon="3.90706">
        <ele>1264.75</ele>
        <time>2025-06-15T16:26:23Z</time>
      </trkpt>
      <trkpt lat="44.77464" lon="3.90684">
        <ele>1268.12</ele>
        <time>2025-06-15T16:26:37Z</time>
      </trkpt>
      <trkpt lat="44.77465" lon="3.90672">
        <ele>1269.56</ele>
        <time>2025-06-15T16:26:43Z</time>
      </trkpt>
      <trkpt lat="44.77468" lon="3.90646">
        <ele>1271.48</ele>
        <time>2025-06-15T16:27:00Z</time>
      </trkpt>
      <trkpt lat="44.7747" lon="3.90622">
        <ele>1269.08</ele>
        <time>2025-06-15T16:27:15Z</time>
      </trkpt>
      <trkpt lat="44.77472" lon="3.90596">
        <ele>1266.67</ele>
        <time>2025-06-15T16:27:30Z</time>
      </trkpt>
      <trkpt lat="44.77475" lon="3.90586">
        <ele>1266.19</ele>
        <time>2025-06-15T16:27:36Z</time>
      </trkpt>
      <trkpt lat="44.77483" lon="3.90554">
        <ele>1267.64</ele>
        <time>2025-06-15T16:27:54Z</time>
      </trkpt>
      <trkpt lat="44.77491" lon="3.90525">
        <ele>1269.08</ele>
        <time>2025-06-15T16:28:12Z</time>
      </trkpt>
      <trkpt lat="44.775" lon="3.90492">
        <ele>1271</ele>
        <time>2025-06-15T16:28:29Z</time>
      </trkpt>
      <trkpt lat="44.77502" lon="3.90467">
        <ele>1270.52</ele>
        <time>2025-06-15T16:28:44Z</time>
      </trkpt>
      <trkpt lat="44.77502" lon="3.90465">
        <ele>1270.52</ele>
        <time>2025-06-15T16:28:46Z</time>
      </trkpt>
      <trkpt lat="44.77502" lon="3.9046">
        <ele>1271</ele>
        <time>2025-06-15T16:29:00Z</time>
      </trkpt>
      <trkpt lat="44.77501" lon="3.90459">
        <ele>1271</ele>
        <time>2025-06-15T16:29:16Z</time>
      </trkpt>
      <trkpt lat="44.77501" lon="3.90459">
        <ele>1271.96</ele>
        <time>2025-06-15T16:29:29Z</time>
      </trkpt>
      <trkpt lat="44.77502" lon="3.9046">
        <ele>1271.96</ele>
        <time>2025-06-15T16:29:31Z</time>
      </trkpt>
      <trkpt lat="44.7752" lon="3.90454">
        <ele>1271.96</ele>
        <time>2025-06-15T16:29:48Z</time>
      </trkpt>
      <trkpt lat="44.77538" lon="3.90437">
        <ele>1270.52</ele>
        <time>2025-06-15T16:30:05Z</time>
      </trkpt>
      <trkpt lat="44.77559" lon="3.9042">
        <ele>1266.19</ele>
        <time>2025-06-15T16:30:24Z</time>
      </trkpt>
      <trkpt lat="44.77576" lon="3.90407">
        <ele>1264.27</ele>
        <time>2025-06-15T16:30:37Z</time>
      </trkpt>
      <trkpt lat="44.776" lon="3.90391">
        <ele>1256.58</ele>
        <time>2025-06-15T16:30:57Z</time>
      </trkpt>
      <trkpt lat="44.77627" lon="3.90375">
        <ele>1250.33</ele>
        <time>2025-06-15T16:31:18Z</time>
      </trkpt>
      <trkpt lat="44.77644" lon="3.90363">
        <ele>1248.41</ele>
        <time>2025-06-15T16:31:35Z</time>
      </trkpt>
      <trkpt lat="44.77673" lon="3.90355">
        <ele>1239.76</ele>
        <time>2025-06-15T16:31:55Z</time>
      </trkpt>
      <trkpt lat="44.77704" lon="3.9033">
        <ele>1235.91</ele>
        <time>2025-06-15T16:32:19Z</time>
      </trkpt>
      <trkpt lat="44.7772" lon="3.90316">
        <ele>1227.26</ele>
        <time>2025-06-15T16:32:39Z</time>
      </trkpt>
      <trkpt lat="44.77748" lon="3.90291">
        <ele>1228.7</ele>
        <time>2025-06-15T16:32:56Z</time>
      </trkpt>
      <trkpt lat="44.77775" lon="3.9027">
        <ele>1234.47</ele>
        <time>2025-06-15T16:33:18Z</time>
      </trkpt>
      <trkpt lat="44.77798" lon="3.90259">
        <ele>1233.51</ele>
        <time>2025-06-15T16:33:37Z</time>
      </trkpt>
      <trkpt lat="44.77815" lon="3.90249">
        <ele>1220.53</ele>
        <time>2025-06-15T16:33:58Z</time>
      </trkpt>
      <trkpt lat="44.77832" lon="3.90232">
        <ele>1212.36</ele>
        <time>2025-06-15T16:34:15Z</time>
      </trkpt>
      <trkpt lat="44.77854" lon="3.90215">
        <ele>1208.03</ele>
        <time>2025-06-15T16:34:34Z</time>
      </trkpt>
      <trkpt lat="44.7789" lon="3.90186">
        <ele>1211.4</ele>
        <time>2025-06-15T16:34:56Z</time>
      </trkpt>
      <trkpt lat="44.77918" lon="3.9017">
        <ele>1215.72</ele>
        <time>2025-06-15T16:35:17Z</time>
      </trkpt>
      <trkpt lat="44.77937" lon="3.9016">
        <ele>1203.23</ele>
        <time>2025-06-15T16:35:37Z</time>
      </trkpt>
      <trkpt lat="44.77965" lon="3.90134">
        <ele>1201.79</ele>
        <time>2025-06-15T16:36:02Z</time>
      </trkpt>
      <trkpt lat="44.77984" lon="3.90087">
        <ele>1228.22</ele>
        <time>2025-06-15T16:36:24Z</time>
      </trkpt>
      <trkpt lat="44.77988" lon="3.90065">
        <ele>1246.01</ele>
        <time>2025-06-15T16:36:41Z</time>
      </trkpt>
      <trkpt lat="44.77991" lon="3.90035">
        <ele>1248.41</ele>
        <time>2025-06-15T16:36:58Z</time>
      </trkpt>
      <trkpt lat="44.77993" lon="3.90003">
        <ele>1248.89</ele>
        <time>2025-06-15T16:37:11Z</time>
      </trkpt>
      <trkpt lat="44.77996" lon="3.8997">
        <ele>1252.25</ele>
        <time>2025-06-15T16:37:27Z</time>
      </trkpt>
      <trkpt lat="44.77998" lon="3.89945">
        <ele>1255.62</ele>
        <time>2025-06-15T16:37:42Z</time>
      </trkpt>
      <trkpt lat="44.78002" lon="3.89925">
        <ele>1258.02</ele>
        <time>2025-06-15T16:37:54Z</time>
      </trkpt>
      <trkpt lat="44.78003" lon="3.89913">
        <ele>1259.46</ele>
        <time>2025-06-15T16:38:02Z</time>
      </trkpt>
      <trkpt lat="44.78004" lon="3.89907">
        <ele>1259.94</ele>
        <time>2025-06-15T16:38:05Z</time>
      </trkpt>
      <trkpt lat="44.78014" lon="3.89866">
        <ele>1259.46</ele>
        <time>2025-06-15T16:38:17Z</time>
      </trkpt>
      <trkpt lat="44.78023" lon="3.89797">
        <ele>1259.46</ele>
        <time>2025-06-15T16:38:28Z</time>
      </trkpt>
      <trkpt lat="44.78025" lon="3.89781">
        <ele>1259.46</ele>
        <time>2025-06-15T16:38:30Z</time>
      </trkpt>
      <trkpt lat="44.78026" lon="3.89776">
        <ele>1259.46</ele>
        <time>2025-06-15T16:38:31Z</time>
      </trkpt>
      <trkpt lat="44.78032" lon="3.89756">
        <ele>1260.43</ele>
        <time>2025-06-15T16:38:35Z</time>
      </trkpt>
      <trkpt lat="44.78032" lon="3.8975">
        <ele>1260.43</ele>
        <time>2025-06-15T16:38:36Z</time>
      </trkpt>
      <trkpt lat="44.78032" lon="3.89743">
        <ele>1260.91</ele>
        <time>2025-06-15T16:38:37Z</time>
      </trkpt>
      <trkpt lat="44.78033" lon="3.89736">
        <ele>1260.91</ele>
        <time>2025-06-15T16:38:38Z</time>
      </trkpt>
      <trkpt lat="44.78033" lon="3.89731">
        <ele>1261.39</ele>
        <time>2025-06-15T16:38:39Z</time>
      </trkpt>
      <trkpt lat="44.78034" lon="3.89726">
        <ele>1261.87</ele>
        <time>2025-06-15T16:38:40Z</time>
      </trkpt>
      <trkpt lat="44.78034" lon="3.89691">
        <ele>1265.23</ele>
        <time>2025-06-15T16:38:51Z</time>
      </trkpt>
      <trkpt lat="44.78034" lon="3.89669">
        <ele>1265.71</ele>
        <time>2025-06-15T16:39:01Z</time>
      </trkpt>
      <trkpt lat="44.78032" lon="3.89658">
        <ele>1265.71</ele>
        <time>2025-06-15T16:39:07Z</time>
      </trkpt>
      <trkpt lat="44.78031" lon="3.89658">
        <ele>1265.71</ele>
        <time>2025-06-15T16:39:08Z</time>
      </trkpt>
      <trkpt lat="44.7803" lon="3.89661">
        <ele>1265.23</ele>
        <time>2025-06-15T16:39:10Z</time>
      </trkpt>
      <trkpt lat="44.7803" lon="3.89664">
        <ele>1264.75</ele>
        <time>2025-06-15T16:39:11Z</time>
      </trkpt>
      <trkpt lat="44.78029" lon="3.89666">
        <ele>1264.27</ele>
        <time>2025-06-15T16:39:12Z</time>
      </trkpt>
      <trkpt lat="44.78028" lon="3.89668">
        <ele>1263.79</ele>
        <time>2025-06-15T16:39:13Z</time>
      </trkpt>
      <trkpt lat="44.78027" lon="3.8967">
        <ele>1263.31</ele>
        <time>2025-06-15T16:39:14Z</time>
      </trkpt>
      <trkpt lat="44.78027" lon="3.89672">
        <ele>1262.83</ele>
        <time>2025-06-15T16:39:15Z</time>
      </trkpt>
      <trkpt lat="44.78026" lon="3.89675">
        <ele>1262.83</ele>
        <time>2025-06-15T16:39:16Z</time>
      </trkpt>
      <trkpt lat="44.78025" lon="3.89677">
        <ele>1262.35</ele>
        <time>2025-06-15T16:39:17Z</time>
      </trkpt>
      <trkpt lat="44.78024" lon="3.89679">
        <ele>1262.35</ele>
        <time>2025-06-15T16:39:18Z</time>
      </trkpt>
      <trkpt lat="44.78014" lon="3.89693">
        <ele>1258.98</ele>
        <time>2025-06-15T16:39:32Z</time>
      </trkpt>
      <trkpt lat="44.78015" lon="3.89695">
        <ele>1257.54</ele>
        <time>2025-06-15T16:39:55Z</time>
      </trkpt>
      <trkpt lat="44.78014" lon="3.89691">
        <ele>1254.18</ele>
        <time>2025-06-15T16:40:14Z</time>
      </trkpt>
      <trkpt lat="44.78011" lon="3.89681">
        <ele>1253.22</ele>
        <time>2025-06-15T16:40:34Z</time>
      </trkpt>
      <trkpt lat="44.7801" lon="3.89686">
        <ele>1248.89</ele>
        <time>2025-06-15T16:40:48Z</time>
      </trkpt>
      <trkpt lat="44.78012" lon="3.89688">
        <ele>1250.33</ele>
        <time>2025-06-15T16:41:05Z</time>
      </trkpt>
      <trkpt lat="44.78009" lon="3.8969">
        <ele>1250.33</ele>
        <time>2025-06-15T16:41:21Z</time>
      </trkpt>
      <trkpt lat="44.7801" lon="3.8969">
        <ele>1246.97</ele>
        <time>2025-06-15T16:41:41Z</time>
      </trkpt>
      <trkpt lat="44.78014" lon="3.89689">
        <ele>1245.53</ele>
        <time>2025-06-15T16:42:03Z</time>
      </trkpt>
      <trkpt lat="44.7801" lon="3.89686">
        <ele>1245.04</ele>
        <time>2025-06-15T16:42:17Z</time>
      </trkpt>
      <trkpt lat="44.78007" lon="3.89681">
        <ele>1248.41</ele>
        <time>2025-06-15T16:42:43Z</time>
      </trkpt>
      <trkpt lat="44.78012" lon="3.89686">
        <ele>1248.41</ele>
        <time>2025-06-15T16:42:58Z</time>
      </trkpt>
      <trkpt lat="44.78014" lon="3.89688">
        <ele>1249.37</ele>
        <time>2025-06-15T16:43:15Z</time>
      </trkpt>
      <trkpt lat="44.78014" lon="3.89691">
        <ele>1251.29</ele>
        <time>2025-06-15T16:43:26Z</time>
      </trkpt>
      <trkpt lat="44.78009" lon="3.89689">
        <ele>1248.89</ele>
        <time>2025-06-15T16:43:40Z</time>
      </trkpt>
      <trkpt lat="44.78011" lon="3.89685">
        <ele>1251.77</ele>
        <time>2025-06-15T16:43:57Z</time>
      </trkpt>
      <trkpt lat="44.7801" lon="3.89687">
        <ele>1251.29</ele>
        <time>2025-06-15T16:44:11Z</time>
      </trkpt>
      <trkpt lat="44.78012" lon="3.89685">
        <ele>1249.85</ele>
        <time>2025-06-15T16:44:26Z</time>
      </trkpt>
      <trkpt lat="44.78011" lon="3.89687">
        <ele>1250.33</ele>
        <time>2025-06-15T16:44:44Z</time>
      </trkpt>
      <trkpt lat="44.78009" lon="3.8969">
        <ele>1250.81</ele>
        <time>2025-06-15T16:45:01Z</time>
      </trkpt>
      <trkpt lat="44.78009" lon="3.8969">
        <ele>1249.37</ele>
        <time>2025-06-15T16:45:14Z</time>
      </trkpt>
      <trkpt lat="44.78013" lon="3.89688">
        <ele>1246.97</ele>
        <time>2025-06-15T16:45:28Z</time>
      </trkpt>
      <trkpt lat="44.78011" lon="3.89687">
        <ele>1245.04</ele>
        <time>2025-06-15T16:45:49Z</time>
      </trkpt>
      <trkpt lat="44.78014" lon="3.89686">
        <ele>1245.04</ele>
        <time>2025-06-15T16:46:12Z</time>
      </trkpt>
      <trkpt lat="44.7801" lon="3.89687">
        <ele>1244.08</ele>
        <time>2025-06-15T16:46:24Z</time>
      </trkpt>
      <trkpt lat="44.78011" lon="3.89684">
        <ele>1243.6</ele>
        <time>2025-06-15T16:46:48Z</time>
      </trkpt>
      <trkpt lat="44.78009" lon="3.89692">
        <ele>1245.53</ele>
        <time>2025-06-15T16:47:12Z</time>
      </trkpt>
      <trkpt lat="44.78008" lon="3.89695">
        <ele>1245.04</ele>
        <time>2025-06-15T16:47:34Z</time>
      </trkpt>
      <trkpt lat="44.78006" lon="3.89699">
        <ele>1247.93</ele>
        <time>2025-06-15T16:47:54Z</time>
      </trkpt>
      <trkpt lat="44.78007" lon="3.89687">
        <ele>1246.49</ele>
        <time>2025-06-15T16:48:15Z</time>
      </trkpt>
      <trkpt lat="44.78008" lon="3.89689">
        <ele>1245.53</ele>
        <time>2025-06-15T16:48:35Z</time>
      </trkpt>
      <trkpt lat="44.78009" lon="3.89686">
        <ele>1246.49</ele>
        <time>2025-06-15T16:48:49Z</time>
      </trkpt>
      <trkpt lat="44.78007" lon="3.89693">
        <ele>1250.33</ele>
        <time>2025-06-15T16:49:12Z</time>
      </trkpt>
      <trkpt lat="44.78009" lon="3.89689">
        <ele>1251.77</ele>
        <time>2025-06-15T16:49:27Z</time>
      </trkpt>
      <trkpt lat="44.78007" lon="3.89691">
        <ele>1252.25</ele>
        <time>2025-06-15T16:49:55Z</time>
      </trkpt>
      <trkpt lat="44.78011" lon="3.89684">
        <ele>1247.93</ele>
        <time>2025-06-15T16:50:18Z</time>
      </trkpt>
      <trkpt lat="44.78009" lon="3.8969">
        <ele>1246.49</ele>
        <time>2025-06-15T16:50:44Z</time>
      </trkpt>
      <trkpt lat="44.78008" lon="3.89689">
        <ele>1246.97</ele>
        <time>2025-06-15T16:50:58Z</time>
      </trkpt>
      <trkpt lat="44.78008" lon="3.89688">
        <ele>1247.93</ele>
        <time>2025-06-15T16:51:20Z</time>
      </trkpt>
      <trkpt lat="44.78008" lon="3.89683">
        <ele>1247.45</ele>
        <time>2025-06-15T16:51:42Z</time>
      </trkpt>
      <trkpt lat="44.78011" lon="3.89685">
        <ele>1252.74</ele>
        <time>2025-06-15T16:51:59Z</time>
      </trkpt>
      <trkpt lat="44.78009" lon="3.89689">
        <ele>1251.77</ele>
        <time>2025-06-15T16:52:12Z</time>
      </trkpt>
    </trkseg>
  </trk>
</gpx>